Time,TemperatureF,DewpointF,PressureIn,WindDirection,WindDirectionDegrees,WindSpeedMPH,WindSpeedGustMPH,Humidity,HourlyPrecipIn,Conditions,Clouds,dailyrainin,SoftwareType,DateUTC
2013-09-21 00:00:00,48.2,40.7,30.17,West,259,0.0,0.0,75,0.00,,SKC,0.00,VWS V14.01,2013-09-21 06:00:00,
2013-09-21 00:01:00,48.1,40.6,30.17,West,260,0.0,0.0,75,0.00,,SKC,0.00,VWS V14.01,2013-09-21 06:01:00,
2013-09-21 00:02:00,48.1,40.2,30.17,WSW,258,0.0,0.0,74,0.00,,SKC,0.00,VWS V14.01,2013-09-21 06:02:00,
2013-09-21 00:03:00,48.0,40.1,30.17,WSW,258,0.0,0.0,74,0.00,,SKC,0.00,VWS V14.01,2013-09-21 06:03:00,
2013-09-21 00:04:00,48.0,40.1,30.17,WSW,257,0.0,1.0,74,0.00,,SKC,0.00,VWS V14.01,2013-09-21 06:04:00,
2013-09-21 00:05:00,47.9,40.0,30.17,West,263,1.0,3.0,74,0.00,,SKC,0.00,VWS V14.01,2013-09-21 06:05:00,
2013-09-21 00:06:00,47.8,39.6,30.17,West,259,0.0,1.0,73,0.00,,SKC,0.00,VWS V14.01,2013-09-21 06:06:00,
2013-09-21 00:07:00,47.7,39.5,30.17,WSW,257,0.0,1.0,73,0.00,,SKC,0.00,VWS V14.01,2013-09-21 06:07:00,
2013-09-21 00:08:00,47.7,39.1,30.17,WSW,257,1.0,1.0,72,0.00,,SKC,0.00,VWS V14.01,2013-09-21 06:08:00,
2013-09-21 00:09:00,47.6,39.0,30.17,West,260,0.0,1.0,72,0.00,,SKC,0.00,VWS V14.01,2013-09-21 06:09:00,
2013-09-21 00:10:00,47.7,39.1,30.17,WSW,258,0.0,2.0,72,0.00,,SKC,0.00,VWS V14.01,2013-09-21 06:10:00,
2013-09-21 00:11:00,47.7,39.1,30.17,West,261,0.0,0.0,72,0.00,,SKC,0.00,VWS V14.01,2013-09-21 06:11:00,
2013-09-21 00:12:00,47.7,39.5,30.17,West,261,1.0,1.0,73,0.00,,SKC,0.00,VWS V14.01,2013-09-21 06:12:00,
2013-09-21 00:13:00,47.7,39.5,30.17,West,259,0.0,2.0,73,0.00,,SKC,0.00,VWS V14.01,2013-09-21 06:13:00,
2013-09-21 00:14:00,47.7,38.8,30.17,West,261,0.0,1.0,71,0.00,,SKC,0.00,VWS V14.01,2013-09-21 06:14:00,
2013-09-21 00:15:00,47.6,38.3,30.17,WSW,258,0.0,1.0,70,0.00,,SKC,0.00,VWS V14.01,2013-09-21 06:15:00,
2013-09-21 00:16:00,47.6,38.7,30.17,WSW,257,0.0,0.0,71,0.00,,SKC,0.00,VWS V14.01,2013-09-21 06:16:00,
2013-09-21 00:17:00,47.6,38.7,30.17,West,259,0.0,0.0,71,0.00,,SKC,0.00,VWS V14.01,2013-09-21 06:17:00,
2013-09-21 00:18:00,47.6,39.0,30.17,WSW,258,1.0,1.0,72,0.00,,SKC,0.00,VWS V14.01,2013-09-21 06:18:00,
2013-09-21 00:19:00,47.5,39.3,30.17,WSW,249,0.0,2.0,73,0.00,,SKC,0.00,VWS V14.01,2013-09-21 06:19:00,
2013-09-21 00:20:00,47.5,39.3,30.17,WSW,250,0.0,1.0,73,0.00,,SKC,0.00,VWS V14.01,2013-09-21 06:20:00,
2013-09-21 00:21:00,47.5,39.3,30.17,WSW,251,0.0,0.0,73,0.00,,SKC,0.00,VWS V14.01,2013-09-21 06:21:00,
2013-09-21 00:22:00,47.4,38.5,30.17,WSW,250,0.0,0.0,71,0.00,,SKC,0.00,VWS V14.01,2013-09-21 06:22:00,
2013-09-21 00:23:00,47.4,38.5,30.17,WSW,252,0.0,0.0,71,0.00,,SKC,0.00,VWS V14.01,2013-09-21 06:23:00,
2013-09-21 00:24:00,47.3,38.0,30.17,WSW,250,0.0,0.0,70,0.00,,SKC,0.00,VWS V14.01,2013-09-21 06:24:00,
2013-09-21 00:25:00,47.3,37.7,30.17,WSW,254,0.0,0.0,69,0.00,,SKC,0.00,VWS V14.01,2013-09-21 06:25:00,
2013-09-21 00:26:00,47.3,37.7,30.17,WSW,251,0.0,0.0,69,0.00,,SKC,0.00,VWS V14.01,2013-09-21 06:26:00,
2013-09-21 00:27:00,47.3,38.0,30.17,WSW,250,0.0,1.0,70,0.00,,SKC,0.00,VWS V14.01,2013-09-21 06:27:00,
2013-09-21 00:28:00,47.3,37.7,30.17,WSW,253,0.0,0.0,69,0.00,,SKC,0.00,VWS V14.01,2013-09-21 06:28:00,
2013-09-21 00:29:00,47.3,37.7,30.17,WSW,251,0.0,0.0,69,0.00,,SKC,0.00,VWS V14.01,2013-09-21 06:29:00,
2013-09-21 00:30:00,47.3,37.3,30.17,WSW,251,0.0,0.0,68,0.00,,SKC,0.00,VWS V14.01,2013-09-21 06:30:00,
2013-09-21 00:31:00,47.3,36.9,30.17,North,360,0.0,0.0,67,0.00,,SKC,0.00,VWS V14.01,2013-09-21 06:31:00,
2013-09-21 00:32:00,47.4,37.0,30.17,WSW,249,0.0,0.0,67,0.00,,SKC,0.00,VWS V14.01,2013-09-21 06:32:00,
2013-09-21 00:33:00,47.4,37.4,30.16,WSW,251,0.0,0.0,68,0.00,,SKC,0.00,VWS V14.01,2013-09-21 06:33:00,
2013-09-21 00:34:00,47.4,37.4,30.17,WSW,252,0.0,0.0,68,0.00,,SKC,0.00,VWS V14.01,2013-09-21 06:34:00,
2013-09-21 00:35:00,47.4,37.0,30.17,WSW,255,0.0,0.0,67,0.00,,SKC,0.00,VWS V14.01,2013-09-21 06:35:00,
2013-09-21 00:36:00,47.3,36.9,30.17,WSW,248,0.0,0.0,67,0.00,,SKC,0.00,VWS V14.01,2013-09-21 06:36:00,
2013-09-21 00:37:00,47.3,36.9,30.17,North,360,0.0,0.0,67,0.00,,SKC,0.00,VWS V14.01,2013-09-21 06:37:00,
2013-09-21 00:38:00,47.3,36.9,30.16,WSW,248,0.0,0.0,67,0.00,,SKC,0.00,VWS V14.01,2013-09-21 06:38:00,
2013-09-21 00:39:00,47.3,37.3,30.17,WSW,248,0.0,0.0,68,0.00,,SKC,0.00,VWS V14.01,2013-09-21 06:39:00,
2013-09-21 00:40:00,47.2,36.8,30.17,WSW,250,0.0,0.0,67,0.00,,SKC,0.00,VWS V14.01,2013-09-21 06:40:00,
2013-09-21 00:41:00,47.2,37.2,30.17,North,360,0.0,0.0,68,0.00,,SKC,0.00,VWS V14.01,2013-09-21 06:41:00,
2013-09-21 00:42:00,47.2,37.2,30.17,WNW,291,3.0,3.0,68,0.00,,SKC,0.00,VWS V14.01,2013-09-21 06:42:00,
2013-09-21 00:43:00,47.3,36.9,30.16,WNW,295,3.0,4.0,67,0.00,,SKC,0.00,VWS V14.01,2013-09-21 06:43:00,
2013-09-21 00:44:00,47.4,37.0,30.16,WNW,296,0.0,3.0,67,0.00,,SKC,0.00,VWS V14.01,2013-09-21 06:44:00,
2013-09-21 00:45:00,47.6,36.4,30.17,WNW,297,0.0,1.0,65,0.00,,SKC,0.00,VWS V14.01,2013-09-21 06:45:00,
2013-09-21 00:46:00,47.7,36.5,30.16,WNW,295,0.0,0.0,65,0.00,,SKC,0.00,VWS V14.01,2013-09-21 06:46:00,
2013-09-21 00:47:00,47.8,36.2,30.16,WNW,296,0.0,0.0,64,0.00,,SKC,0.00,VWS V14.01,2013-09-21 06:47:00,
2013-09-21 00:48:00,48.0,36.8,30.16,North,360,0.0,0.0,65,0.00,,SKC,0.00,VWS V14.01,2013-09-21 06:48:00,
2013-09-21 00:49:00,48.1,36.9,30.16,WNW,298,0.0,0.0,65,0.00,,SKC,0.00,VWS V14.01,2013-09-21 06:49:00,
2013-09-21 00:50:00,48.2,37.0,30.16,North,360,0.0,0.0,65,0.00,,SKC,0.00,VWS V14.01,2013-09-21 06:50:00,
2013-09-21 00:51:00,48.2,37.0,30.16,WNW,290,0.0,0.0,65,0.00,,SKC,0.00,VWS V14.01,2013-09-21 06:51:00,
2013-09-21 00:52:00,48.3,37.1,30.16,WNW,293,0.0,0.0,65,0.00,,SKC,0.00,VWS V14.01,2013-09-21 06:52:00,
2013-09-21 00:53:00,48.3,37.1,30.16,WNW,299,0.0,0.0,65,0.00,,SKC,0.00,VWS V14.01,2013-09-21 06:53:00,
2013-09-21 00:54:00,48.3,36.7,30.16,WNW,298,0.0,0.0,64,0.00,,SKC,0.00,VWS V14.01,2013-09-21 06:54:00,
2013-09-21 00:55:00,48.2,37.0,30.16,WNW,298,1.0,2.0,65,0.00,,SKC,0.00,VWS V14.01,2013-09-21 06:55:00,
2013-09-21 00:56:00,48.2,37.0,30.16,WNW,300,0.0,1.0,65,0.00,,SKC,0.00,VWS V14.01,2013-09-21 06:56:00,
2013-09-21 00:57:00,48.1,36.5,30.16,WNW,298,0.0,0.0,64,0.00,,SKC,0.00,VWS V14.01,2013-09-21 06:57:00,
2013-09-21 00:58:00,48.1,36.1,30.16,North,360,0.0,1.0,63,0.00,,SKC,0.00,VWS V14.01,2013-09-21 06:58:00,
2013-09-21 00:59:00,48.1,36.1,30.16,WNW,296,0.0,0.0,63,0.00,,SKC,0.00,VWS V14.01,2013-09-21 06:59:00,
2013-09-21 01:00:00,48.0,35.2,30.16,WNW,300,0.0,1.0,61,0.00,,SKC,0.00,VWS V14.01,2013-09-21 07:00:00,
2013-09-21 01:01:00,48.0,35.2,30.16,WNW,297,0.0,0.0,61,0.00,,SKC,0.00,VWS V14.01,2013-09-21 07:01:00,
2013-09-21 01:02:00,48.0,35.6,30.16,North,360,0.0,3.0,62,0.00,,SKC,0.00,VWS V14.01,2013-09-21 07:02:00,
2013-09-21 01:03:00,48.0,35.6,30.16,NW,323,3.0,3.0,62,0.00,,SKC,0.00,VWS V14.01,2013-09-21 07:03:00,
2013-09-21 01:04:00,47.9,35.5,30.16,West,272,3.0,3.0,62,0.00,,SKC,0.00,VWS V14.01,2013-09-21 07:04:00,
2013-09-21 01:05:00,47.9,34.7,30.17,West,274,0.0,3.0,60,0.00,,SKC,0.00,VWS V14.01,2013-09-21 07:05:00,
2013-09-21 01:06:00,47.9,35.1,30.17,NNW,340,2.0,4.0,61,0.00,,SKC,0.00,VWS V14.01,2013-09-21 07:06:00,
2013-09-21 01:07:00,47.9,35.1,30.16,NNW,337,0.0,2.0,61,0.00,,SKC,0.00,VWS V14.01,2013-09-21 07:07:00,
2013-09-21 01:08:00,47.9,34.7,30.16,NNW,340,0.0,0.0,60,0.00,,SKC,0.00,VWS V14.01,2013-09-21 07:08:00,
2013-09-21 01:09:00,47.9,34.7,30.16,North,360,0.0,1.0,60,0.00,,SKC,0.00,VWS V14.01,2013-09-21 07:09:00,
2013-09-21 01:10:00,47.9,34.3,30.16,NNW,338,0.0,1.0,59,0.00,,SKC,0.00,VWS V14.01,2013-09-21 07:10:00,
2013-09-21 01:11:00,47.9,34.7,30.16,NNW,338,0.0,0.0,60,0.00,,SKC,0.00,VWS V14.01,2013-09-21 07:11:00,
2013-09-21 01:12:00,47.9,34.3,30.16,NNW,338,2.0,2.0,59,0.00,,SKC,0.00,VWS V14.01,2013-09-21 07:12:00,
2013-09-21 01:13:00,47.9,34.7,30.16,NNW,339,0.0,3.0,60,0.00,,SKC,0.00,VWS V14.01,2013-09-21 07:13:00,
2013-09-21 01:14:00,47.9,34.7,30.16,NNW,343,0.0,0.0,60,0.00,,SKC,0.00,VWS V14.01,2013-09-21 07:14:00,
2013-09-21 01:15:00,47.9,35.1,30.17,NNW,342,0.0,0.0,61,0.00,,SKC,0.00,VWS V14.01,2013-09-21 07:15:00,
2013-09-21 01:16:00,47.9,35.1,30.16,NNW,337,0.0,0.0,61,0.00,,SKC,0.00,VWS V14.01,2013-09-21 07:16:00,
2013-09-21 01:17:00,47.9,34.7,30.16,North,360,0.0,0.0,60,0.00,,SKC,0.00,VWS V14.01,2013-09-21 07:17:00,
2013-09-21 01:18:00,47.9,34.3,30.17,NNW,340,0.0,1.0,59,0.00,,SKC,0.00,VWS V14.01,2013-09-21 07:18:00,
2013-09-21 01:19:00,47.9,34.3,30.17,NNW,342,0.0,0.0,59,0.00,,SKC,0.00,VWS V14.01,2013-09-21 07:19:00,
2013-09-21 01:20:00,47.9,34.3,30.16,NNW,339,1.0,2.0,59,0.00,,SKC,0.00,VWS V14.01,2013-09-21 07:20:00,
2013-09-21 01:21:00,47.9,34.3,30.17,NNW,338,0.0,1.0,59,0.00,,SKC,0.00,VWS V14.01,2013-09-21 07:21:00,
2013-09-21 01:22:00,48.0,33.9,30.16,NNW,341,0.0,1.0,58,0.00,,SKC,0.00,VWS V14.01,2013-09-21 07:22:00,
2013-09-21 01:23:00,48.0,33.9,30.17,NNW,341,0.0,0.0,58,0.00,,SKC,0.00,VWS V14.01,2013-09-21 07:23:00,
2013-09-21 01:24:00,48.1,34.0,30.16,NNW,340,0.0,1.0,58,0.00,,SKC,0.00,VWS V14.01,2013-09-21 07:24:00,
2013-09-21 01:25:00,48.1,33.2,30.17,NNW,339,0.0,1.0,56,0.00,,SKC,0.00,VWS V14.01,2013-09-21 07:25:00,
2013-09-21 01:26:00,48.1,33.2,30.17,NNW,339,0.0,0.0,56,0.00,,SKC,0.00,VWS V14.01,2013-09-21 07:26:00,
2013-09-21 01:27:00,48.2,33.3,30.16,NNW,339,0.0,0.0,56,0.00,,SKC,0.00,VWS V14.01,2013-09-21 07:27:00,
2013-09-21 01:28:00,48.2,33.3,30.16,NNW,342,0.0,0.0,56,0.00,,SKC,0.00,VWS V14.01,2013-09-21 07:28:00,
2013-09-21 01:29:00,48.2,33.3,30.16,NNW,343,0.0,0.0,56,0.00,,SKC,0.00,VWS V14.01,2013-09-21 07:29:00,
2013-09-21 01:30:00,48.2,33.3,30.16,NNW,340,0.0,0.0,56,0.00,,SKC,0.00,VWS V14.01,2013-09-21 07:30:00,
2013-09-21 01:31:00,48.2,32.8,30.16,NNW,336,0.0,0.0,55,0.00,,SKC,0.00,VWS V14.01,2013-09-21 07:31:00,
2013-09-21 01:32:00,48.1,32.7,30.16,North,360,0.0,0.0,55,0.00,,SKC,0.00,VWS V14.01,2013-09-21 07:32:00,
2013-09-21 01:33:00,48.1,32.7,30.16,NNW,336,0.0,0.0,55,0.00,,SKC,0.00,VWS V14.01,2013-09-21 07:33:00,
2013-09-21 01:34:00,48.1,33.6,30.16,NNW,340,0.0,0.0,57,0.00,,SKC,0.00,VWS V14.01,2013-09-21 07:34:00,
2013-09-21 01:35:00,48.1,34.0,30.16,NNW,338,0.0,0.0,58,0.00,,SKC,0.00,VWS V14.01,2013-09-21 07:35:00,
2013-09-21 01:36:00,48.0,33.9,30.16,NNW,341,0.0,0.0,58,0.00,,SKC,0.00,VWS V14.01,2013-09-21 07:36:00,
2013-09-21 01:37:00,48.0,33.9,30.16,North,360,0.0,0.0,58,0.00,,SKC,0.00,VWS V14.01,2013-09-21 07:37:00,
2013-09-21 01:38:00,47.9,33.8,30.16,NNW,340,0.0,0.0,58,0.00,,SKC,0.00,VWS V14.01,2013-09-21 07:38:00,
2013-09-21 01:39:00,47.9,33.8,30.16,NNE,16,1.0,2.0,58,0.00,,SKC,0.00,VWS V14.01,2013-09-21 07:39:00,
2013-09-21 01:40:00,47.8,33.8,30.16,NNE,17,0.0,1.0,58,0.00,,SKC,0.00,VWS V14.01,2013-09-21 07:40:00,
2013-09-21 01:41:00,47.8,34.2,30.16,NNE,13,0.0,1.0,59,0.00,,SKC,0.00,VWS V14.01,2013-09-21 07:41:00,
2013-09-21 01:42:00,47.7,33.7,30.17,NNE,15,0.0,0.0,58,0.00,,SKC,0.00,VWS V14.01,2013-09-21 07:42:00,
2013-09-21 01:43:00,47.7,33.2,30.16,NNE,16,0.0,1.0,57,0.00,,SKC,0.00,VWS V14.01,2013-09-21 07:43:00,
2013-09-21 01:44:00,47.7,32.8,30.16,NNE,13,0.0,0.0,56,0.00,,SKC,0.00,VWS V14.01,2013-09-21 07:44:00,
2013-09-21 01:45:00,47.8,32.9,30.16,North,11,0.0,1.0,56,0.00,,SKC,0.00,VWS V14.01,2013-09-21 07:45:00,
2013-09-21 01:46:00,48.0,32.6,30.16,NNE,19,0.0,0.0,55,0.00,,SKC,0.00,VWS V14.01,2013-09-21 07:46:00,
2013-09-21 01:47:00,48.1,33.2,30.16,NNE,17,0.0,1.0,56,0.00,,SKC,0.00,VWS V14.01,2013-09-21 07:47:00,
2013-09-21 01:48:00,48.4,31.6,30.16,NNE,15,0.0,0.0,52,0.00,,SKC,0.00,VWS V14.01,2013-09-21 07:48:00,
2013-09-21 01:49:00,48.7,31.9,30.16,NNE,15,0.0,1.0,52,0.00,,SKC,0.00,VWS V14.01,2013-09-21 07:49:00,
2013-09-21 01:50:00,48.9,32.5,30.16,North,360,1.0,1.0,53,0.00,,SKC,0.00,VWS V14.01,2013-09-21 07:50:00,
2013-09-21 01:51:00,49.1,31.8,30.16,WNW,288,0.0,1.0,51,0.00,,SKC,0.00,VWS V14.01,2013-09-21 07:51:00,
2013-09-21 01:52:00,49.3,32.0,30.16,WNW,290,1.0,3.0,51,0.00,,SKC,0.00,VWS V14.01,2013-09-21 07:52:00,
2013-09-21 01:53:00,49.4,32.0,30.16,North,360,0.0,3.0,51,0.00,,SKC,0.00,VWS V14.01,2013-09-21 07:53:00,
2013-09-21 01:54:00,49.6,32.2,30.16,WNW,292,0.0,0.0,51,0.00,,SKC,0.00,VWS V14.01,2013-09-21 07:54:00,
2013-09-21 01:55:00,49.7,31.8,30.16,WNW,290,0.0,0.0,50,0.00,,SKC,0.00,VWS V14.01,2013-09-21 07:55:00,
2013-09-21 01:56:00,49.9,32.0,30.16,WNW,288,0.0,1.0,50,0.00,,SKC,0.00,VWS V14.01,2013-09-21 07:56:00,
2013-09-21 01:57:00,50.0,32.1,30.16,North,360,0.0,0.0,50,0.00,,SKC,0.00,VWS V14.01,2013-09-21 07:57:00,
2013-09-21 01:58:00,50.0,32.1,30.16,WNW,292,0.0,0.0,50,0.00,,SKC,0.00,VWS V14.01,2013-09-21 07:58:00,
2013-09-21 01:59:00,50.1,32.2,30.16,WNW,290,0.0,1.0,50,0.00,,SKC,0.00,VWS V14.01,2013-09-21 07:59:00,
2013-09-21 02:00:00,50.1,31.7,30.16,WNW,292,0.0,0.0,49,0.00,,SKC,0.00,VWS V14.01,2013-09-21 08:00:00,
2013-09-21 02:01:00,50.2,31.8,30.16,WNW,288,0.0,0.0,49,0.00,,SKC,0.00,VWS V14.01,2013-09-21 08:01:00,
2013-09-21 02:02:00,50.3,32.4,30.16,WNW,290,1.0,1.0,50,0.00,,SKC,0.00,VWS V14.01,2013-09-21 08:02:00,
2013-09-21 02:03:00,50.3,32.4,30.16,WNW,294,0.0,1.0,50,0.00,,SKC,0.00,VWS V14.01,2013-09-21 08:03:00,
2013-09-21 02:04:00,50.4,32.0,30.16,WNW,290,0.0,0.0,49,0.00,,SKC,0.00,VWS V14.01,2013-09-21 08:04:00,
2013-09-21 02:05:00,50.5,32.1,30.16,WNW,292,0.0,0.0,49,0.00,,SKC,0.00,VWS V14.01,2013-09-21 08:05:00,
2013-09-21 02:06:00,50.5,31.6,30.16,North,360,0.0,0.0,48,0.00,,SKC,0.00,VWS V14.01,2013-09-21 08:06:00,
2013-09-21 02:07:00,50.6,32.2,30.16,North,360,0.0,1.0,49,0.00,,SKC,0.00,VWS V14.01,2013-09-21 08:07:00,
2013-09-21 02:08:00,50.6,32.2,30.15,WNW,292,0.0,0.0,49,0.00,,SKC,0.00,VWS V14.01,2013-09-21 08:08:00,
2013-09-21 02:09:00,50.6,32.2,30.15,North,360,0.0,0.0,49,0.00,,SKC,0.00,VWS V14.01,2013-09-21 08:09:00,
2013-09-21 02:10:00,50.7,31.7,30.15,North,360,3.0,3.0,48,0.00,,SKC,0.00,VWS V14.01,2013-09-21 08:10:00,
2013-09-21 02:11:00,50.7,31.7,30.15,WNW,287,0.0,4.0,48,0.00,,SKC,0.00,VWS V14.01,2013-09-21 08:11:00,
2013-09-21 02:12:00,50.8,31.8,30.15,WNW,284,0.0,1.0,48,0.00,,SKC,0.00,VWS V14.01,2013-09-21 08:12:00,
2013-09-21 02:13:00,50.9,31.4,30.15,North,360,0.0,2.0,47,0.00,,SKC,0.00,VWS V14.01,2013-09-21 08:13:00,
2013-09-21 02:14:00,50.9,31.9,30.15,WNW,288,1.0,1.0,48,0.00,,SKC,0.00,VWS V14.01,2013-09-21 08:14:00,
2013-09-21 02:15:00,51.0,31.5,30.15,WNW,287,0.0,1.0,47,0.00,,SKC,0.00,VWS V14.01,2013-09-21 08:15:00,
2013-09-21 02:16:00,51.1,31.6,30.15,WSW,244,2.0,3.0,47,0.00,,SKC,0.00,VWS V14.01,2013-09-21 08:16:00,
2013-09-21 02:17:00,51.2,32.2,30.15,WSW,246,0.0,3.0,48,0.00,,SKC,0.00,VWS V14.01,2013-09-21 08:17:00,
2013-09-21 02:18:00,51.2,32.2,30.15,WSW,242,1.0,2.0,48,0.00,,SKC,0.00,VWS V14.01,2013-09-21 08:18:00,
2013-09-21 02:19:00,51.2,32.2,30.15,West,275,5.0,5.0,48,0.00,,SKC,0.00,VWS V14.01,2013-09-21 08:19:00,
2013-09-21 02:20:00,51.2,31.7,30.15,West,259,4.0,5.0,47,0.00,,SKC,0.00,VWS V14.01,2013-09-21 08:20:00,
2013-09-21 02:21:00,51.2,32.2,30.15,WNW,284,3.0,5.0,48,0.00,,SKC,0.00,VWS V14.01,2013-09-21 08:21:00,
2013-09-21 02:22:00,51.2,31.7,30.15,West,271,6.0,6.0,47,0.00,,SKC,0.00,VWS V14.01,2013-09-21 08:22:00,
2013-09-21 02:23:00,51.3,32.3,30.15,WSW,258,2.0,6.0,48,0.00,,SKC,0.00,VWS V14.01,2013-09-21 08:23:00,
2013-09-21 02:24:00,51.4,31.9,30.14,WSW,249,2.0,3.0,47,0.00,,SKC,0.00,VWS V14.01,2013-09-21 08:24:00,
2013-09-21 02:25:00,51.5,32.5,30.14,WSW,238,1.0,4.0,48,0.00,,SKC,0.00,VWS V14.01,2013-09-21 08:25:00,
2013-09-21 02:26:00,51.5,32.5,30.14,WSW,242,2.0,3.0,48,0.00,,SKC,0.00,VWS V14.01,2013-09-21 08:26:00,
2013-09-21 02:27:00,51.5,32.5,30.14,WSW,242,1.0,3.0,48,0.00,,SKC,0.00,VWS V14.01,2013-09-21 08:27:00,
2013-09-21 02:28:00,51.4,32.4,30.14,WSW,240,0.0,1.0,48,0.00,,SKC,0.00,VWS V14.01,2013-09-21 08:28:00,
2013-09-21 02:29:00,51.4,32.4,30.14,WSW,240,0.0,0.0,48,0.00,,SKC,0.00,VWS V14.01,2013-09-21 08:29:00,
2013-09-21 02:30:00,51.4,33.4,30.14,WSW,239,0.0,0.0,50,0.00,,SKC,0.00,VWS V14.01,2013-09-21 08:30:00,
2013-09-21 02:31:00,51.3,33.3,30.14,WSW,239,3.0,3.0,50,0.00,,SKC,0.00,VWS V14.01,2013-09-21 08:31:00,
2013-09-21 02:32:00,51.3,33.3,30.14,WSW,239,0.0,3.0,50,0.00,,SKC,0.00,VWS V14.01,2013-09-21 08:32:00,
2013-09-21 02:33:00,51.2,32.7,30.14,WSW,243,0.0,0.0,49,0.00,,SKC,0.00,VWS V14.01,2013-09-21 08:33:00,
2013-09-21 02:34:00,51.1,32.1,30.14,WSW,242,0.0,1.0,48,0.00,,SKC,0.00,VWS V14.01,2013-09-21 08:34:00,
2013-09-21 02:35:00,51.0,32.0,30.14,WSW,238,0.0,1.0,48,0.00,,SKC,0.00,VWS V14.01,2013-09-21 08:35:00,
2013-09-21 02:36:00,51.0,31.5,30.14,WSW,239,0.0,0.0,47,0.00,,SKC,0.00,VWS V14.01,2013-09-21 08:36:00,
2013-09-21 02:37:00,51.0,32.0,30.14,WSW,240,0.0,1.0,48,0.00,,SKC,0.00,VWS V14.01,2013-09-21 08:37:00,
2013-09-21 02:38:00,50.9,31.9,30.14,WSW,239,0.0,0.0,48,0.00,,SKC,0.00,VWS V14.01,2013-09-21 08:38:00,
2013-09-21 02:39:00,50.9,31.9,30.14,WSW,240,0.0,0.0,48,0.00,,SKC,0.00,VWS V14.01,2013-09-21 08:39:00,
2013-09-21 02:40:00,50.9,32.4,30.14,WSW,254,0.0,2.0,49,0.00,,SKC,0.00,VWS V14.01,2013-09-21 08:40:00,
2013-09-21 02:41:00,50.9,32.4,30.14,WSW,256,0.0,0.0,49,0.00,,SKC,0.00,VWS V14.01,2013-09-21 08:41:00,
2013-09-21 02:42:00,50.9,32.9,30.14,WSW,253,0.0,1.0,50,0.00,,SKC,0.00,VWS V14.01,2013-09-21 08:42:00,
2013-09-21 02:43:00,50.8,32.8,30.14,WSW,250,1.0,1.0,50,0.00,,SKC,0.00,VWS V14.01,2013-09-21 08:43:00,
2013-09-21 02:44:00,50.8,31.8,30.14,WSW,257,3.0,4.0,48,0.00,,SKC,0.00,VWS V14.01,2013-09-21 08:44:00,
2013-09-21 02:45:00,50.8,32.3,30.14,West,261,4.0,5.0,49,0.00,,SKC,0.00,VWS V14.01,2013-09-21 08:45:00,
2013-09-21 02:46:00,50.7,32.2,30.14,West,280,3.0,4.0,49,0.00,,SKC,0.00,VWS V14.01,2013-09-21 08:46:00,
2013-09-21 02:47:00,50.7,32.2,30.14,West,279,3.0,3.0,49,0.00,,SKC,0.00,VWS V14.01,2013-09-21 08:47:00,
2013-09-21 02:48:00,50.6,32.7,30.13,West,275,2.0,3.0,50,0.00,,SKC,0.00,VWS V14.01,2013-09-21 08:48:00,
2013-09-21 02:49:00,50.6,32.2,30.14,West,278,0.0,2.0,49,0.00,,SKC,0.00,VWS V14.01,2013-09-21 08:49:00,
2013-09-21 02:50:00,50.6,32.2,30.14,West,279,0.0,0.0,49,0.00,,SKC,0.00,VWS V14.01,2013-09-21 08:50:00,
2013-09-21 02:51:00,50.6,31.6,30.14,West,277,0.0,0.0,48,0.00,,SKC,0.00,VWS V14.01,2013-09-21 08:51:00,
2013-09-21 02:52:00,50.7,31.7,30.14,West,273,0.0,1.0,48,0.00,,SKC,0.00,VWS V14.01,2013-09-21 08:52:00,
2013-09-21 02:53:00,50.8,32.3,30.13,West,276,0.0,0.0,49,0.00,,SKC,0.00,VWS V14.01,2013-09-21 08:53:00,
2013-09-21 02:54:00,50.8,32.3,30.14,North,360,0.0,0.0,49,0.00,,SKC,0.00,VWS V14.01,2013-09-21 08:54:00,
2013-09-21 02:55:00,50.8,32.3,30.13,West,277,1.0,1.0,49,0.00,,SKC,0.00,VWS V14.01,2013-09-21 08:55:00,
2013-09-21 02:56:00,50.8,32.3,30.14,West,277,1.0,2.0,49,0.00,,SKC,0.00,VWS V14.01,2013-09-21 08:56:00,
2013-09-21 02:57:00,50.8,32.3,30.14,West,275,0.0,1.0,49,0.00,,SKC,0.00,VWS V14.01,2013-09-21 08:57:00,
2013-09-21 02:58:00,50.8,32.3,30.13,West,277,0.0,1.0,49,0.00,,SKC,0.00,VWS V14.01,2013-09-21 08:58:00,
2013-09-21 02:59:00,50.8,32.8,30.13,West,277,0.0,0.0,50,0.00,,SKC,0.00,VWS V14.01,2013-09-21 08:59:00,
2013-09-21 03:00:00,50.8,32.8,30.14,West,277,0.0,0.0,50,0.00,,SKC,0.00,VWS V14.01,2013-09-21 09:00:00,
2013-09-21 03:01:00,50.7,32.2,30.13,West,275,0.0,0.0,49,0.00,,SKC,0.00,VWS V14.01,2013-09-21 09:01:00,
2013-09-21 03:02:00,50.7,32.8,30.13,West,270,2.0,3.0,50,0.00,,SKC,0.00,VWS V14.01,2013-09-21 09:02:00,
2013-09-21 03:03:00,50.6,32.2,30.13,West,276,1.0,2.0,49,0.00,,SKC,0.00,VWS V14.01,2013-09-21 09:03:00,
2013-09-21 03:04:00,50.6,32.7,30.13,West,277,0.0,2.0,50,0.00,,SKC,0.00,VWS V14.01,2013-09-21 09:04:00,
2013-09-21 03:05:00,50.5,32.6,30.13,West,274,0.0,1.0,50,0.00,,SKC,0.00,VWS V14.01,2013-09-21 09:05:00,
2013-09-21 03:06:00,50.5,31.6,30.13,North,360,5.0,5.0,48,0.00,,SKC,0.00,VWS V14.01,2013-09-21 09:06:00,
2013-09-21 03:07:00,50.5,31.6,30.13,West,264,4.0,5.0,48,0.00,,SKC,0.00,VWS V14.01,2013-09-21 09:07:00,
2013-09-21 03:08:00,50.6,32.2,30.13,West,265,2.0,5.0,49,0.00,,SKC,0.00,VWS V14.01,2013-09-21 09:08:00,
2013-09-21 03:09:00,50.6,32.2,30.13,WNW,296,3.0,4.0,49,0.00,,SKC,0.00,VWS V14.01,2013-09-21 09:09:00,
2013-09-21 03:10:00,50.7,33.2,30.13,NNW,331,4.0,4.0,51,0.00,,SKC,0.00,VWS V14.01,2013-09-21 09:10:00,
2013-09-21 03:11:00,50.6,33.2,30.13,NNW,329,0.0,4.0,51,0.00,,SKC,0.00,VWS V14.01,2013-09-21 09:11:00,
2013-09-21 03:12:00,50.6,33.2,30.13,East,82,0.0,4.0,51,0.00,,SKC,0.00,VWS V14.01,2013-09-21 09:12:00,
2013-09-21 03:13:00,50.6,32.2,30.13,East,82,0.0,1.0,49,0.00,,SKC,0.00,VWS V14.01,2013-09-21 09:13:00,
2013-09-21 03:14:00,50.7,32.2,30.13,East,84,0.0,1.0,49,0.00,,SKC,0.00,VWS V14.01,2013-09-21 09:14:00,
2013-09-21 03:15:00,50.7,32.8,30.13,East,88,0.0,0.0,50,0.00,,SKC,0.00,VWS V14.01,2013-09-21 09:15:00,
2013-09-21 03:16:00,50.7,32.2,30.13,East,83,0.0,0.0,49,0.00,,SKC,0.00,VWS V14.01,2013-09-21 09:16:00,
2013-09-21 03:17:00,50.7,32.8,30.13,East,87,0.0,0.0,50,0.00,,SKC,0.00,VWS V14.01,2013-09-21 09:17:00,
2013-09-21 03:18:00,50.7,32.8,30.12,East,82,1.0,2.0,50,0.00,,SKC,0.00,VWS V14.01,2013-09-21 09:18:00,
2013-09-21 03:19:00,50.7,32.8,30.12,East,84,1.0,2.0,50,0.00,,SKC,0.00,VWS V14.01,2013-09-21 09:19:00,
2013-09-21 03:20:00,50.7,32.8,30.12,East,86,0.0,2.0,50,0.00,,SKC,0.00,VWS V14.01,2013-09-21 09:20:00,
2013-09-21 03:21:00,50.6,33.2,30.12,East,83,0.0,1.0,51,0.00,,SKC,0.00,VWS V14.01,2013-09-21 09:21:00,
2013-09-21 03:22:00,50.5,33.1,30.12,East,86,1.0,1.0,51,0.00,,SKC,0.00,VWS V14.01,2013-09-21 09:22:00,
2013-09-21 03:23:00,50.5,33.1,30.13,East,81,3.0,3.0,51,0.00,,SKC,0.00,VWS V14.01,2013-09-21 09:23:00,
2013-09-21 03:24:00,50.3,32.9,30.13,WNW,302,3.0,5.0,51,0.00,,SKC,0.00,VWS V14.01,2013-09-21 09:24:00,
2013-09-21 03:25:00,50.2,33.3,30.13,North,360,3.0,5.0,52,0.00,,SKC,0.00,VWS V14.01,2013-09-21 09:25:00,
2013-09-21 03:26:00,50.1,33.2,30.13,NW,310,4.0,5.0,52,0.00,,SKC,0.00,VWS V14.01,2013-09-21 09:26:00,
2013-09-21 03:27:00,50.1,32.2,30.13,WNW,294,5.0,6.0,50,0.00,,SKC,0.00,VWS V14.01,2013-09-21 09:27:00,
2013-09-21 03:28:00,50.1,32.7,30.13,WNW,296,0.0,5.0,51,0.00,,SKC,0.00,VWS V14.01,2013-09-21 09:28:00,
2013-09-21 03:29:00,50.1,32.7,30.13,WNW,294,0.0,0.0,51,0.00,,SKC,0.00,VWS V14.01,2013-09-21 09:29:00,
2013-09-21 03:30:00,50.2,32.8,30.13,WNW,290,0.0,0.0,51,0.00,,SKC,0.00,VWS V14.01,2013-09-21 09:30:00,
2013-09-21 03:31:00,50.2,32.8,30.13,North,360,0.0,0.0,51,0.00,,SKC,0.00,VWS V14.01,2013-09-21 09:31:00,
2013-09-21 03:32:00,50.2,32.8,30.13,WNW,290,0.0,0.0,51,0.00,,SKC,0.00,VWS V14.01,2013-09-21 09:32:00,
2013-09-21 03:33:00,50.3,32.4,30.12,WNW,296,0.0,0.0,50,0.00,,SKC,0.00,VWS V14.01,2013-09-21 09:33:00,
2013-09-21 03:34:00,50.3,32.4,30.12,WNW,294,0.0,0.0,50,0.00,,SKC,0.00,VWS V14.01,2013-09-21 09:34:00,
2013-09-21 03:35:00,50.3,32.4,30.12,WNW,296,0.0,1.0,50,0.00,,SKC,0.00,VWS V14.01,2013-09-21 09:35:00,
2013-09-21 03:36:00,50.3,32.4,30.12,West,272,4.0,4.0,50,0.00,,SKC,0.00,VWS V14.01,2013-09-21 09:36:00,
2013-09-21 03:37:00,50.4,32.5,30.13,West,272,5.0,5.0,50,0.00,,SKC,0.00,VWS V14.01,2013-09-21 09:37:00,
2013-09-21 03:38:00,50.4,33.0,30.13,West,266,5.0,7.0,51,0.00,,SKC,0.00,VWS V14.01,2013-09-21 09:38:00,
2013-09-21 03:39:00,50.4,33.0,30.13,WSW,255,3.0,6.0,51,0.00,,SKC,0.00,VWS V14.01,2013-09-21 09:39:00,
2013-09-21 03:40:00,50.3,32.9,30.13,North,360,1.0,4.0,51,0.00,,SKC,0.00,VWS V14.01,2013-09-21 09:40:00,
2013-09-21 03:41:00,50.3,32.9,30.13,NW,316,3.0,3.0,51,0.00,,SKC,0.00,VWS V14.01,2013-09-21 09:41:00,
2013-09-21 03:42:00,50.4,32.5,30.12,North,360,0.0,3.0,50,0.00,,SKC,0.00,VWS V14.01,2013-09-21 09:42:00,
2013-09-21 03:43:00,50.5,32.6,30.12,NW,315,0.0,1.0,50,0.00,,SKC,0.00,VWS V14.01,2013-09-21 09:43:00,
2013-09-21 03:44:00,50.6,33.2,30.12,NW,313,0.0,0.0,51,0.00,,SKC,0.00,VWS V14.01,2013-09-21 09:44:00,
2013-09-21 03:45:00,50.6,33.2,30.12,WNW,302,3.0,3.0,51,0.00,,SKC,0.00,VWS V14.01,2013-09-21 09:45:00,
2013-09-21 03:46:00,50.7,33.2,30.12,WSW,238,1.0,4.0,51,0.00,,SKC,0.00,VWS V14.01,2013-09-21 09:46:00,
2013-09-21 03:47:00,50.6,33.6,30.12,WSW,237,0.0,2.0,52,0.00,,SKC,0.00,VWS V14.01,2013-09-21 09:47:00,
2013-09-21 03:48:00,50.5,33.1,30.13,SW,236,0.0,1.0,51,0.00,,SKC,0.00,VWS V14.01,2013-09-21 09:48:00,
2013-09-21 03:49:00,50.4,33.0,30.13,WSW,239,0.0,0.0,51,0.00,,SKC,0.00,VWS V14.01,2013-09-21 09:49:00,
2013-09-21 03:50:00,50.3,32.9,30.13,WSW,251,0.0,0.0,51,0.00,,SKC,0.00,VWS V14.01,2013-09-21 09:50:00,
2013-09-21 03:51:00,50.3,32.9,30.12,SW,228,1.0,3.0,51,0.00,,SKC,0.00,VWS V14.01,2013-09-21 09:51:00,
2013-09-21 03:52:00,50.2,32.8,30.12,SSW,200,1.0,5.0,51,0.00,,SKC,0.00,VWS V14.01,2013-09-21 09:52:00,
2013-09-21 03:53:00,50.2,32.8,30.12,SSW,199,0.0,2.0,51,0.00,,SKC,0.00,VWS V14.01,2013-09-21 09:53:00,
2013-09-21 03:54:00,50.2,32.3,30.12,SSW,200,2.0,3.0,50,0.00,,SKC,0.00,VWS V14.01,2013-09-21 09:54:00,
2013-09-21 03:55:00,50.2,32.8,30.13,SSW,200,0.0,2.0,51,0.00,,SKC,0.00,VWS V14.01,2013-09-21 09:55:00,
2013-09-21 03:56:00,50.1,32.7,30.12,West,262,1.0,2.0,51,0.00,,SKC,0.00,VWS V14.01,2013-09-21 09:56:00,
2013-09-21 03:57:00,50.1,32.7,30.12,West,263,2.0,2.0,51,0.00,,SKC,0.00,VWS V14.01,2013-09-21 09:57:00,
2013-09-21 03:58:00,50.1,32.2,30.13,NW,309,3.0,3.0,50,0.00,,SKC,0.00,VWS V14.01,2013-09-21 09:58:00,
2013-09-21 03:59:00,50.2,32.3,30.13,NW,315,1.0,4.0,50,0.00,,SKC,0.00,VWS V14.01,2013-09-21 09:59:00,
2013-09-21 04:00:00,50.2,32.3,30.12,NW,319,0.0,1.0,50,0.00,,SKC,0.00,VWS V14.01,2013-09-21 10:00:00,
2013-09-21 04:01:00,50.3,32.9,30.12,North,360,0.0,1.0,51,0.00,,SKC,0.00,VWS V14.01,2013-09-21 10:01:00,
2013-09-21 04:02:00,50.3,32.9,30.12,NW,321,0.0,1.0,51,0.00,,SKC,0.00,VWS V14.01,2013-09-21 10:02:00,
2013-09-21 04:03:00,50.3,32.9,30.12,NW,320,2.0,4.0,51,0.00,,SKC,0.00,VWS V14.01,2013-09-21 10:03:00,
2013-09-21 04:04:00,50.4,32.5,30.12,NW,320,0.0,3.0,50,0.00,,SKC,0.00,VWS V14.01,2013-09-21 10:04:00,
2013-09-21 04:05:00,50.6,31.6,30.12,NW,319,0.0,0.0,48,0.00,,SKC,0.00,VWS V14.01,2013-09-21 10:05:00,
2013-09-21 04:06:00,50.8,31.8,30.12,NW,315,0.0,0.0,48,0.00,,SKC,0.00,VWS V14.01,2013-09-21 10:06:00,
2013-09-21 04:07:00,51.0,33.0,30.12,NW,315,0.0,1.0,50,0.00,,SKC,0.00,VWS V14.01,2013-09-21 10:07:00,
2013-09-21 04:08:00,51.1,33.1,30.12,North,360,0.0,1.0,50,0.00,,SKC,0.00,VWS V14.01,2013-09-21 10:08:00,
2013-09-21 04:09:00,51.1,33.1,30.13,NW,315,0.0,0.0,50,0.00,,SKC,0.00,VWS V14.01,2013-09-21 10:09:00,
2013-09-21 04:10:00,51.0,33.0,30.13,NW,317,0.0,0.0,50,0.00,,SKC,0.00,VWS V14.01,2013-09-21 10:10:00,
2013-09-21 04:11:00,51.0,32.5,30.12,NW,314,0.0,0.0,49,0.00,,SKC,0.00,VWS V14.01,2013-09-21 10:11:00,
2013-09-21 04:12:00,51.2,31.7,30.12,WNW,286,6.0,6.0,47,0.00,,SKC,0.00,VWS V14.01,2013-09-21 10:12:00,
2013-09-21 04:13:00,51.4,32.4,30.12,WNW,287,0.0,6.0,48,0.00,,SKC,0.00,VWS V14.01,2013-09-21 10:13:00,
2013-09-21 04:14:00,51.5,33.0,30.12,WNW,293,0.0,3.0,49,0.00,,SKC,0.00,VWS V14.01,2013-09-21 10:14:00,
2013-09-21 04:15:00,51.6,32.6,30.12,WNW,298,0.0,3.0,48,0.00,,SKC,0.00,VWS V14.01,2013-09-21 10:15:00,
2013-09-21 04:16:00,51.7,32.7,30.12,WNW,296,0.0,1.0,48,0.00,,SKC,0.00,VWS V14.01,2013-09-21 10:16:00,
2013-09-21 04:17:00,51.8,32.2,30.12,West,277,0.0,2.0,47,0.00,,SKC,0.00,VWS V14.01,2013-09-21 10:17:00,
2013-09-21 04:18:00,51.9,32.3,30.12,North,360,2.0,3.0,47,0.00,,SKC,0.00,VWS V14.01,2013-09-21 10:18:00,
2013-09-21 04:19:00,52.0,33.5,30.12,West,281,0.0,2.0,49,0.00,,SKC,0.00,VWS V14.01,2013-09-21 10:19:00,
2013-09-21 04:20:00,51.9,32.8,30.12,West,281,1.0,1.0,48,0.00,,SKC,0.00,VWS V14.01,2013-09-21 10:20:00,
2013-09-21 04:21:00,51.8,32.2,30.12,WNW,290,2.0,3.0,47,0.00,,SKC,0.00,VWS V14.01,2013-09-21 10:21:00,
2013-09-21 04:22:00,51.9,33.4,30.12,WNW,296,2.0,5.0,49,0.00,,SKC,0.00,VWS V14.01,2013-09-21 10:22:00,
2013-09-21 04:23:00,51.9,32.8,30.12,SSW,199,3.0,3.0,48,0.00,,SKC,0.00,VWS V14.01,2013-09-21 10:23:00,
2013-09-21 04:24:00,51.9,33.4,30.12,SSW,200,3.0,4.0,49,0.00,,SKC,0.00,VWS V14.01,2013-09-21 10:24:00,
2013-09-21 04:25:00,51.8,33.8,30.12,SSW,200,1.0,3.0,50,0.00,,SKC,0.00,VWS V14.01,2013-09-21 10:25:00,
2013-09-21 04:26:00,51.7,33.7,30.12,SSW,197,0.0,1.0,50,0.00,,SKC,0.00,VWS V14.01,2013-09-21 10:26:00,
2013-09-21 04:27:00,51.6,33.1,30.12,SSW,198,0.0,0.0,49,0.00,,SKC,0.00,VWS V14.01,2013-09-21 10:27:00,
2013-09-21 04:28:00,51.5,33.5,30.12,North,360,0.0,2.0,50,0.00,,SKC,0.00,VWS V14.01,2013-09-21 10:28:00,
2013-09-21 04:29:00,51.5,33.5,30.12,WSW,251,2.0,6.0,50,0.00,,SKC,0.00,VWS V14.01,2013-09-21 10:29:00,
2013-09-21 04:30:00,51.4,32.9,30.12,WSW,252,0.0,2.0,49,0.00,,SKC,0.00,VWS V14.01,2013-09-21 10:30:00,
2013-09-21 04:31:00,51.3,32.8,30.12,WSW,249,0.0,0.0,49,0.00,,SKC,0.00,VWS V14.01,2013-09-21 10:31:00,
2013-09-21 04:32:00,51.2,33.2,30.12,WSW,254,0.0,0.0,50,0.00,,SKC,0.00,VWS V14.01,2013-09-21 10:32:00,
2013-09-21 04:33:00,51.2,34.2,30.12,North,360,0.0,0.0,52,0.00,,SKC,0.00,VWS V14.01,2013-09-21 10:33:00,
2013-09-21 04:34:00,51.2,33.7,30.12,WNW,292,0.0,4.0,51,0.00,,SKC,0.00,VWS V14.01,2013-09-21 10:34:00,
2013-09-21 04:35:00,51.1,33.6,30.12,WNW,294,0.0,1.0,51,0.00,,SKC,0.00,VWS V14.01,2013-09-21 10:35:00,
2013-09-21 04:36:00,51.0,33.5,30.12,WNW,298,0.0,2.0,51,0.00,,SKC,0.00,VWS V14.01,2013-09-21 10:36:00,
2013-09-21 04:37:00,51.0,34.0,30.11,South,185,4.0,5.0,52,0.00,,SKC,0.00,VWS V14.01,2013-09-21 10:37:00,
2013-09-21 04:38:00,50.9,33.9,30.12,South,184,0.0,4.0,52,0.00,,SKC,0.00,VWS V14.01,2013-09-21 10:38:00,
2013-09-21 04:39:00,50.8,33.3,30.12,South,186,0.0,0.0,51,0.00,,SKC,0.00,VWS V14.01,2013-09-21 10:39:00,
2013-09-21 04:40:00,50.7,33.2,30.12,South,185,1.0,2.0,51,0.00,,SKC,0.00,VWS V14.01,2013-09-21 10:40:00,
2013-09-21 04:41:00,50.8,32.8,30.12,NNW,338,4.0,4.0,50,0.00,,SKC,0.00,VWS V14.01,2013-09-21 10:41:00,
2013-09-21 04:42:00,50.8,32.8,30.12,NW,323,1.0,4.0,50,0.00,,SKC,0.00,VWS V14.01,2013-09-21 10:42:00,
2013-09-21 04:43:00,50.8,33.3,30.12,NW,314,5.0,5.0,51,0.00,,SKC,0.00,VWS V14.01,2013-09-21 10:43:00,
2013-09-21 04:44:00,50.8,33.3,30.12,NW,313,2.0,5.0,51,0.00,,SKC,0.00,VWS V14.01,2013-09-21 10:44:00,
2013-09-21 04:45:00,50.9,32.9,30.12,North,360,0.0,5.0,50,0.00,,SKC,0.00,VWS V14.01,2013-09-21 10:45:00,
2013-09-21 04:46:00,51.0,33.5,30.12,South,189,3.0,3.0,51,0.00,,SKC,0.00,VWS V14.01,2013-09-21 10:46:00,
2013-09-21 04:47:00,51.1,32.6,30.12,South,184,2.0,4.0,49,0.00,,SKC,0.00,VWS V14.01,2013-09-21 10:47:00,
2013-09-21 04:48:00,51.3,32.8,30.12,South,184,2.0,2.0,49,0.00,,SKC,0.00,VWS V14.01,2013-09-21 10:48:00,
2013-09-21 04:49:00,51.4,33.4,30.12,North,360,3.0,3.0,50,0.00,,SKC,0.00,VWS V14.01,2013-09-21 10:49:00,
2013-09-21 04:50:00,51.5,33.0,30.12,South,182,2.0,4.0,49,0.00,,SKC,0.00,VWS V14.01,2013-09-21 10:50:00,
2013-09-21 04:51:00,51.6,33.1,30.12,SSE,167,2.0,4.0,49,0.00,,SKC,0.00,VWS V14.01,2013-09-21 10:51:00,
2013-09-21 04:52:00,51.6,33.1,30.12,SSE,165,0.0,2.0,49,0.00,,SKC,0.00,VWS V14.01,2013-09-21 10:52:00,
2013-09-21 04:53:00,51.7,32.7,30.12,South,172,0.0,2.0,48,0.00,,SKC,0.00,VWS V14.01,2013-09-21 10:53:00,
2013-09-21 04:54:00,51.7,33.2,30.12,SSE,168,0.0,0.0,49,0.00,,SKC,0.00,VWS V14.01,2013-09-21 10:54:00,
2013-09-21 04:55:00,51.8,32.8,30.12,South,169,0.0,1.0,48,0.00,,SKC,0.00,VWS V14.01,2013-09-21 10:55:00,
2013-09-21 04:56:00,51.9,32.8,30.12,SSE,166,0.0,1.0,48,0.00,,SKC,0.00,VWS V14.01,2013-09-21 10:56:00,
2013-09-21 04:57:00,52.0,31.9,30.12,SSE,167,0.0,0.0,46,0.00,,SKC,0.00,VWS V14.01,2013-09-21 10:57:00,
2013-09-21 04:58:00,52.2,32.1,30.12,SSE,165,0.0,0.0,46,0.00,,SKC,0.00,VWS V14.01,2013-09-21 10:58:00,
2013-09-21 04:59:00,52.4,32.2,30.12,South,170,2.0,2.0,46,0.00,,SKC,0.00,VWS V14.01,2013-09-21 10:59:00,
2013-09-21 05:00:00,52.6,32.4,30.12,SSE,167,2.0,3.0,46,0.00,,SKC,0.00,VWS V14.01,2013-09-21 11:00:00,
2013-09-21 05:01:00,52.8,33.2,30.12,South,171,0.0,2.0,47,0.00,,SKC,0.00,VWS V14.01,2013-09-21 11:01:00,
2013-09-21 05:02:00,52.8,33.2,30.12,SSE,167,2.0,2.0,47,0.00,,SKC,0.00,VWS V14.01,2013-09-21 11:02:00,
2013-09-21 05:03:00,52.9,33.2,30.12,SSE,168,0.0,2.0,47,0.00,,SKC,0.00,VWS V14.01,2013-09-21 11:03:00,
2013-09-21 05:04:00,52.9,33.2,30.12,SSE,163,0.0,0.0,47,0.00,,SKC,0.00,VWS V14.01,2013-09-21 11:04:00,
2013-09-21 05:05:00,52.8,33.2,30.11,SSE,167,0.0,0.0,47,0.00,,SKC,0.00,VWS V14.01,2013-09-21 11:05:00,
2013-09-21 05:06:00,52.8,33.7,30.11,South,175,0.0,1.0,48,0.00,,SKC,0.00,VWS V14.01,2013-09-21 11:06:00,
2013-09-21 05:07:00,52.7,33.6,30.12,South,169,0.0,1.0,48,0.00,,SKC,0.00,VWS V14.01,2013-09-21 11:07:00,
2013-09-21 05:08:00,52.6,33.0,30.12,SSE,165,0.0,0.0,47,0.00,,SKC,0.00,VWS V14.01,2013-09-21 11:08:00,
2013-09-21 05:09:00,52.5,32.9,30.12,SSE,166,0.0,0.0,47,0.00,,SKC,0.00,VWS V14.01,2013-09-21 11:09:00,
2013-09-21 05:10:00,52.4,33.3,30.12,SSE,167,0.0,4.0,48,0.00,,SKC,0.00,VWS V14.01,2013-09-21 11:10:00,
2013-09-21 05:11:00,52.1,34.5,30.11,South,174,0.0,2.0,51,0.00,,SKC,0.00,VWS V14.01,2013-09-21 11:11:00,
2013-09-21 05:12:00,51.7,33.7,30.12,South,170,0.0,1.0,50,0.00,,SKC,0.00,VWS V14.01,2013-09-21 11:12:00,
2013-09-21 05:13:00,51.5,33.5,30.12,South,169,0.0,0.0,50,0.00,,SKC,0.00,VWS V14.01,2013-09-21 11:13:00,
2013-09-21 05:14:00,51.3,33.3,30.11,SE,128,1.0,1.0,50,0.00,,SKC,0.00,VWS V14.01,2013-09-21 11:14:00,
2013-09-21 05:15:00,51.2,33.2,30.12,East,96,1.0,2.0,50,0.00,,SKC,0.00,VWS V14.01,2013-09-21 11:15:00,
2013-09-21 05:16:00,51.0,33.0,30.12,East,93,0.0,1.0,50,0.00,,SKC,0.00,VWS V14.01,2013-09-21 11:16:00,
2013-09-21 05:17:00,50.9,32.4,30.11,East,91,2.0,2.0,49,0.00,,SKC,0.00,VWS V14.01,2013-09-21 11:17:00,
2013-09-21 05:18:00,51.0,33.0,30.12,East,97,0.0,2.0,50,0.00,,SKC,0.00,VWS V14.01,2013-09-21 11:18:00,
2013-09-21 05:19:00,51.0,32.5,30.12,East,95,0.0,0.0,49,0.00,,SKC,0.00,VWS V14.01,2013-09-21 11:19:00,
2013-09-21 05:20:00,51.1,32.6,30.12,East,92,0.0,0.0,49,0.00,,SKC,0.00,VWS V14.01,2013-09-21 11:20:00,
2013-09-21 05:21:00,51.2,32.7,30.12,SSW,194,4.0,4.0,49,0.00,,SKC,0.00,VWS V14.01,2013-09-21 11:21:00,
2013-09-21 05:22:00,51.3,32.8,30.12,SSW,202,2.0,4.0,49,0.00,,SKC,0.00,VWS V14.01,2013-09-21 11:22:00,
2013-09-21 05:23:00,51.3,32.8,30.12,SSW,202,0.0,2.0,49,0.00,,SKC,0.00,VWS V14.01,2013-09-21 11:23:00,
2013-09-21 05:24:00,51.4,32.9,30.12,SSW,205,3.0,4.0,49,0.00,,SKC,0.00,VWS V14.01,2013-09-21 11:24:00,
2013-09-21 05:25:00,51.4,32.4,30.12,SSW,209,3.0,4.0,48,0.00,,SKC,0.00,VWS V14.01,2013-09-21 11:25:00,
2013-09-21 05:26:00,51.5,32.5,30.12,WNW,288,2.0,4.0,48,0.00,,SKC,0.00,VWS V14.01,2013-09-21 11:26:00,
2013-09-21 05:27:00,51.6,32.0,30.12,WNW,294,0.0,4.0,47,0.00,,SKC,0.00,VWS V14.01,2013-09-21 11:27:00,
2013-09-21 05:28:00,51.8,32.2,30.12,North,360,0.0,1.0,47,0.00,,SKC,0.00,VWS V14.01,2013-09-21 11:28:00,
2013-09-21 05:29:00,52.1,32.0,30.12,WNW,284,0.0,1.0,46,0.00,,SKC,0.00,VWS V14.01,2013-09-21 11:29:00,
2013-09-21 05:30:00,52.4,33.8,30.12,WNW,292,0.0,1.0,49,0.00,,SKC,0.00,VWS V14.01,2013-09-21 11:30:00,
2013-09-21 05:31:00,52.5,33.9,30.12,WNW,287,3.0,3.0,49,0.00,,SKC,0.00,VWS V14.01,2013-09-21 11:31:00,
2013-09-21 05:32:00,52.4,33.3,30.12,WSW,249,4.0,5.0,48,0.00,,SKC,0.00,VWS V14.01,2013-09-21 11:32:00,
2013-09-21 05:33:00,52.4,32.8,30.12,West,278,3.0,4.0,47,0.00,,SKC,0.00,VWS V14.01,2013-09-21 11:33:00,
2013-09-21 05:34:00,52.4,32.8,30.11,WNW,298,3.0,5.0,47,0.00,,SKC,0.00,VWS V14.01,2013-09-21 11:34:00,
2013-09-21 05:35:00,52.4,33.3,30.11,NW,319,3.0,4.0,48,0.00,,SKC,0.00,VWS V14.01,2013-09-21 11:35:00,
2013-09-21 05:36:00,52.5,32.9,30.11,NW,309,3.0,4.0,47,0.00,,SKC,0.00,VWS V14.01,2013-09-21 11:36:00,
2013-09-21 05:37:00,52.6,32.4,30.11,NW,314,2.0,4.0,46,0.00,,SKC,0.00,VWS V14.01,2013-09-21 11:37:00,
2013-09-21 05:38:00,52.7,33.0,30.11,NW,320,2.0,4.0,47,0.00,,SKC,0.00,VWS V14.01,2013-09-21 11:38:00,
2013-09-21 05:39:00,52.8,33.2,30.11,North,360,1.0,4.0,47,0.00,,SKC,0.00,VWS V14.01,2013-09-21 11:39:00,
2013-09-21 05:40:00,52.9,32.7,30.11,NW,311,0.0,2.0,46,0.00,,SKC,0.00,VWS V14.01,2013-09-21 11:40:00,
2013-09-21 05:41:00,53.1,33.4,30.11,North,360,0.0,0.0,47,0.00,,SKC,0.00,VWS V14.01,2013-09-21 11:41:00,
2013-09-21 05:42:00,53.2,32.4,30.11,NW,311,0.0,1.0,45,0.00,,SKC,0.00,VWS V14.01,2013-09-21 11:42:00,
2013-09-21 05:43:00,53.2,33.0,30.11,WNW,286,1.0,4.0,46,0.00,,SKC,0.00,VWS V14.01,2013-09-21 11:43:00,
2013-09-21 05:44:00,53.3,34.1,30.11,WNW,293,5.0,6.0,48,0.00,,SKC,0.00,VWS V14.01,2013-09-21 11:44:00,
2013-09-21 05:45:00,53.4,34.7,30.11,WNW,302,5.0,5.0,49,0.00,,SKC,0.00,VWS V14.01,2013-09-21 11:45:00,
2013-09-21 05:46:00,53.4,33.7,30.11,West,281,11.0,11.0,47,0.00,,SKC,0.00,VWS V14.01,2013-09-21 11:46:00,
2013-09-21 05:47:00,53.5,33.2,30.11,SSW,210,4.0,11.0,46,0.00,,SKC,0.00,VWS V14.01,2013-09-21 11:47:00,
2013-09-21 05:48:00,53.5,34.3,30.11,SSW,209,0.0,5.0,48,0.00,,SKC,0.00,VWS V14.01,2013-09-21 11:48:00,
2013-09-21 05:50:00,53.3,34.1,30.11,NW,318,4.0,7.0,48,0.00,,SKC,0.00,VWS V14.01,2013-09-21 11:50:00,
2013-09-21 05:51:00,53.2,34.0,30.11,NW,314,4.0,8.0,48,0.00,,SKC,0.00,VWS V14.01,2013-09-21 11:51:00,
2013-09-21 05:52:00,53.0,33.8,30.11,WNW,283,4.0,8.0,48,0.00,,SKC,0.00,VWS V14.01,2013-09-21 11:52:00,
2013-09-21 05:53:00,53.0,33.8,30.11,WSW,242,2.0,4.0,48,0.00,,SKC,0.00,VWS V14.01,2013-09-21 11:53:00,
2013-09-21 05:54:00,52.9,34.3,30.11,North,360,0.0,3.0,49,0.00,,SKC,0.00,VWS V14.01,2013-09-21 11:54:00,
2013-09-21 05:55:00,52.8,34.2,30.11,North,360,0.0,1.0,49,0.00,,SKC,0.00,VWS V14.01,2013-09-21 11:55:00,
2013-09-21 05:56:00,52.6,33.5,30.11,WSW,244,1.0,2.0,48,0.00,,SKC,0.00,VWS V14.01,2013-09-21 11:56:00,
2013-09-21 05:57:00,52.6,33.5,30.11,WSW,244,0.0,1.0,48,0.00,,SKC,0.00,VWS V14.01,2013-09-21 11:57:00,
2013-09-21 05:58:00,52.5,34.4,30.11,WNW,290,1.0,4.0,50,0.00,,SKC,0.00,VWS V14.01,2013-09-21 11:58:00,
2013-09-21 05:59:00,52.4,34.3,30.11,WNW,298,0.0,3.0,50,0.00,,SKC,0.00,VWS V14.01,2013-09-21 11:59:00,
2013-09-21 06:00:00,52.4,32.8,30.11,North,360,0.0,0.0,47,0.00,,SKC,0.00,VWS V14.01,2013-09-21 12:00:00,
2013-09-21 06:01:00,52.5,33.4,30.11,North,360,0.0,1.0,48,0.00,,SKC,0.00,VWS V14.01,2013-09-21 12:01:00,
2013-09-21 06:02:00,52.6,34.0,30.11,NW,304,0.0,0.0,49,0.00,,SKC,0.00,VWS V14.01,2013-09-21 12:02:00,
2013-09-21 06:03:00,52.6,33.5,30.11,WNW,300,0.0,1.0,48,0.00,,SKC,0.00,VWS V14.01,2013-09-21 12:03:00,
2013-09-21 06:04:00,52.7,33.6,30.11,WNW,299,0.0,0.0,48,0.00,,SKC,0.00,VWS V14.01,2013-09-21 12:04:00,
2013-09-21 06:05:00,52.9,34.3,30.11,WNW,295,0.0,0.0,49,0.00,,SKC,0.00,VWS V14.01,2013-09-21 12:05:00,
2013-09-21 06:06:00,53.0,33.3,30.11,WNW,290,0.0,2.0,47,0.00,,SKC,0.00,VWS V14.01,2013-09-21 12:06:00,
2013-09-21 06:07:00,53.0,33.8,30.11,WNW,287,0.0,0.0,48,0.00,,SKC,0.00,VWS V14.01,2013-09-21 12:07:00,
2013-09-21 06:08:00,53.1,34.5,30.11,North,360,0.0,0.0,49,0.00,,SKC,0.00,VWS V14.01,2013-09-21 12:08:00,
2013-09-21 06:09:00,53.0,33.8,30.11,WNW,290,2.0,2.0,48,0.00,,SKC,0.00,VWS V14.01,2013-09-21 12:09:00,
2013-09-21 06:10:00,53.0,33.8,30.11,WNW,290,1.0,3.0,48,0.00,,SKC,0.00,VWS V14.01,2013-09-21 12:10:00,
2013-09-21 06:11:00,52.9,33.8,30.11,WNW,293,0.0,2.0,48,0.00,,SKC,0.00,VWS V14.01,2013-09-21 12:11:00,
2013-09-21 06:12:00,52.9,34.3,30.11,WNW,291,0.0,0.0,49,0.00,,SKC,0.00,VWS V14.01,2013-09-21 12:12:00,
2013-09-21 06:13:00,52.8,34.2,30.11,WSW,238,3.0,4.0,49,0.00,,SKC,0.00,VWS V14.01,2013-09-21 12:13:00,
2013-09-21 06:14:00,52.8,33.7,30.10,WSW,244,1.0,4.0,48,0.00,,SKC,0.00,VWS V14.01,2013-09-21 12:14:00,
2013-09-21 06:15:00,52.8,33.2,30.11,WSW,241,1.0,1.0,47,0.00,,SKC,0.00,VWS V14.01,2013-09-21 12:15:00,
2013-09-21 06:16:00,52.8,33.2,30.10,NW,311,6.0,7.0,47,0.00,,SKC,0.00,VWS V14.01,2013-09-21 12:16:00,
2013-09-21 06:17:00,52.9,33.2,30.10,WNW,289,7.0,11.0,47,0.00,,SKC,0.00,VWS V14.01,2013-09-21 12:17:00,
2013-09-21 06:18:00,53.0,32.8,30.10,SW,235,4.0,10.0,46,0.00,,SKC,0.00,VWS V14.01,2013-09-21 12:18:00,
2013-09-21 06:19:00,53.2,34.0,30.10,SW,222,2.0,5.0,48,0.00,,SKC,0.00,VWS V14.01,2013-09-21 12:19:00,
2013-09-21 06:20:00,53.2,34.0,30.10,North,360,3.0,3.0,48,0.00,,SKC,0.00,VWS V14.01,2013-09-21 12:20:00,
2013-09-21 06:21:00,53.2,34.0,30.10,West,277,3.0,3.0,48,0.00,,SKC,0.00,VWS V14.01,2013-09-21 12:21:00,
2013-09-21 06:22:00,53.2,34.0,30.10,West,279,7.0,7.0,48,0.00,,SKC,0.00,VWS V14.01,2013-09-21 12:22:00,
2013-09-21 06:23:00,53.2,34.0,30.10,WNW,291,2.0,7.0,48,0.00,,SKC,0.00,VWS V14.01,2013-09-21 12:23:00,
2013-09-21 06:24:00,53.1,34.0,30.10,West,266,5.0,5.0,48,0.00,,SKC,0.00,VWS V14.01,2013-09-21 12:24:00,
2013-09-21 06:25:00,53.0,33.8,30.10,West,267,3.0,5.0,48,0.00,,SKC,0.00,VWS V14.01,2013-09-21 12:25:00,
2013-09-21 06:26:00,53.0,34.4,30.10,North,360,6.0,6.0,49,0.00,,SKC,0.00,VWS V14.01,2013-09-21 12:26:00,
2013-09-21 06:27:00,52.9,34.3,30.10,West,270,4.0,6.0,49,0.00,,SKC,0.00,VWS V14.01,2013-09-21 12:27:00,
2013-09-21 06:28:00,52.9,34.3,30.10,SSW,196,3.0,7.0,49,0.00,,SKC,0.00,VWS V14.01,2013-09-21 12:28:00,
2013-09-21 06:29:00,52.8,34.7,30.10,WNW,292,4.0,4.0,50,0.00,,SKC,0.00,VWS V14.01,2013-09-21 12:29:00,
2013-09-21 06:30:00,52.7,34.6,30.10,West,281,5.0,5.0,50,0.00,,SKC,0.00,VWS V14.01,2013-09-21 12:30:00,
2013-09-21 06:31:00,52.6,35.0,30.10,West,263,12.0,13.0,51,0.00,,SKC,0.00,VWS V14.01,2013-09-21 12:31:00,
2013-09-21 06:32:00,52.5,33.4,30.10,North,360,5.0,14.0,48,0.00,,SKC,0.00,VWS V14.01,2013-09-21 12:32:00,
2013-09-21 06:33:00,52.6,34.0,30.10,SSW,206,0.0,5.0,49,0.00,,SKC,0.00,VWS V14.01,2013-09-21 12:33:00,
2013-09-21 06:34:00,52.7,33.6,30.10,SW,216,1.0,3.0,48,0.00,,SKC,0.00,VWS V14.01,2013-09-21 12:34:00,
2013-09-21 06:35:00,52.8,33.2,30.10,NW,318,4.0,5.0,47,0.00,,SKC,0.00,VWS V14.01,2013-09-21 12:35:00,
2013-09-21 06:36:00,53.0,32.8,30.10,WNW,299,3.0,5.0,46,0.00,,SKC,0.00,VWS V14.01,2013-09-21 12:36:00,
2013-09-21 06:37:00,53.2,33.0,30.10,WNW,300,0.0,3.0,46,0.00,,SKC,0.00,VWS V14.01,2013-09-21 12:37:00,
2013-09-21 06:38:00,53.5,33.2,30.10,NW,318,7.0,7.0,46,0.00,,SKC,0.00,VWS V14.01,2013-09-21 12:38:00,
2013-09-21 06:39:00,53.7,32.9,30.10,WNW,300,3.0,7.0,45,0.00,,SKC,0.00,VWS V14.01,2013-09-21 12:39:00,
2013-09-21 06:40:00,54.0,32.6,30.09,NW,304,4.0,8.0,44,0.00,,SKC,0.00,VWS V14.01,2013-09-21 12:40:00,
2013-09-21 06:41:00,54.4,33.0,30.10,West,264,7.0,8.0,44,0.00,,SKC,0.00,VWS V14.01,2013-09-21 12:41:00,
2013-09-21 06:42:00,54.7,33.2,30.09,WSW,240,1.0,8.0,44,0.00,,SKC,0.00,VWS V14.01,2013-09-21 12:42:00,
2013-09-21 06:43:00,54.9,34.5,30.09,SW,234,0.0,2.0,46,0.00,,SKC,0.00,VWS V14.01,2013-09-21 12:43:00,
2013-09-21 06:44:00,55.0,34.6,30.09,NW,305,4.0,5.0,46,0.00,,SKC,0.00,VWS V14.01,2013-09-21 12:44:00,
2013-09-21 06:45:00,55.2,33.1,30.09,North,350,5.0,7.0,43,0.00,,SKC,0.00,VWS V14.01,2013-09-21 12:45:00,
2013-09-21 06:46:00,55.3,33.2,30.09,NNW,344,4.0,5.0,43,0.00,,SKC,0.00,VWS V14.01,2013-09-21 12:46:00,
2013-09-21 06:47:00,55.5,32.8,30.10,NW,326,0.0,5.0,42,0.00,,SKC,0.00,VWS V14.01,2013-09-21 12:47:00,
2013-09-21 06:48:00,55.7,32.4,30.10,NW,321,3.0,3.0,41,0.00,,SKC,0.00,VWS V14.01,2013-09-21 12:48:00,
2013-09-21 06:49:00,56.0,33.2,30.10,NW,318,1.0,3.0,42,0.00,,SKC,0.00,VWS V14.01,2013-09-21 12:49:00,
2013-09-21 06:50:00,56.2,34.0,30.09,NW,317,0.0,1.0,43,0.00,,SKC,0.00,VWS V14.01,2013-09-21 12:50:00,
2013-09-21 06:51:00,56.3,34.7,30.10,NE,42,4.0,4.0,44,0.00,,SKC,0.00,VWS V14.01,2013-09-21 12:51:00,
2013-09-21 06:52:00,56.4,34.8,30.10,NE,42,0.0,4.0,44,0.00,,SKC,0.00,VWS V14.01,2013-09-21 12:52:00,
2013-09-21 06:53:00,56.3,34.7,30.10,NE,42,0.0,1.0,44,0.00,,SKC,0.00,VWS V14.01,2013-09-21 12:53:00,
2013-09-21 06:54:00,56.2,34.6,30.10,NE,41,2.0,2.0,44,0.00,,SKC,0.00,VWS V14.01,2013-09-21 12:54:00,
2013-09-21 06:55:00,56.0,35.0,30.10,NE,40,2.0,3.0,45,0.00,,SKC,0.00,VWS V14.01,2013-09-21 12:55:00,
2013-09-21 06:56:00,55.8,34.8,30.09,NNW,334,2.0,4.0,45,0.00,,SKC,0.00,VWS V14.01,2013-09-21 12:56:00,
2013-09-21 06:57:00,55.6,34.0,30.09,NNW,328,2.0,3.0,44,0.00,,SKC,0.00,VWS V14.01,2013-09-21 12:57:00,
2013-09-21 06:58:00,55.4,33.3,30.09,NW,310,3.0,5.0,43,0.00,,SKC,0.00,VWS V14.01,2013-09-21 12:58:00,
2013-09-21 06:59:00,55.3,33.2,30.09,NW,313,10.0,10.0,43,0.00,,SKC,0.00,VWS V14.01,2013-09-21 12:59:00,
2013-09-21 07:00:00,55.3,33.2,30.09,WNW,298,3.0,10.0,43,0.00,,SKC,0.00,VWS V14.01,2013-09-21 13:00:00,
2013-09-21 07:01:00,55.3,33.2,30.09,WNW,292,5.0,5.0,43,0.00,,SKC,0.00,VWS V14.01,2013-09-21 13:01:00,
2013-09-21 07:02:00,55.5,32.8,30.09,WNW,292,1.0,5.0,42,0.00,,SKC,0.00,VWS V14.01,2013-09-21 13:02:00,
2013-09-21 07:03:00,55.7,33.0,30.09,WNW,295,2.0,2.0,42,0.00,,SKC,0.00,VWS V14.01,2013-09-21 13:03:00,
2013-09-21 07:04:00,55.9,32.6,30.09,WNW,294,0.0,4.0,41,0.00,,SKC,0.00,VWS V14.01,2013-09-21 13:04:00,
2013-09-21 07:05:00,56.0,33.2,30.09,WNW,293,6.0,6.0,42,0.00,,SKC,0.00,VWS V14.01,2013-09-21 13:05:00,
2013-09-21 07:06:00,56.2,33.4,30.09,North,360,5.0,6.0,42,0.00,,SKC,0.00,VWS V14.01,2013-09-21 13:06:00,
2013-09-21 07:07:00,56.4,33.6,30.09,WNW,294,4.0,6.0,42,0.00,,SKC,0.00,VWS V14.01,2013-09-21 13:07:00,
2013-09-21 07:08:00,56.6,33.8,30.09,North,360,6.0,7.0,42,0.00,,SKC,0.00,VWS V14.01,2013-09-21 13:08:00,
2013-09-21 07:09:00,56.8,32.8,30.09,WNW,289,0.0,6.0,40,0.00,,SKC,0.00,VWS V14.01,2013-09-21 13:09:00,
2013-09-21 07:10:00,56.9,34.1,30.09,WNW,290,1.0,1.0,42,0.00,,SKC,0.00,VWS V14.01,2013-09-21 13:10:00,
2013-09-21 07:11:00,57.0,35.3,30.09,WNW,290,0.0,1.0,44,0.00,,SKC,0.00,VWS V14.01,2013-09-21 13:11:00,
2013-09-21 07:12:00,57.0,35.3,30.09,NW,319,0.0,2.0,44,0.00,,SKC,0.00,VWS V14.01,2013-09-21 13:12:00,
2013-09-21 07:13:00,57.0,35.3,30.09,North,360,3.0,3.0,44,0.00,,SKC,0.00,VWS V14.01,2013-09-21 13:13:00,
2013-09-21 07:14:00,56.9,35.2,30.09,WNW,286,2.0,6.0,44,0.00,,SKC,0.00,VWS V14.01,2013-09-21 13:14:00,
2013-09-21 07:15:00,56.9,33.5,30.09,WNW,296,4.0,6.0,41,0.00,,SKC,0.00,VWS V14.01,2013-09-21 13:15:00,
2013-09-21 07:16:00,56.9,33.5,30.09,WNW,295,6.0,9.0,41,0.00,,SKC,0.00,VWS V14.01,2013-09-21 13:16:00,
2013-09-21 07:17:00,56.8,34.0,30.09,NW,311,7.0,8.0,42,0.00,,SKC,0.00,VWS V14.01,2013-09-21 13:17:00,
2013-09-21 07:18:00,56.9,33.5,30.09,NW,325,4.0,10.0,41,0.00,,SKC,0.00,VWS V14.01,2013-09-21 13:18:00,
2013-09-21 07:19:00,56.9,34.1,30.09,NW,311,5.0,6.0,42,0.00,,SKC,0.00,VWS V14.01,2013-09-21 13:19:00,
2013-09-21 07:20:00,56.9,33.5,30.09,North,360,1.0,6.0,41,0.00,,SKC,0.00,VWS V14.01,2013-09-21 13:20:00,
2013-09-21 07:21:00,57.0,32.9,30.09,North,360,4.0,5.0,40,0.00,,SKC,0.00,VWS V14.01,2013-09-21 13:21:00,
2013-09-21 07:22:00,57.2,33.1,30.09,WNW,283,4.0,7.0,40,0.00,,SKC,0.00,VWS V14.01,2013-09-21 13:22:00,
2013-09-21 07:23:00,57.4,33.3,30.09,WNW,296,7.0,7.0,40,0.00,,SKC,0.00,VWS V14.01,2013-09-21 13:23:00,
2013-09-21 07:24:00,57.6,33.5,30.09,NW,306,5.0,9.0,40,0.00,,SKC,0.00,VWS V14.01,2013-09-21 13:24:00,
2013-09-21 07:25:00,57.8,33.0,30.09,North,360,4.0,7.0,39,0.00,,SKC,0.00,VWS V14.01,2013-09-21 13:25:00,
2013-09-21 07:26:00,58.1,33.9,30.08,WNW,294,6.0,6.0,40,0.00,,SKC,0.00,VWS V14.01,2013-09-21 13:26:00,
2013-09-21 07:27:00,58.3,34.1,30.09,West,277,5.0,9.0,40,0.00,,SKC,0.00,VWS V14.01,2013-09-21 13:27:00,
2013-09-21 07:28:00,58.5,34.9,30.09,SW,232,2.0,5.0,41,0.00,,SKC,0.00,VWS V14.01,2013-09-21 13:28:00,
2013-09-21 07:29:00,58.6,35.6,30.09,NW,307,5.0,5.0,42,0.00,,SKC,0.00,VWS V14.01,2013-09-21 13:29:00,
2013-09-21 07:30:00,58.7,34.5,30.09,NW,309,7.0,10.0,40,0.00,,SKC,0.00,VWS V14.01,2013-09-21 13:30:00,
2013-09-21 07:31:00,58.7,34.5,30.09,WNW,293,6.0,11.0,40,0.00,,SKC,0.00,VWS V14.01,2013-09-21 13:31:00,
2013-09-21 07:32:00,58.9,34.6,30.09,WNW,291,10.0,10.0,40,0.00,,SKC,0.00,VWS V14.01,2013-09-21 13:32:00,
2013-09-21 07:33:00,59.0,35.3,30.09,NW,309,8.0,10.0,41,0.00,,SKC,0.00,VWS V14.01,2013-09-21 13:33:00,
2013-09-21 07:34:00,59.0,36.0,30.09,WNW,294,2.0,8.0,42,0.00,,SKC,0.00,VWS V14.01,2013-09-21 13:34:00,
2013-09-21 07:35:00,59.0,34.7,30.09,WNW,287,7.0,7.0,40,0.00,,SKC,0.00,VWS V14.01,2013-09-21 13:35:00,
2013-09-21 07:36:00,59.0,34.7,30.09,West,279,6.0,11.0,40,0.00,,SKC,0.00,VWS V14.01,2013-09-21 13:36:00,
2013-09-21 07:37:00,59.0,34.1,30.09,WNW,287,5.0,9.0,39,0.00,,SKC,0.00,VWS V14.01,2013-09-21 13:37:00,
2013-09-21 07:38:00,59.1,34.8,30.09,NW,315,4.0,5.0,40,0.00,,SKC,0.00,VWS V14.01,2013-09-21 13:38:00,
2013-09-21 07:39:00,59.3,36.2,30.09,NW,312,5.0,7.0,42,0.00,,SKC,0.00,VWS V14.01,2013-09-21 13:39:00,
2013-09-21 07:40:00,59.5,35.8,30.09,NW,321,4.0,6.0,41,0.00,,SKC,0.00,VWS V14.01,2013-09-21 13:40:00,
2013-09-21 07:41:00,59.6,34.6,30.09,North,360,3.0,4.0,39,0.00,,SKC,0.00,VWS V14.01,2013-09-21 13:41:00,
2013-09-21 07:42:00,59.7,35.4,30.09,WNW,300,7.0,9.0,40,0.00,,SKC,0.00,VWS V14.01,2013-09-21 13:42:00,
2013-09-21 07:43:00,59.8,34.8,30.09,WNW,294,6.0,9.0,39,0.00,,SKC,0.00,VWS V14.01,2013-09-21 13:43:00,
2013-09-21 07:44:00,60.0,35.0,30.09,WNW,290,8.0,9.0,39,0.00,,SKC,0.00,VWS V14.01,2013-09-21 13:44:00,
2013-09-21 07:45:00,60.2,35.8,30.09,NW,319,7.0,8.0,40,0.00,,SKC,0.00,VWS V14.01,2013-09-21 13:45:00,
2013-09-21 07:46:00,60.3,35.9,30.09,NW,315,5.0,7.0,40,0.00,,SKC,0.00,VWS V14.01,2013-09-21 13:46:00,
2013-09-21 07:47:00,60.4,34.7,30.09,WNW,296,7.0,8.0,38,0.00,,SKC,0.00,VWS V14.01,2013-09-21 13:47:00,
2013-09-21 07:48:00,60.6,36.2,30.09,WNW,283,11.0,12.0,40,0.00,,SKC,0.00,VWS V14.01,2013-09-21 13:48:00,
2013-09-21 07:49:00,60.7,34.3,30.09,NW,313,4.0,11.0,37,0.00,,SKC,0.00,VWS V14.01,2013-09-21 13:49:00,
2013-09-21 07:50:00,60.8,34.4,30.09,NNW,335,6.0,8.0,37,0.00,,SKC,0.00,VWS V14.01,2013-09-21 13:50:00,
2013-09-21 07:51:00,60.9,35.8,30.09,NW,321,3.0,9.0,39,0.00,,SKC,0.00,VWS V14.01,2013-09-21 13:51:00,
2013-09-21 07:52:00,61.0,35.9,30.09,North,360,4.0,5.0,39,0.00,,SKC,0.00,VWS V14.01,2013-09-21 13:52:00,
2013-09-21 07:53:00,61.1,35.3,30.09,NW,316,10.0,10.0,38,0.00,,SKC,0.00,VWS V14.01,2013-09-21 13:53:00,
2013-09-21 07:54:00,61.3,34.1,30.09,WNW,290,6.0,11.0,36,0.00,,SKC,0.00,VWS V14.01,2013-09-21 13:54:00,
2013-09-21 07:55:00,61.4,35.6,30.08,North,360,7.0,11.0,38,0.00,,SKC,0.00,VWS V14.01,2013-09-21 13:55:00,
2013-09-21 07:56:00,61.5,35.0,30.08,North,360,5.0,7.0,37,0.00,,SKC,0.00,VWS V14.01,2013-09-21 13:56:00,
2013-09-21 07:57:00,61.6,35.1,30.08,WNW,289,9.0,9.0,37,0.00,,SKC,0.00,VWS V14.01,2013-09-21 13:57:00,
2013-09-21 07:58:00,61.7,35.9,30.09,North,360,5.0,10.0,38,0.00,,SKC,0.00,VWS V14.01,2013-09-21 13:58:00,
2013-09-21 07:59:00,61.8,37.2,30.09,WNW,300,6.0,7.0,40,0.00,,SKC,0.00,VWS V14.01,2013-09-21 13:59:00,
2013-09-21 08:00:00,61.9,35.4,30.08,WNW,302,3.0,7.0,37,0.00,,SKC,0.00,VWS V14.01,2013-09-21 14:00:00,
2013-09-21 08:01:00,62.0,35.5,30.08,NW,306,5.0,6.0,37,0.00,,SKC,0.00,VWS V14.01,2013-09-21 14:01:00,
2013-09-21 08:02:00,62.1,35.5,30.08,NW,319,3.0,5.0,37,0.00,,SKC,0.00,VWS V14.01,2013-09-21 14:02:00,
2013-09-21 08:03:00,62.2,35.6,30.08,North,360,0.0,3.0,37,0.00,,SKC,0.00,VWS V14.01,2013-09-21 14:03:00,
2013-09-21 08:04:00,62.3,35.0,30.08,North,360,6.0,6.0,36,0.00,,SKC,0.00,VWS V14.01,2013-09-21 14:04:00,
2013-09-21 08:05:00,62.3,36.4,30.08,North,5,0.0,7.0,38,0.00,,SKC,0.00,VWS V14.01,2013-09-21 14:05:00,
2013-09-21 08:06:00,62.4,35.1,30.08,NW,312,8.0,8.0,36,0.00,,SKC,0.00,VWS V14.01,2013-09-21 14:06:00,
2013-09-21 08:07:00,62.4,37.1,30.08,NW,319,3.0,8.0,39,0.00,,SKC,0.00,VWS V14.01,2013-09-21 14:07:00,
2013-09-21 08:08:00,62.4,40.2,30.08,WNW,294,7.0,7.0,44,0.00,,SKC,0.00,VWS V14.01,2013-09-21 14:08:00,
2013-09-21 08:09:00,62.4,38.4,30.08,West,270,4.0,8.0,41,0.00,,SKC,0.00,VWS V14.01,2013-09-21 14:09:00,
2013-09-21 08:10:00,62.3,37.0,30.08,WNW,296,10.0,11.0,39,0.00,,SKC,0.00,VWS V14.01,2013-09-21 14:10:00,
2013-09-21 08:11:00,62.3,37.0,30.08,WSW,256,10.0,11.0,39,0.00,,SKC,0.00,VWS V14.01,2013-09-21 14:11:00,
2013-09-21 08:12:00,62.3,37.0,30.08,SW,219,6.0,13.0,39,0.00,,SKC,0.00,VWS V14.01,2013-09-21 14:12:00,
2013-09-21 08:13:00,62.2,38.8,30.08,SSW,192,1.0,7.0,42,0.00,,SKC,0.00,VWS V14.01,2013-09-21 14:13:00,
2013-09-21 08:14:00,62.0,38.7,30.08,SW,221,0.0,2.0,42,0.00,,SKC,0.00,VWS V14.01,2013-09-21 14:14:00,
2013-09-21 08:15:00,61.8,38.5,30.08,SW,221,0.0,0.0,42,0.00,,SKC,0.00,VWS V14.01,2013-09-21 14:15:00,
2013-09-21 08:16:00,61.7,37.8,30.08,SW,227,1.0,1.0,41,0.00,,SKC,0.00,VWS V14.01,2013-09-21 14:16:00,
2013-09-21 08:17:00,61.6,38.9,30.08,SW,225,0.0,1.0,43,0.00,,SKC,0.00,VWS V14.01,2013-09-21 14:17:00,
2013-09-21 08:18:00,61.5,38.2,30.08,SW,219,0.0,1.0,42,0.00,,SKC,0.00,VWS V14.01,2013-09-21 14:18:00,
2013-09-21 08:19:00,61.4,38.1,30.08,SW,217,4.0,5.0,42,0.00,,SKC,0.00,VWS V14.01,2013-09-21 14:19:00,
2013-09-21 08:20:00,61.3,39.2,30.08,SW,232,1.0,4.0,44,0.00,,SKC,0.00,VWS V14.01,2013-09-21 14:20:00,
2013-09-21 08:21:00,61.2,39.1,30.08,WNW,298,3.0,3.0,44,0.00,,SKC,0.00,VWS V14.01,2013-09-21 14:21:00,
2013-09-21 08:22:00,61.2,38.5,30.07,WNW,291,1.0,5.0,43,0.00,,SKC,0.00,VWS V14.01,2013-09-21 14:22:00,
2013-09-21 08:23:00,61.1,39.0,30.08,WNW,291,0.0,1.0,44,0.00,,SKC,0.00,VWS V14.01,2013-09-21 14:23:00,
2013-09-21 08:24:00,61.1,40.2,30.08,WNW,290,0.0,0.0,46,0.00,,SKC,0.00,VWS V14.01,2013-09-21 14:24:00,
2013-09-21 08:25:00,61.1,40.7,30.07,WNW,288,0.0,0.0,47,0.00,,SKC,0.00,VWS V14.01,2013-09-21 14:25:00,
2013-09-21 08:26:00,61.1,41.3,30.08,WNW,289,0.0,0.0,48,0.00,,SKC,0.00,VWS V14.01,2013-09-21 14:26:00,
2013-09-21 08:27:00,61.0,40.7,30.08,WNW,290,0.0,0.0,47,0.00,,SKC,0.00,VWS V14.01,2013-09-21 14:27:00,
2013-09-21 08:28:00,60.9,40.6,30.07,WNW,292,0.0,0.0,47,0.00,,SKC,0.00,VWS V14.01,2013-09-21 14:28:00,
2013-09-21 08:29:00,60.9,40.6,30.07,NW,325,1.0,2.0,47,0.00,,SKC,0.00,VWS V14.01,2013-09-21 14:29:00,
2013-09-21 08:30:00,60.9,40.0,30.07,North,360,9.0,9.0,46,0.00,,SKC,0.00,VWS V14.01,2013-09-21 14:30:00,
2013-09-21 08:31:00,60.8,39.3,30.07,WNW,293,4.0,9.0,45,0.00,,SKC,0.00,VWS V14.01,2013-09-21 14:31:00,
2013-09-21 08:32:00,60.8,38.2,30.07,WNW,298,0.0,4.0,43,0.00,,SKC,0.00,VWS V14.01,2013-09-21 14:32:00,
2013-09-21 08:33:00,60.8,38.2,30.07,WNW,297,0.0,0.0,43,0.00,,SKC,0.00,VWS V14.01,2013-09-21 14:33:00,
2013-09-21 08:34:00,60.9,38.3,30.07,WNW,301,1.0,1.0,43,0.00,,SKC,0.00,VWS V14.01,2013-09-21 14:34:00,
2013-09-21 08:35:00,61.0,39.0,30.07,WNW,298,0.0,2.0,44,0.00,,SKC,0.00,VWS V14.01,2013-09-21 14:35:00,
2013-09-21 08:36:00,61.2,41.4,30.07,WNW,298,0.0,0.0,48,0.00,,SKC,0.00,VWS V14.01,2013-09-21 14:36:00,
2013-09-21 08:37:00,61.3,39.8,30.07,WNW,297,0.0,0.0,45,0.00,,SKC,0.00,VWS V14.01,2013-09-21 14:37:00,
2013-09-21 08:38:00,61.4,41.0,30.07,WNW,297,0.0,1.0,47,0.00,,SKC,0.00,VWS V14.01,2013-09-21 14:38:00,
2013-09-21 08:39:00,61.5,40.0,30.07,ENE,67,0.0,2.0,45,0.00,,SKC,0.00,VWS V14.01,2013-09-21 14:39:00,
2013-09-21 08:40:00,61.6,40.6,30.07,NNW,336,0.0,3.0,46,0.00,,SKC,0.00,VWS V14.01,2013-09-21 14:40:00,
2013-09-21 08:41:00,61.7,40.7,30.07,NNW,333,1.0,1.0,46,0.00,,SKC,0.00,VWS V14.01,2013-09-21 14:41:00,
2013-09-21 08:42:00,61.8,40.8,30.07,NNW,330,0.0,1.0,46,0.00,,SKC,0.00,VWS V14.01,2013-09-21 14:42:00,
2013-09-21 08:43:00,61.9,40.3,30.07,WNW,287,0.0,4.0,45,0.00,,SKC,0.00,VWS V14.01,2013-09-21 14:43:00,
2013-09-21 08:44:00,62.0,41.0,30.07,WNW,287,4.0,4.0,46,0.00,,SKC,0.00,VWS V14.01,2013-09-21 14:44:00,
2013-09-21 08:45:00,62.1,38.8,30.07,WNW,283,1.0,4.0,42,0.00,,SKC,0.00,VWS V14.01,2013-09-21 14:45:00,
2013-09-21 08:46:00,62.3,39.5,30.07,West,261,2.0,10.0,43,0.00,,SKC,0.00,VWS V14.01,2013-09-21 14:46:00,
2013-09-21 08:47:00,62.6,38.6,30.07,North,360,0.0,3.0,41,0.00,,SKC,0.00,VWS V14.01,2013-09-21 14:47:00,
2013-09-21 08:48:00,62.8,39.4,30.07,North,360,5.0,6.0,42,0.00,,SKC,0.00,VWS V14.01,2013-09-21 14:48:00,
2013-09-21 08:49:00,63.1,39.0,30.07,West,267,7.0,7.0,41,0.00,,SKC,0.00,VWS V14.01,2013-09-21 14:49:00,
2013-09-21 08:50:00,63.2,37.9,30.07,West,259,0.0,7.0,39,0.00,,SKC,0.00,VWS V14.01,2013-09-21 14:50:00,
2013-09-21 08:51:00,63.4,39.3,30.07,West,274,13.0,14.0,41,0.00,,SKC,0.00,VWS V14.01,2013-09-21 14:51:00,
2013-09-21 08:52:00,63.6,38.2,30.07,WSW,246,7.0,13.0,39,0.00,,SKC,0.00,VWS V14.01,2013-09-21 14:52:00,
2013-09-21 08:53:00,63.8,36.4,30.07,West,279,6.0,12.0,36,0.00,,SKC,0.00,VWS V14.01,2013-09-21 14:53:00,
2013-09-21 08:54:00,64.1,36.6,30.07,West,277,5.0,12.0,36,0.00,,SKC,0.00,VWS V14.01,2013-09-21 14:54:00,
2013-09-21 08:55:00,64.3,38.8,30.07,West,277,10.0,14.0,39,0.00,,SKC,0.00,VWS V14.01,2013-09-21 14:55:00,
2013-09-21 08:56:00,64.6,38.4,30.07,WNW,296,16.0,17.0,38,0.00,,SKC,0.00,VWS V14.01,2013-09-21 14:56:00,
2013-09-21 08:57:00,64.9,38.0,30.07,West,272,9.0,20.0,37,0.00,,SKC,0.00,VWS V14.01,2013-09-21 14:57:00,
2013-09-21 08:58:00,65.1,36.1,30.07,West,275,10.0,11.0,34,0.00,,SKC,0.00,VWS V14.01,2013-09-21 14:58:00,
2013-09-21 08:59:00,65.4,37.1,30.07,West,275,11.0,15.0,35,0.00,,SKC,0.00,VWS V14.01,2013-09-21 14:59:00,
2013-09-21 09:00:00,65.6,38.0,30.07,WNW,294,12.0,17.0,36,0.00,,SKC,0.00,VWS V14.01,2013-09-21 15:00:00,
2013-09-21 09:01:00,65.9,36.8,30.07,North,360,4.0,11.0,34,0.00,,SKC,0.00,VWS V14.01,2013-09-21 15:01:00,
2013-09-21 09:02:00,66.1,36.9,30.07,WNW,290,9.0,12.0,34,0.00,,SKC,0.00,VWS V14.01,2013-09-21 15:02:00,
2013-09-21 09:03:00,66.2,37.8,30.07,West,277,6.0,10.0,35,0.00,,SKC,0.00,VWS V14.01,2013-09-21 15:03:00,
2013-09-21 09:04:00,66.4,36.5,30.07,West,277,5.0,10.0,33,0.00,,SKC,0.00,VWS V14.01,2013-09-21 15:04:00,
2013-09-21 09:05:00,66.5,36.5,30.07,WNW,292,3.0,5.0,33,0.00,,SKC,0.00,VWS V14.01,2013-09-21 15:05:00,
2013-09-21 09:06:00,66.7,36.7,30.07,SW,221,5.0,7.0,33,0.00,,SKC,0.00,VWS V14.01,2013-09-21 15:06:00,
2013-09-21 09:07:00,66.8,36.8,30.07,West,259,4.0,6.0,33,0.00,,SKC,0.00,VWS V14.01,2013-09-21 15:07:00,
2013-09-21 09:08:00,66.9,36.9,30.07,West,269,4.0,5.0,33,0.00,,SKC,0.00,VWS V14.01,2013-09-21 15:08:00,
2013-09-21 09:09:00,67.0,37.0,30.07,West,267,0.0,4.0,33,0.00,,SKC,0.00,VWS V14.01,2013-09-21 15:09:00,
2013-09-21 09:10:00,67.1,39.3,30.07,West,278,4.0,11.0,36,0.00,,SKC,0.00,VWS V14.01,2013-09-21 15:10:00,
2013-09-21 09:11:00,67.2,39.4,30.07,WNW,293,6.0,8.0,36,0.00,,SKC,0.00,VWS V14.01,2013-09-21 15:11:00,
2013-09-21 09:12:00,67.3,38.0,30.07,WNW,292,9.0,9.0,34,0.00,,SKC,0.00,VWS V14.01,2013-09-21 15:12:00,
2013-09-21 09:13:00,67.4,37.3,30.07,WNW,287,12.0,12.0,33,0.00,,SKC,0.00,VWS V14.01,2013-09-21 15:13:00,
2013-09-21 09:14:00,67.5,38.2,30.07,West,272,10.0,12.0,34,0.00,,SKC,0.00,VWS V14.01,2013-09-21 15:14:00,
2013-09-21 09:15:00,67.6,38.3,30.07,WNW,295,12.0,19.0,34,0.00,,SKC,0.00,VWS V14.01,2013-09-21 15:15:00,
2013-09-21 09:16:00,67.7,37.6,30.07,WNW,292,6.0,12.0,33,0.00,,SKC,0.00,VWS V14.01,2013-09-21 15:16:00,
2013-09-21 09:17:00,67.8,37.7,30.07,North,360,13.0,13.0,33,0.00,,SKC,0.00,VWS V14.01,2013-09-21 15:17:00,
2013-09-21 09:18:00,67.9,37.8,30.07,WNW,298,14.0,15.0,33,0.00,,SKC,0.00,VWS V14.01,2013-09-21 15:18:00,
2013-09-21 09:19:00,68.0,37.1,30.06,WNW,288,15.0,15.0,32,0.00,,SKC,0.00,VWS V14.01,2013-09-21 15:19:00,
2013-09-21 09:20:00,68.0,37.1,30.07,WNW,295,10.0,16.0,32,0.00,,SKC,0.00,VWS V14.01,2013-09-21 15:20:00,
2013-09-21 09:21:00,68.1,37.2,30.07,WNW,299,10.0,11.0,32,0.00,,SKC,0.00,VWS V14.01,2013-09-21 15:21:00,
2013-09-21 09:22:00,68.2,38.0,30.07,North,360,12.0,13.0,33,0.00,,SKC,0.00,VWS V14.01,2013-09-21 15:22:00,
2013-09-21 09:23:00,68.2,37.2,30.06,North,360,10.0,12.0,32,0.00,,SKC,0.00,VWS V14.01,2013-09-21 15:23:00,
2013-09-21 09:24:00,68.3,37.3,30.07,WNW,287,15.0,16.0,32,0.00,,SKC,0.00,VWS V14.01,2013-09-21 15:24:00,
2013-09-21 09:25:00,68.4,38.2,30.06,West,274,9.0,15.0,33,0.00,,SKC,0.00,VWS V14.01,2013-09-21 15:25:00,
2013-09-21 09:26:00,68.4,38.2,30.06,WNW,283,10.0,13.0,33,0.00,,SKC,0.00,VWS V14.01,2013-09-21 15:26:00,
2013-09-21 09:27:00,68.5,36.7,30.07,NW,306,3.0,10.0,31,0.00,,SKC,0.00,VWS V14.01,2013-09-21 15:27:00,
2013-09-21 09:28:00,68.5,36.7,30.06,NW,317,3.0,6.0,31,0.00,,SKC,0.00,VWS V14.01,2013-09-21 15:28:00,
2013-09-21 09:29:00,68.5,37.5,30.06,NW,323,4.0,4.0,32,0.00,,SKC,0.00,VWS V14.01,2013-09-21 15:29:00,
2013-09-21 09:30:00,68.6,38.4,30.06,NNW,345,2.0,6.0,33,0.00,,SKC,0.00,VWS V14.01,2013-09-21 15:30:00,
2013-09-21 09:31:00,68.7,37.7,30.06,North,360,0.0,3.0,32,0.00,,SKC,0.00,VWS V14.01,2013-09-21 15:31:00,
2013-09-21 09:32:00,68.7,38.5,30.06,NNW,327,0.0,4.0,33,0.00,,SKC,0.00,VWS V14.01,2013-09-21 15:32:00,
2013-09-21 09:33:00,68.8,38.5,30.06,NNE,17,4.0,4.0,33,0.00,,SKC,0.00,VWS V14.01,2013-09-21 15:33:00,
2013-09-21 09:34:00,68.9,38.6,30.06,North,360,3.0,5.0,33,0.00,,SKC,0.00,VWS V14.01,2013-09-21 15:34:00,
2013-09-21 09:35:00,69.0,37.1,30.06,NNW,336,0.0,3.0,31,0.00,,SKC,0.00,VWS V14.01,2013-09-21 15:35:00,
2013-09-21 09:36:00,69.2,37.3,30.06,North,360,3.0,6.0,31,0.00,,SKC,0.00,VWS V14.01,2013-09-21 15:36:00,
2013-09-21 09:37:00,69.2,37.3,30.06,North,360,0.0,3.0,31,0.00,,SKC,0.00,VWS V14.01,2013-09-21 15:37:00,
2013-09-21 09:38:00,69.3,37.4,30.06,WSW,246,7.0,7.0,31,0.00,,SKC,0.00,VWS V14.01,2013-09-21 15:38:00,
2013-09-21 09:39:00,69.4,36.7,30.06,North,360,10.0,10.0,30,0.00,,SKC,0.00,VWS V14.01,2013-09-21 15:39:00,
2013-09-21 09:40:00,69.4,37.5,30.06,North,360,4.0,10.0,31,0.00,,SKC,0.00,VWS V14.01,2013-09-21 15:40:00,
2013-09-21 09:41:00,69.5,38.4,30.06,West,267,4.0,6.0,32,0.00,,SKC,0.00,VWS V14.01,2013-09-21 15:41:00,
2013-09-21 09:42:00,69.6,36.8,30.06,NW,304,1.0,7.0,30,0.00,,SKC,0.00,VWS V14.01,2013-09-21 15:42:00,
2013-09-21 09:43:00,69.7,39.3,30.06,WNW,302,0.0,2.0,33,0.00,,SKC,0.00,VWS V14.01,2013-09-21 15:43:00,
2013-09-21 09:44:00,69.8,40.2,30.06,WNW,292,9.0,10.0,34,0.00,,SKC,0.00,VWS V14.01,2013-09-21 15:44:00,
2013-09-21 09:45:00,69.9,39.5,30.06,WNW,295,5.0,9.0,33,0.00,,SKC,0.00,VWS V14.01,2013-09-21 15:45:00,
2013-09-21 09:46:00,70.0,38.8,30.06,WNW,302,6.0,10.0,32,0.00,,SKC,0.00,VWS V14.01,2013-09-21 15:46:00,
2013-09-21 09:47:00,70.1,38.9,30.06,North,360,9.0,9.0,32,0.00,,SKC,0.00,VWS V14.01,2013-09-21 15:47:00,
2013-09-21 09:48:00,70.1,39.7,30.06,South,188,6.0,13.0,33,0.00,,SKC,0.00,VWS V14.01,2013-09-21 15:48:00,
2013-09-21 09:49:00,70.1,39.7,30.06,SSE,158,11.0,11.0,33,0.00,,SKC,0.00,VWS V14.01,2013-09-21 15:49:00,
2013-09-21 09:50:00,70.0,41.1,30.06,South,190,5.0,11.0,35,0.00,,SKC,0.00,VWS V14.01,2013-09-21 15:50:00,
2013-09-21 09:51:00,69.9,41.8,30.06,SSW,199,6.0,7.0,36,0.00,,SKC,0.00,VWS V14.01,2013-09-21 15:51:00,
2013-09-21 09:52:00,69.8,42.4,30.06,South,191,5.0,10.0,37,0.00,,SKC,0.00,VWS V14.01,2013-09-21 15:52:00,
2013-09-21 09:53:00,69.6,39.2,30.06,South,189,4.0,5.0,33,0.00,,SKC,0.00,VWS V14.01,2013-09-21 15:53:00,
2013-09-21 09:54:00,69.5,39.9,30.06,SSE,158,4.0,8.0,34,0.00,,SKC,0.00,VWS V14.01,2013-09-21 15:54:00,
2013-09-21 09:55:00,69.4,40.6,30.06,SSE,151,6.0,6.0,35,0.00,,SKC,0.00,VWS V14.01,2013-09-21 15:55:00,
2013-09-21 09:56:00,69.3,41.2,30.06,SSE,155,3.0,7.0,36,0.00,,SKC,0.00,VWS V14.01,2013-09-21 15:56:00,
2013-09-21 09:57:00,69.3,42.6,30.06,SE,146,1.0,5.0,38,0.00,,SKC,0.00,VWS V14.01,2013-09-21 15:57:00,
2013-09-21 09:58:00,69.2,41.8,30.06,SE,138,3.0,3.0,37,0.00,,SKC,0.00,VWS V14.01,2013-09-21 15:58:00,
2013-09-21 09:59:00,69.2,41.8,30.06,SE,139,1.0,4.0,37,0.00,,SKC,0.00,VWS V14.01,2013-09-21 15:59:00,
2013-09-21 10:00:00,69.2,41.1,30.06,SE,141,1.0,2.0,36,0.00,,SKC,0.00,VWS V14.01,2013-09-21 16:00:00,
2013-09-21 10:01:00,69.1,41.0,30.05,ENE,78,1.0,5.0,36,0.00,,SKC,0.00,VWS V14.01,2013-09-21 16:01:00,
2013-09-21 10:02:00,69.1,41.0,30.05,NE,50,0.0,3.0,36,0.00,,SKC,0.00,VWS V14.01,2013-09-21 16:02:00,
2013-09-21 10:03:00,69.1,42.5,30.05,ESE,116,4.0,4.0,38,0.00,,SKC,0.00,VWS V14.01,2013-09-21 16:03:00,
2013-09-21 10:04:00,69.0,41.7,30.05,ESE,113,1.0,4.0,37,0.00,,SKC,0.00,VWS V14.01,2013-09-21 16:04:00,
2013-09-21 10:05:00,69.1,38.8,30.05,ESE,111,0.0,1.0,33,0.00,,SKC,0.00,VWS V14.01,2013-09-21 16:05:00,
2013-09-21 10:06:00,69.1,40.3,30.05,ESE,116,5.0,5.0,35,0.00,,SKC,0.00,VWS V14.01,2013-09-21 16:06:00,
2013-09-21 10:07:00,69.1,39.6,30.05,ESE,111,3.0,5.0,34,0.00,,SKC,0.00,VWS V14.01,2013-09-21 16:07:00,
2013-09-21 10:08:00,69.2,39.7,30.05,SSE,165,3.0,5.0,34,0.00,,SKC,0.00,VWS V14.01,2013-09-21 16:08:00,
2013-09-21 10:09:00,69.3,42.6,30.05,North,360,6.0,6.0,38,0.00,,SKC,0.00,VWS V14.01,2013-09-21 16:09:00,
2013-09-21 10:10:00,69.4,44.1,30.05,South,182,3.0,6.0,40,0.00,,SKC,0.00,VWS V14.01,2013-09-21 16:10:00,
2013-09-21 10:11:00,69.6,42.2,30.05,SSE,149,9.0,9.0,37,0.00,,SKC,0.00,VWS V14.01,2013-09-21 16:11:00,
2013-09-21 10:12:00,69.7,43.0,30.06,ESE,120,4.0,9.0,38,0.00,,SKC,0.00,VWS V14.01,2013-09-21 16:12:00,
2013-09-21 10:13:00,69.7,42.3,30.05,SE,135,4.0,5.0,37,0.00,,SKC,0.00,VWS V14.01,2013-09-21 16:13:00,
2013-09-21 10:14:00,69.7,40.8,30.05,SSE,165,5.0,6.0,35,0.00,,SKC,0.00,VWS V14.01,2013-09-21 16:14:00,
2013-09-21 10:15:00,69.7,41.6,30.05,South,170,4.0,6.0,36,0.00,,SKC,0.00,VWS V14.01,2013-09-21 16:15:00,
2013-09-21 10:16:00,69.7,42.3,30.05,North,360,3.0,4.0,37,0.00,,SKC,0.00,VWS V14.01,2013-09-21 16:16:00,
2013-09-21 10:17:00,69.7,40.1,30.05,West,278,5.0,5.0,34,0.00,,SKC,0.00,VWS V14.01,2013-09-21 16:17:00,
2013-09-21 10:18:00,69.7,40.1,30.05,North,360,1.0,5.0,34,0.00,,SKC,0.00,VWS V14.01,2013-09-21 16:18:00,
2013-09-21 10:19:00,69.8,40.9,30.05,SSE,167,5.0,5.0,35,0.00,,SKC,0.00,VWS V14.01,2013-09-21 16:19:00,
2013-09-21 10:20:00,69.8,40.2,30.05,SSE,163,4.0,7.0,34,0.00,,SKC,0.00,VWS V14.01,2013-09-21 16:20:00,
2013-09-21 10:21:00,69.7,39.3,30.05,SSE,163,3.0,5.0,33,0.00,,SKC,0.00,VWS V14.01,2013-09-21 16:21:00,
2013-09-21 10:22:00,69.7,40.1,30.05,South,173,5.0,6.0,34,0.00,,SKC,0.00,VWS V14.01,2013-09-21 16:22:00,
2013-09-21 10:23:00,69.7,40.1,30.05,SSE,166,4.0,7.0,34,0.00,,SKC,0.00,VWS V14.01,2013-09-21 16:23:00,
2013-09-21 10:24:00,69.7,40.8,30.05,SSE,160,4.0,5.0,35,0.00,,SKC,0.00,VWS V14.01,2013-09-21 16:24:00,
2013-09-21 10:25:00,69.7,39.3,30.05,North,360,2.0,5.0,33,0.00,,SKC,0.00,VWS V14.01,2013-09-21 16:25:00,
2013-09-21 10:26:00,69.8,40.9,30.05,SSW,200,5.0,5.0,35,0.00,,SKC,0.00,VWS V14.01,2013-09-21 16:26:00,
2013-09-21 10:27:00,69.8,40.2,30.05,SW,234,2.0,7.0,34,0.00,,SKC,0.00,VWS V14.01,2013-09-21 16:27:00,
2013-09-21 10:28:00,69.9,39.5,30.05,SE,142,4.0,9.0,33,0.00,,SKC,0.00,VWS V14.01,2013-09-21 16:28:00,
2013-09-21 10:29:00,70.0,41.8,30.05,ESE,102,8.0,10.0,36,0.00,,SKC,0.00,VWS V14.01,2013-09-21 16:29:00,
2013-09-21 10:30:00,69.9,40.3,30.05,ENE,62,6.0,11.0,34,0.00,,SKC,0.00,VWS V14.01,2013-09-21 16:30:00,
2013-09-21 10:31:00,69.9,41.0,30.05,ESE,107,9.0,9.0,35,0.00,,SKC,0.00,VWS V14.01,2013-09-21 16:31:00,
2013-09-21 10:32:00,69.9,41.0,30.05,East,86,5.0,10.0,35,0.00,,SKC,0.00,VWS V14.01,2013-09-21 16:32:00,
2013-09-21 10:33:00,69.9,40.3,30.05,East,92,5.0,5.0,34,0.00,,SKC,0.00,VWS V14.01,2013-09-21 16:33:00,
2013-09-21 10:34:00,69.9,41.0,30.05,ESE,117,4.0,9.0,35,0.00,,SKC,0.00,VWS V14.01,2013-09-21 16:34:00,
2013-09-21 10:35:00,69.9,39.5,30.05,East,89,6.0,12.0,33,0.00,,SKC,0.00,VWS V14.01,2013-09-21 16:35:00,
2013-09-21 10:36:00,69.8,38.6,30.05,East,88,8.0,8.0,32,0.00,,SKC,0.00,VWS V14.01,2013-09-21 16:36:00,
2013-09-21 10:37:00,69.8,40.2,30.04,East,97,10.0,10.0,34,0.00,,SKC,0.00,VWS V14.01,2013-09-21 16:37:00,
2013-09-21 10:38:00,69.7,38.5,30.04,East,94,5.0,12.0,32,0.00,,SKC,0.00,VWS V14.01,2013-09-21 16:38:00,
2013-09-21 10:39:00,69.7,39.3,30.04,East,94,7.0,7.0,33,0.00,,SKC,0.00,VWS V14.01,2013-09-21 16:39:00,
2013-09-21 10:40:00,69.7,39.3,30.04,East,86,6.0,9.0,33,0.00,,SKC,0.00,VWS V14.01,2013-09-21 16:40:00,
2013-09-21 10:41:00,69.7,40.1,30.04,ESE,118,7.0,7.0,34,0.00,,SKC,0.00,VWS V14.01,2013-09-21 16:41:00,
2013-09-21 10:42:00,69.6,40.0,30.04,East,96,10.0,10.0,34,0.00,,SKC,0.00,VWS V14.01,2013-09-21 16:42:00,
2013-09-21 10:43:00,69.6,39.2,30.04,East,100,5.0,11.0,33,0.00,,SKC,0.00,VWS V14.01,2013-09-21 16:43:00,
2013-09-21 10:44:00,69.6,40.0,30.04,ESE,123,7.0,7.0,34,0.00,,SKC,0.00,VWS V14.01,2013-09-21 16:44:00,
2013-09-21 10:45:00,69.6,40.8,30.04,ESE,113,5.0,9.0,35,0.00,,SKC,0.00,VWS V14.01,2013-09-21 16:45:00,
2013-09-21 10:46:00,69.6,40.8,30.04,ESE,103,6.0,9.0,35,0.00,,SKC,0.00,VWS V14.01,2013-09-21 16:46:00,
2013-09-21 10:47:00,69.6,38.5,30.04,SE,146,4.0,6.0,32,0.00,,SKC,0.00,VWS V14.01,2013-09-21 16:47:00,
2013-09-21 10:48:00,69.6,38.5,30.04,SE,141,7.0,10.0,32,0.00,,SKC,0.00,VWS V14.01,2013-09-21 16:48:00,
2013-09-21 10:50:00,69.7,40.1,30.04,East,88,7.0,7.0,34,0.00,,SKC,0.00,VWS V14.01,2013-09-21 16:50:00,
2013-09-21 10:51:00,69.7,40.1,30.04,ESE,103,7.0,7.0,34,0.00,,SKC,0.00,VWS V14.01,2013-09-21 16:51:00,
2013-09-21 10:52:00,69.8,40.9,30.04,ESE,119,8.0,10.0,35,0.00,,SKC,0.00,VWS V14.01,2013-09-21 16:52:00,
2013-09-21 10:53:00,69.9,39.5,30.04,ESE,119,11.0,13.0,33,0.00,,SKC,0.00,VWS V14.01,2013-09-21 16:53:00,
2013-09-21 10:54:00,69.9,40.3,30.04,SE,146,5.0,11.0,34,0.00,,SKC,0.00,VWS V14.01,2013-09-21 16:54:00,
2013-09-21 10:55:00,70.0,38.8,30.04,East,101,6.0,9.0,32,0.00,,SKC,0.00,VWS V14.01,2013-09-21 16:55:00,
2013-09-21 10:56:00,70.1,37.3,30.04,ESE,119,5.0,6.0,30,0.00,,SKC,0.00,VWS V14.01,2013-09-21 16:56:00,
2013-09-21 10:57:00,70.2,40.5,30.04,SE,130,6.0,7.0,34,0.00,,SKC,0.00,VWS V14.01,2013-09-21 16:57:00,
2013-09-21 10:58:00,70.3,42.1,30.04,ESE,109,4.0,8.0,36,0.00,,SKC,0.00,VWS V14.01,2013-09-21 16:58:00,
2013-09-21 10:59:00,70.4,39.2,30.04,ESE,111,8.0,10.0,32,0.00,,SKC,0.00,VWS V14.01,2013-09-21 16:59:00,
2013-09-21 11:00:00,70.4,38.3,30.04,East,98,11.0,12.0,31,0.00,,SKC,0.00,VWS V14.01,2013-09-21 17:00:00,
2013-09-21 11:01:00,70.4,39.2,30.03,ESE,104,11.0,12.0,32,0.00,,SKC,0.00,VWS V14.01,2013-09-21 17:01:00,
2013-09-21 11:02:00,70.4,39.2,30.03,East,90,7.0,11.0,32,0.00,,SKC,0.00,VWS V14.01,2013-09-21 17:02:00,
2013-09-21 11:03:00,70.4,39.2,30.03,East,95,6.0,7.0,32,0.00,,SKC,0.00,VWS V14.01,2013-09-21 17:03:00,
2013-09-21 11:04:00,70.5,40.8,30.03,East,101,4.0,6.0,34,0.00,,SKC,0.00,VWS V14.01,2013-09-21 17:04:00,
2013-09-21 11:05:00,70.5,40.0,30.03,ESE,117,6.0,10.0,33,0.00,,SKC,0.00,VWS V14.01,2013-09-21 17:05:00,
2013-09-21 11:06:00,70.5,40.8,30.03,ESE,115,3.0,11.0,34,0.00,,SKC,0.00,VWS V14.01,2013-09-21 17:06:00,
2013-09-21 11:07:00,70.6,40.1,30.03,East,92,5.0,5.0,33,0.00,,SKC,0.00,VWS V14.01,2013-09-21 17:07:00,
2013-09-21 11:08:00,70.6,40.9,30.03,East,80,3.0,5.0,34,0.00,,SKC,0.00,VWS V14.01,2013-09-21 17:08:00,
2013-09-21 11:09:00,70.6,40.1,30.03,East,89,5.0,7.0,33,0.00,,SKC,0.00,VWS V14.01,2013-09-21 17:09:00,
2013-09-21 11:10:00,70.6,40.9,30.03,East,97,6.0,7.0,34,0.00,,SKC,0.00,VWS V14.01,2013-09-21 17:10:00,
2013-09-21 11:11:00,70.6,39.3,30.03,East,99,10.0,11.0,32,0.00,,SKC,0.00,VWS V14.01,2013-09-21 17:11:00,
2013-09-21 11:12:00,70.6,39.3,30.03,East,93,2.0,11.0,32,0.00,,SKC,0.00,VWS V14.01,2013-09-21 17:12:00,
2013-09-21 11:13:00,70.6,40.9,30.03,East,97,10.0,10.0,34,0.00,,SKC,0.00,VWS V14.01,2013-09-21 17:13:00,
2013-09-21 11:14:00,70.6,40.1,30.03,East,87,4.0,10.0,33,0.00,,SKC,0.00,VWS V14.01,2013-09-21 17:14:00,
2013-09-21 11:15:00,70.6,40.9,30.03,East,94,5.0,11.0,34,0.00,,SKC,0.00,VWS V14.01,2013-09-21 17:15:00,
2013-09-21 11:16:00,70.6,40.9,30.03,East,85,11.0,13.0,34,0.00,,SKC,0.00,VWS V14.01,2013-09-21 17:16:00,
2013-09-21 11:17:00,70.7,41.0,30.03,East,93,5.0,11.0,34,0.00,,SKC,0.00,VWS V14.01,2013-09-21 17:17:00,
2013-09-21 11:18:00,70.7,40.2,30.03,East,81,7.0,10.0,33,0.00,,SKC,0.00,VWS V14.01,2013-09-21 17:18:00,
2013-09-21 11:19:00,70.8,41.1,30.03,ENE,71,1.0,7.0,34,0.00,,SKC,0.00,VWS V14.01,2013-09-21 17:19:00,
2013-09-21 11:20:00,70.8,41.1,30.02,SE,132,5.0,9.0,34,0.00,,SKC,0.00,VWS V14.01,2013-09-21 17:20:00,
2013-09-21 11:21:00,70.9,41.2,30.02,SE,128,6.0,11.0,34,0.00,,SKC,0.00,VWS V14.01,2013-09-21 17:21:00,
2013-09-21 11:22:00,71.1,41.3,30.02,ESE,119,4.0,9.0,34,0.00,,SKC,0.00,VWS V14.01,2013-09-21 17:22:00,
2013-09-21 11:23:00,71.2,40.7,30.02,SE,124,2.0,5.0,33,0.00,,SKC,0.00,VWS V14.01,2013-09-21 17:23:00,
2013-09-21 11:24:00,71.3,43.0,30.02,SE,128,5.0,5.0,36,0.00,,SKC,0.00,VWS V14.01,2013-09-21 17:24:00,
2013-09-21 11:25:00,71.3,41.5,30.02,ESE,118,10.0,12.0,34,0.00,,SKC,0.00,VWS V14.01,2013-09-21 17:25:00,
2013-09-21 11:26:00,71.5,41.7,30.02,SE,124,5.0,10.0,34,0.00,,SKC,0.00,VWS V14.01,2013-09-21 17:26:00,
2013-09-21 11:27:00,71.5,40.9,30.02,SE,124,11.0,11.0,33,0.00,,SKC,0.00,VWS V14.01,2013-09-21 17:27:00,
2013-09-21 11:28:00,71.5,40.1,30.02,SE,128,7.0,13.0,32,0.00,,SKC,0.00,VWS V14.01,2013-09-21 17:28:00,
2013-09-21 11:29:00,71.6,42.5,30.02,ESE,115,6.0,12.0,35,0.00,,SKC,0.00,VWS V14.01,2013-09-21 17:29:00,
2013-09-21 11:30:00,71.7,41.1,30.02,ESE,107,5.0,10.0,33,0.00,,SKC,0.00,VWS V14.01,2013-09-21 17:30:00,
2013-09-21 11:31:00,71.7,41.9,30.02,ESE,111,5.0,10.0,34,0.00,,SKC,0.00,VWS V14.01,2013-09-21 17:31:00,
2013-09-21 11:32:00,71.8,41.2,30.02,East,91,4.0,8.0,33,0.00,,SKC,0.00,VWS V14.01,2013-09-21 17:32:00,
2013-09-21 11:33:00,71.8,42.0,30.02,ESE,121,8.0,8.0,34,0.00,,SKC,0.00,VWS V14.01,2013-09-21 17:33:00,
2013-09-21 11:34:00,71.9,42.8,30.02,ESE,111,9.0,10.0,35,0.00,,SKC,0.00,VWS V14.01,2013-09-21 17:34:00,
2013-09-21 11:35:00,71.9,43.5,30.02,ESE,116,5.0,10.0,36,0.00,,SKC,0.00,VWS V14.01,2013-09-21 17:35:00,
2013-09-21 11:36:00,72.0,42.1,30.02,East,88,5.0,9.0,34,0.00,,SKC,0.00,VWS V14.01,2013-09-21 17:36:00,
2013-09-21 11:37:00,72.1,42.2,30.02,ESE,113,4.0,5.0,34,0.00,,SKC,0.00,VWS V14.01,2013-09-21 17:37:00,
2013-09-21 11:38:00,72.1,41.4,30.02,SE,132,4.0,8.0,33,0.00,,SKC,0.00,VWS V14.01,2013-09-21 17:38:00,
2013-09-21 11:39:00,72.2,43.8,30.02,SE,132,4.0,5.0,36,0.00,,SKC,0.00,VWS V14.01,2013-09-21 17:39:00,
2013-09-21 11:40:00,72.3,42.4,30.02,ESE,115,6.0,6.0,34,0.00,,SKC,0.00,VWS V14.01,2013-09-21 17:40:00,
2013-09-21 11:41:00,72.4,41.7,30.02,ESE,115,13.0,13.0,33,0.00,,SKC,0.00,VWS V14.01,2013-09-21 17:41:00,
2013-09-21 11:42:00,72.4,40.1,30.02,ESE,102,8.0,13.0,31,0.00,,SKC,0.00,VWS V14.01,2013-09-21 17:42:00,
2013-09-21 11:43:00,72.4,40.1,30.03,ESE,103,10.0,11.0,31,0.00,,SKC,0.00,VWS V14.01,2013-09-21 17:43:00,
2013-09-21 11:44:00,72.4,40.1,30.02,ESE,106,11.0,13.0,31,0.00,,SKC,0.00,VWS V14.01,2013-09-21 17:44:00,
2013-09-21 11:45:00,72.5,41.8,30.02,ESE,118,9.0,12.0,33,0.00,,SKC,0.00,VWS V14.01,2013-09-21 17:45:00,
2013-09-21 11:46:00,72.5,41.8,30.02,East,94,8.0,12.0,33,0.00,,SKC,0.00,VWS V14.01,2013-09-21 17:46:00,
2013-09-21 11:47:00,72.5,41.0,30.02,ESE,102,11.0,12.0,32,0.00,,SKC,0.00,VWS V14.01,2013-09-21 17:47:00,
2013-09-21 11:48:00,72.5,41.0,30.02,East,94,11.0,13.0,32,0.00,,SKC,0.00,VWS V14.01,2013-09-21 17:48:00,
2013-09-21 11:49:00,72.5,41.8,30.02,ENE,72,12.0,17.0,33,0.00,,SKC,0.00,VWS V14.01,2013-09-21 17:49:00,
2013-09-21 11:50:00,72.4,40.9,30.02,East,95,5.0,15.0,32,0.00,,SKC,0.00,VWS V14.01,2013-09-21 17:50:00,
2013-09-21 11:51:00,72.4,42.5,30.02,ESE,103,11.0,13.0,34,0.00,,SKC,0.00,VWS V14.01,2013-09-21 17:51:00,
2013-09-21 11:52:00,72.4,40.9,30.02,ESE,115,5.0,14.0,32,0.00,,SKC,0.00,VWS V14.01,2013-09-21 17:52:00,
2013-09-21 11:53:00,72.3,40.8,30.02,East,93,3.0,8.0,32,0.00,,SKC,0.00,VWS V14.01,2013-09-21 17:53:00,
2013-09-21 11:54:00,72.3,41.6,30.02,East,101,11.0,11.0,33,0.00,,SKC,0.00,VWS V14.01,2013-09-21 17:54:00,
2013-09-21 11:55:00,72.2,39.1,30.02,ESE,107,4.0,11.0,30,0.00,,SKC,0.00,VWS V14.01,2013-09-21 17:55:00,
2013-09-21 11:56:00,72.2,41.5,30.02,ESE,120,4.0,5.0,33,0.00,,SKC,0.00,VWS V14.01,2013-09-21 17:56:00,
2013-09-21 11:57:00,72.2,43.1,30.02,North,360,4.0,7.0,35,0.00,,SKC,0.00,VWS V14.01,2013-09-21 17:57:00,
2013-09-21 11:58:00,72.2,41.5,30.02,SE,127,4.0,5.0,33,0.00,,SKC,0.00,VWS V14.01,2013-09-21 17:58:00,
2013-09-21 11:59:00,72.3,43.1,30.02,ESE,110,5.0,6.0,35,0.00,,SKC,0.00,VWS V14.01,2013-09-21 17:59:00,
2013-09-21 12:00:00,72.4,42.5,30.02,ENE,58,2.0,9.0,34,0.00,,SKC,0.00,VWS V14.01,2013-09-21 18:00:00,
2013-09-21 12:01:00,72.5,41.8,30.02,ENE,61,2.0,6.0,33,0.00,,SKC,0.00,VWS V14.01,2013-09-21 18:01:00,
2013-09-21 12:02:00,72.6,42.7,30.01,NE,42,2.0,2.0,34,0.00,,SKC,0.00,VWS V14.01,2013-09-21 18:02:00,
2013-09-21 12:03:00,72.7,42.0,30.01,NNE,30,1.0,4.0,33,0.00,,SKC,0.00,VWS V14.01,2013-09-21 18:03:00,
2013-09-21 12:04:00,72.8,41.3,30.01,NNE,12,2.0,5.0,32,0.00,,SKC,0.00,VWS V14.01,2013-09-21 18:04:00,
2013-09-21 12:05:00,73.0,43.0,30.01,SE,135,4.0,6.0,34,0.00,,SKC,0.00,VWS V14.01,2013-09-21 18:05:00,
2013-09-21 12:06:00,73.1,42.3,30.01,SSW,196,5.0,7.0,33,0.00,,SKC,0.00,VWS V14.01,2013-09-21 18:06:00,
2013-09-21 12:07:00,73.2,40.8,30.01,WSW,246,3.0,11.0,31,0.00,,SKC,0.00,VWS V14.01,2013-09-21 18:07:00,
2013-09-21 12:08:00,73.3,39.2,30.01,North,360,0.0,6.0,29,0.00,,SKC,0.00,VWS V14.01,2013-09-21 18:08:00,
2013-09-21 12:09:00,73.2,39.9,30.01,SSE,153,5.0,6.0,30,0.00,,SKC,0.00,VWS V14.01,2013-09-21 18:09:00,
2013-09-21 12:10:00,73.3,41.7,30.01,SSE,166,8.0,10.0,32,0.00,,SKC,0.00,VWS V14.01,2013-09-21 18:10:00,
2013-09-21 12:11:00,73.3,41.7,30.01,SSE,164,4.0,8.0,32,0.00,,SKC,0.00,VWS V14.01,2013-09-21 18:11:00,
2013-09-21 12:12:00,73.3,40.0,30.01,SSW,204,5.0,5.0,30,0.00,,SKC,0.00,VWS V14.01,2013-09-21 18:12:00,
2013-09-21 12:13:00,73.2,39.9,30.01,WNW,289,9.0,14.0,30,0.00,,SKC,0.00,VWS V14.01,2013-09-21 18:13:00,
2013-09-21 12:14:00,73.2,39.1,30.01,West,259,15.0,18.0,29,0.00,,SKC,0.00,VWS V14.01,2013-09-21 18:14:00,
2013-09-21 12:15:00,73.3,40.9,30.00,SSW,209,11.0,18.0,31,0.00,,SKC,0.00,VWS V14.01,2013-09-21 18:15:00,
2013-09-21 12:16:00,73.3,39.2,30.00,South,172,14.0,17.0,29,0.00,,SKC,0.00,VWS V14.01,2013-09-21 18:16:00,
2013-09-21 12:17:00,73.0,38.9,30.01,South,183,9.0,14.0,29,0.00,,SKC,0.00,VWS V14.01,2013-09-21 18:17:00,
2013-09-21 12:18:00,72.8,39.6,30.01,SSE,160,7.0,10.0,30,0.00,,SKC,0.00,VWS V14.01,2013-09-21 18:18:00,
2013-09-21 12:19:00,72.6,38.5,30.01,SW,216,4.0,7.0,29,0.00,,SKC,0.00,VWS V14.01,2013-09-21 18:19:00,
2013-09-21 12:20:00,72.4,37.5,30.01,SSW,207,4.0,5.0,28,0.00,,SKC,0.00,VWS V14.01,2013-09-21 18:20:00,
2013-09-21 12:21:00,72.1,38.1,30.01,ENE,67,4.0,6.0,29,0.00,,SKC,0.00,VWS V14.01,2013-09-21 18:21:00,
2013-09-21 12:22:00,71.9,41.3,30.00,North,360,2.0,4.0,33,0.00,,SKC,0.00,VWS V14.01,2013-09-21 18:22:00,
2013-09-21 12:23:00,71.9,39.7,30.00,NNW,333,0.0,2.0,31,0.00,,SKC,0.00,VWS V14.01,2013-09-21 18:23:00,
2013-09-21 12:24:00,71.8,39.6,30.00,NW,314,2.0,4.0,31,0.00,,SKC,0.00,VWS V14.01,2013-09-21 18:24:00,
2013-09-21 12:25:00,71.8,39.6,30.00,NW,317,0.0,2.0,31,0.00,,SKC,0.00,VWS V14.01,2013-09-21 18:25:00,
2013-09-21 12:26:00,71.9,42.0,30.00,SSE,161,4.0,5.0,34,0.00,,SKC,0.00,VWS V14.01,2013-09-21 18:26:00,
2013-09-21 12:27:00,71.9,41.3,30.00,South,182,7.0,8.0,33,0.00,,SKC,0.00,VWS V14.01,2013-09-21 18:27:00,
2013-09-21 12:28:00,72.1,40.7,30.00,South,171,6.0,10.0,32,0.00,,SKC,0.00,VWS V14.01,2013-09-21 18:28:00,
2013-09-21 12:29:00,72.2,42.3,30.00,SSE,168,7.0,8.0,34,0.00,,SKC,0.00,VWS V14.01,2013-09-21 18:29:00,
2013-09-21 12:31:00,72.6,44.9,30.00,SE,126,4.0,11.0,37,0.00,,SKC,0.00,VWS V14.01,2013-09-21 18:31:00,
2013-09-21 12:32:00,72.8,42.0,30.00,SSE,163,7.0,10.0,33,0.00,,SKC,0.00,VWS V14.01,2013-09-21 18:32:00,
2013-09-21 12:33:00,72.9,41.3,30.00,SSE,152,4.0,11.0,32,0.00,,SKC,0.00,VWS V14.01,2013-09-21 18:33:00,
2013-09-21 12:34:00,73.0,41.4,30.00,SSE,153,14.0,17.0,32,0.00,,SKC,0.00,VWS V14.01,2013-09-21 18:34:00,
2013-09-21 12:35:00,73.2,43.2,30.00,ESE,105,11.0,14.0,34,0.00,,SKC,0.00,VWS V14.01,2013-09-21 18:35:00,
2013-09-21 12:36:00,73.4,44.1,30.00,ESE,103,6.0,13.0,35,0.00,,SKC,0.00,VWS V14.01,2013-09-21 18:36:00,
2013-09-21 12:37:00,73.5,43.4,29.99,ESE,122,4.0,10.0,34,0.00,,SKC,0.00,VWS V14.01,2013-09-21 18:37:00,
2013-09-21 12:38:00,73.7,44.4,29.99,South,171,3.0,7.0,35,0.00,,SKC,0.00,VWS V14.01,2013-09-21 18:38:00,
2013-09-21 12:39:00,73.8,45.2,30.00,SE,128,13.0,13.0,36,0.00,,SKC,0.00,VWS V14.01,2013-09-21 18:39:00,
2013-09-21 12:40:00,73.9,43.8,29.99,ESE,119,15.0,15.0,34,0.00,,SKC,0.00,VWS V14.01,2013-09-21 18:40:00,
2013-09-21 12:41:00,73.9,41.4,29.99,ESE,118,5.0,15.0,31,0.00,,SKC,0.00,VWS V14.01,2013-09-21 18:41:00,
2013-09-21 12:42:00,73.9,42.2,29.99,SSE,161,6.0,7.0,32,0.00,,SKC,0.00,VWS V14.01,2013-09-21 18:42:00,
2013-09-21 12:43:00,73.8,41.3,29.99,SE,144,5.0,9.0,31,0.00,,SKC,0.00,VWS V14.01,2013-09-21 18:43:00,
2013-09-21 12:44:00,73.7,43.6,29.99,SE,132,10.0,10.0,34,0.00,,SKC,0.00,VWS V14.01,2013-09-21 18:44:00,
2013-09-21 12:45:00,73.7,41.2,29.99,ESE,110,11.0,12.0,31,0.00,,SKC,0.00,VWS V14.01,2013-09-21 18:45:00,
2013-09-21 12:46:00,73.7,45.1,29.99,East,101,6.0,12.0,36,0.00,,SKC,0.00,VWS V14.01,2013-09-21 18:46:00,
2013-09-21 12:47:00,73.7,44.4,29.99,East,92,9.0,14.0,35,0.00,,SKC,0.00,VWS V14.01,2013-09-21 18:47:00,
2013-09-21 12:48:00,73.8,45.9,29.99,ENE,67,5.0,10.0,37,0.00,,SKC,0.00,VWS V14.01,2013-09-21 18:48:00,
2013-09-21 12:49:00,73.8,44.5,29.99,East,89,4.0,9.0,35,0.00,,SKC,0.00,VWS V14.01,2013-09-21 18:49:00,
2013-09-21 12:50:00,73.8,45.2,29.99,East,81,4.0,7.0,36,0.00,,SKC,0.00,VWS V14.01,2013-09-21 18:50:00,
2013-09-21 12:51:00,73.8,45.2,29.99,ESE,103,1.0,9.0,36,0.00,,SKC,0.00,VWS V14.01,2013-09-21 18:51:00,
2013-09-21 12:52:00,73.9,43.8,29.99,ESE,104,2.0,3.0,34,0.00,,SKC,0.00,VWS V14.01,2013-09-21 18:52:00,
2013-09-21 12:53:00,73.9,45.3,29.99,ESE,121,2.0,5.0,36,0.00,,SKC,0.00,VWS V14.01,2013-09-21 18:53:00,
2013-09-21 12:54:00,73.9,45.3,29.99,SSE,150,4.0,7.0,36,0.00,,SKC,0.00,VWS V14.01,2013-09-21 18:54:00,
2013-09-21 12:55:00,74.0,46.1,29.99,SE,136,6.0,11.0,37,0.00,,SKC,0.00,VWS V14.01,2013-09-21 18:55:00,
2013-09-21 12:56:00,74.1,44.7,29.99,SE,144,9.0,9.0,35,0.00,,SKC,0.00,VWS V14.01,2013-09-21 18:56:00,
2013-09-21 12:57:00,74.2,42.5,29.98,SE,133,4.0,9.0,32,0.00,,SKC,0.00,VWS V14.01,2013-09-21 18:57:00,
2013-09-21 12:58:00,74.2,45.6,29.98,South,173,5.0,6.0,36,0.00,,SKC,0.00,VWS V14.01,2013-09-21 18:58:00,
2013-09-21 12:59:00,74.4,45.7,29.98,South,184,5.0,10.0,36,0.00,,SKC,0.00,VWS V14.01,2013-09-21 18:59:00,
2013-09-21 13:00:00,74.5,44.3,29.99,SSE,167,7.0,9.0,34,0.00,,SKC,0.00,VWS V14.01,2013-09-21 19:00:00,
2013-09-21 13:01:00,74.6,44.4,29.99,SSE,166,7.0,10.0,34,0.00,,SKC,0.00,VWS V14.01,2013-09-21 19:01:00,
2013-09-21 13:02:00,74.7,42.9,29.99,SSE,150,3.0,7.0,32,0.00,,SKC,0.00,VWS V14.01,2013-09-21 19:02:00,
2013-09-21 13:03:00,74.7,42.9,29.98,East,101,3.0,7.0,32,0.00,,SKC,0.00,VWS V14.01,2013-09-21 19:03:00,
2013-09-21 13:04:00,74.8,45.3,29.98,ESE,110,7.0,11.0,35,0.00,,SKC,0.00,VWS V14.01,2013-09-21 19:04:00,
2013-09-21 13:05:00,74.8,44.6,29.98,ESE,107,5.0,8.0,34,0.00,,SKC,0.00,VWS V14.01,2013-09-21 19:05:00,
2013-09-21 13:06:00,74.9,43.9,29.98,ESE,102,4.0,6.0,33,0.00,,SKC,0.00,VWS V14.01,2013-09-21 19:06:00,
2013-09-21 13:07:00,75.0,43.2,29.98,West,281,3.0,5.0,32,0.00,,SKC,0.00,VWS V14.01,2013-09-21 19:07:00,
2013-09-21 13:08:00,75.1,44.8,29.97,WNW,300,1.0,3.0,34,0.00,,SKC,0.00,VWS V14.01,2013-09-21 19:08:00,
2013-09-21 13:09:00,75.2,45.7,29.98,NE,49,3.0,4.0,35,0.00,,SKC,0.00,VWS V14.01,2013-09-21 19:09:00,
2013-09-21 13:10:00,75.2,44.9,29.97,ENE,69,3.0,3.0,34,0.00,,SKC,0.00,VWS V14.01,2013-09-21 19:10:00,
2013-09-21 13:11:00,75.3,44.2,29.97,NNE,26,9.0,10.0,33,0.00,,SKC,0.00,VWS V14.01,2013-09-21 19:11:00,
2013-09-21 13:12:00,75.3,44.2,29.97,NNE,17,5.0,11.0,33,0.00,,SKC,0.00,VWS V14.01,2013-09-21 19:12:00,
2013-09-21 13:13:00,75.4,45.9,29.98,North,360,2.0,8.0,35,0.00,,SKC,0.00,VWS V14.01,2013-09-21 19:13:00,
2013-09-21 13:14:00,75.5,45.2,29.97,ENE,59,0.0,3.0,34,0.00,,SKC,0.00,VWS V14.01,2013-09-21 19:14:00,
2013-09-21 13:15:00,75.5,46.7,29.97,NE,52,0.0,2.0,36,0.00,,SKC,0.00,VWS V14.01,2013-09-21 19:15:00,
2013-09-21 13:16:00,75.6,46.0,29.97,East,93,5.0,5.0,35,0.00,,SKC,0.00,VWS V14.01,2013-09-21 19:16:00,
2013-09-21 13:17:00,75.7,45.4,29.97,SE,126,6.0,11.0,34,0.00,,SKC,0.00,VWS V14.01,2013-09-21 19:17:00,
2013-09-21 13:18:00,75.7,43.0,29.97,SE,138,5.0,10.0,31,0.00,,SKC,0.00,VWS V14.01,2013-09-21 19:18:00,
2013-09-21 13:19:00,75.7,45.4,29.97,ESE,104,6.0,7.0,34,0.00,,SKC,0.00,VWS V14.01,2013-09-21 19:19:00,
2013-09-21 13:20:00,75.7,46.1,29.97,ESE,118,2.0,6.0,35,0.00,,SKC,0.00,VWS V14.01,2013-09-21 19:20:00,
2013-09-21 13:21:00,75.6,44.5,29.97,South,181,5.0,5.0,33,0.00,,SKC,0.00,VWS V14.01,2013-09-21 19:21:00,
2013-09-21 13:22:00,75.6,42.9,29.97,South,190,5.0,7.0,31,0.00,,SKC,0.00,VWS V14.01,2013-09-21 19:22:00,
2013-09-21 13:23:00,75.4,42.7,29.97,SSE,160,10.0,12.0,31,0.00,,SKC,0.00,VWS V14.01,2013-09-21 19:23:00,
2013-09-21 13:24:00,75.3,42.6,29.97,SE,144,3.0,10.0,31,0.00,,SKC,0.00,VWS V14.01,2013-09-21 19:24:00,
2013-09-21 13:25:00,75.0,42.3,29.97,SE,142,2.0,6.0,31,0.00,,SKC,0.00,VWS V14.01,2013-09-21 19:25:00,
2013-09-21 13:26:00,74.9,43.9,29.96,SSE,164,4.0,4.0,33,0.00,,SKC,0.00,VWS V14.01,2013-09-21 19:26:00,
2013-09-21 13:27:00,74.7,42.9,29.96,SSW,210,3.0,4.0,32,0.00,,SKC,0.00,VWS V14.01,2013-09-21 19:27:00,
2013-09-21 13:28:00,74.4,39.2,29.97,SSW,199,10.0,10.0,28,0.00,,SKC,0.00,VWS V14.01,2013-09-21 19:28:00,
2013-09-21 13:29:00,74.2,41.7,29.96,SSW,201,4.0,10.0,31,0.00,,SKC,0.00,VWS V14.01,2013-09-21 19:29:00,
2013-09-21 13:30:00,74.0,41.5,29.96,South,177,6.0,9.0,31,0.00,,SKC,0.00,VWS V14.01,2013-09-21 19:30:00,
2013-09-21 13:31:00,73.8,42.1,29.96,South,178,2.0,6.0,32,0.00,,SKC,0.00,VWS V14.01,2013-09-21 19:31:00,
2013-09-21 13:32:00,73.7,42.0,29.96,ESE,111,4.0,5.0,32,0.00,,SKC,0.00,VWS V14.01,2013-09-21 19:32:00,
2013-09-21 13:33:00,73.5,40.2,29.96,SE,130,5.0,6.0,30,0.00,,SKC,0.00,VWS V14.01,2013-09-21 19:33:00,
2013-09-21 13:34:00,73.4,41.0,29.97,SE,146,5.0,6.0,31,0.00,,SKC,0.00,VWS V14.01,2013-09-21 19:34:00,
2013-09-21 13:35:00,73.3,41.7,29.97,South,169,6.0,6.0,32,0.00,,SKC,0.00,VWS V14.01,2013-09-21 19:35:00,
2013-09-21 13:36:00,73.2,43.2,29.97,SSE,158,7.0,7.0,34,0.00,,SKC,0.00,VWS V14.01,2013-09-21 19:36:00,
2013-09-21 13:37:00,73.1,41.5,29.97,ESE,114,7.0,9.0,32,0.00,,SKC,0.00,VWS V14.01,2013-09-21 19:37:00,
2013-09-21 13:38:00,73.1,44.6,29.96,East,101,7.0,10.0,36,0.00,,SKC,0.00,VWS V14.01,2013-09-21 19:38:00,
2013-09-21 13:39:00,73.1,43.1,29.96,SE,126,4.0,10.0,34,0.00,,SKC,0.00,VWS V14.01,2013-09-21 19:39:00,
2013-09-21 13:40:00,73.1,43.1,29.96,ESE,116,0.0,4.0,34,0.00,,SKC,0.00,VWS V14.01,2013-09-21 19:40:00,
2013-09-21 13:41:00,73.1,43.1,29.96,SE,126,2.0,2.0,34,0.00,,SKC,0.00,VWS V14.01,2013-09-21 19:41:00,
2013-09-21 13:42:00,73.1,42.3,29.96,North,351,3.0,5.0,33,0.00,,SKC,0.00,VWS V14.01,2013-09-21 19:42:00,
2013-09-21 13:43:00,73.1,40.7,29.96,NE,44,1.0,4.0,31,0.00,,SKC,0.00,VWS V14.01,2013-09-21 19:43:00,
2013-09-21 13:44:00,73.1,43.8,29.96,ENE,64,3.0,5.0,35,0.00,,SKC,0.00,VWS V14.01,2013-09-21 19:44:00,
2013-09-21 13:45:00,73.0,43.0,29.96,ENE,63,2.0,3.0,34,0.00,,SKC,0.00,VWS V14.01,2013-09-21 19:45:00,
2013-09-21 13:46:00,73.0,43.8,29.96,ENE,64,4.0,4.0,35,0.00,,SKC,0.00,VWS V14.01,2013-09-21 19:46:00,
2013-09-21 13:47:00,73.1,44.6,29.96,East,96,4.0,6.0,36,0.00,,SKC,0.00,VWS V14.01,2013-09-21 19:47:00,
2013-09-21 13:48:00,73.1,43.8,29.95,East,98,5.0,7.0,35,0.00,,SKC,0.00,VWS V14.01,2013-09-21 19:48:00,
2013-09-21 13:49:00,73.1,43.8,29.95,ESE,111,5.0,9.0,35,0.00,,SKC,0.00,VWS V14.01,2013-09-21 19:49:00,
2013-09-21 13:50:00,73.1,43.1,29.95,East,94,9.0,11.0,34,0.00,,SKC,0.00,VWS V14.01,2013-09-21 19:50:00,
2013-09-21 13:51:00,73.0,43.8,29.95,East,98,8.0,10.0,35,0.00,,SKC,0.00,VWS V14.01,2013-09-21 19:51:00,
2013-09-21 13:52:00,73.1,43.8,29.95,East,97,7.0,11.0,35,0.00,,SKC,0.00,VWS V14.01,2013-09-21 19:52:00,
2013-09-21 13:53:00,73.1,43.1,29.95,ENE,74,6.0,9.0,34,0.00,,SKC,0.00,VWS V14.01,2013-09-21 19:53:00,
2013-09-21 13:54:00,73.1,43.1,29.95,East,101,9.0,10.0,34,0.00,,SKC,0.00,VWS V14.01,2013-09-21 19:54:00,
2013-09-21 13:55:00,73.0,43.0,29.95,East,87,10.0,13.0,34,0.00,,SKC,0.00,VWS V14.01,2013-09-21 19:55:00,
2013-09-21 13:56:00,72.8,42.0,29.95,ESE,103,6.0,14.0,33,0.00,,SKC,0.00,VWS V14.01,2013-09-21 19:56:00,
2013-09-21 13:57:00,72.7,42.7,29.95,East,101,6.0,10.0,34,0.00,,SKC,0.00,VWS V14.01,2013-09-21 19:57:00,
2013-09-21 13:58:00,72.6,42.7,29.95,North,360,3.0,7.0,34,0.00,,SKC,0.00,VWS V14.01,2013-09-21 19:58:00,
2013-09-21 13:59:00,72.6,43.4,29.95,ENE,71,5.0,11.0,35,0.00,,SKC,0.00,VWS V14.01,2013-09-21 19:59:00,
2013-09-21 14:00:00,72.6,43.4,29.95,ENE,71,5.0,10.0,35,0.00,,SKC,0.00,VWS V14.01,2013-09-21 20:00:00,
2013-09-21 14:01:00,72.6,43.4,29.95,NE,44,1.0,12.0,35,0.00,,SKC,0.00,VWS V14.01,2013-09-21 20:01:00,
2013-09-21 14:02:00,72.7,42.7,29.95,East,84,9.0,10.0,34,0.00,,SKC,0.00,VWS V14.01,2013-09-21 20:02:00,
2013-09-21 14:03:00,72.7,42.7,29.96,East,98,5.0,11.0,34,0.00,,SKC,0.00,VWS V14.01,2013-09-21 20:03:00,
2013-09-21 14:04:00,72.8,43.6,29.95,East,98,4.0,7.0,35,0.00,,SKC,0.00,VWS V14.01,2013-09-21 20:04:00,
2013-09-21 14:05:00,72.8,43.6,29.95,ESE,104,5.0,7.0,35,0.00,,SKC,0.00,VWS V14.01,2013-09-21 20:05:00,
2013-09-21 14:06:00,72.9,45.1,29.95,ESE,117,6.0,7.0,37,0.00,,SKC,0.00,VWS V14.01,2013-09-21 20:06:00,
2013-09-21 14:07:00,73.0,45.2,29.95,ESE,119,3.0,6.0,37,0.00,,SKC,0.00,VWS V14.01,2013-09-21 20:07:00,
2013-09-21 14:08:00,73.0,43.8,29.95,ESE,111,8.0,12.0,35,0.00,,SKC,0.00,VWS V14.01,2013-09-21 20:08:00,
2013-09-21 14:09:00,73.2,45.4,29.95,SE,140,5.0,8.0,37,0.00,,SKC,0.00,VWS V14.01,2013-09-21 20:09:00,
2013-09-21 14:10:00,73.3,45.5,29.95,ESE,110,7.0,10.0,37,0.00,,SKC,0.00,VWS V14.01,2013-09-21 20:10:00,
2013-09-21 14:11:00,73.4,44.8,29.94,ESE,106,6.0,10.0,36,0.00,,SKC,0.00,VWS V14.01,2013-09-21 20:11:00,
2013-09-21 14:12:00,73.6,45.8,29.94,ESE,105,6.0,10.0,37,0.00,,SKC,0.00,VWS V14.01,2013-09-21 20:12:00,
2013-09-21 14:13:00,73.8,45.2,29.94,SE,134,8.0,10.0,36,0.00,,SKC,0.00,VWS V14.01,2013-09-21 20:13:00,
2013-09-21 14:14:00,73.9,46.0,29.94,ESE,109,9.0,11.0,37,0.00,,SKC,0.00,VWS V14.01,2013-09-21 20:14:00,
2013-09-21 14:15:00,74.1,46.2,29.94,ESE,113,9.0,11.0,37,0.00,,SKC,0.00,VWS V14.01,2013-09-21 20:15:00,
2013-09-21 14:16:00,74.2,46.3,29.94,SSE,152,7.0,10.0,37,0.00,,SKC,0.00,VWS V14.01,2013-09-21 20:16:00,
2013-09-21 14:17:00,74.4,45.7,29.94,East,87,8.0,8.0,36,0.00,,SKC,0.00,VWS V14.01,2013-09-21 20:17:00,
2013-09-21 14:18:00,74.5,45.8,29.94,ESE,106,4.0,9.0,36,0.00,,SKC,0.00,VWS V14.01,2013-09-21 20:18:00,
2013-09-21 14:19:00,74.6,45.9,29.94,SE,137,12.0,13.0,36,0.00,,SKC,0.00,VWS V14.01,2013-09-21 20:19:00,
2013-09-21 14:20:00,74.8,46.8,29.94,East,101,9.0,12.0,37,0.00,,SKC,0.00,VWS V14.01,2013-09-21 20:20:00,
2013-09-21 14:21:00,74.9,46.9,29.94,East,101,3.0,9.0,37,0.00,,SKC,0.00,VWS V14.01,2013-09-21 20:21:00,
2013-09-21 14:22:00,75.0,47.0,29.94,East,101,7.0,7.0,37,0.00,,SKC,0.00,VWS V14.01,2013-09-21 20:22:00,
2013-09-21 14:23:00,75.0,47.0,29.94,ESE,109,9.0,12.0,37,0.00,,SKC,0.00,VWS V14.01,2013-09-21 20:23:00,
2013-09-21 14:24:00,74.9,46.2,29.94,ESE,111,10.0,13.0,36,0.00,,SKC,0.00,VWS V14.01,2013-09-21 20:24:00,
2013-09-21 14:25:00,74.8,45.3,29.94,ESE,109,7.0,14.0,35,0.00,,SKC,0.00,VWS V14.01,2013-09-21 20:25:00,
2013-09-21 14:26:00,74.7,46.0,29.94,ESE,109,6.0,8.0,36,0.00,,SKC,0.00,VWS V14.01,2013-09-21 20:26:00,
2013-09-21 14:27:00,74.7,47.4,29.95,East,84,10.0,13.0,38,0.00,,SKC,0.00,VWS V14.01,2013-09-21 20:27:00,
2013-09-21 14:28:00,74.6,47.3,29.94,ESE,123,12.0,12.0,38,0.00,,SKC,0.00,VWS V14.01,2013-09-21 20:28:00,
2013-09-21 14:29:00,74.6,48.0,29.94,SE,130,10.0,16.0,39,0.00,,SKC,0.00,VWS V14.01,2013-09-21 20:29:00,
2013-09-21 14:30:00,74.5,47.2,29.94,East,101,9.0,13.0,38,0.00,,SKC,0.00,VWS V14.01,2013-09-21 20:30:00,
2013-09-21 14:31:00,74.3,46.4,29.94,ENE,78,6.0,11.0,37,0.00,,SKC,0.00,VWS V14.01,2013-09-21 20:31:00,
2013-09-21 14:32:00,74.1,46.2,29.94,SE,124,8.0,10.0,37,0.00,,SKC,0.00,VWS V14.01,2013-09-21 20:32:00,
2013-09-21 14:33:00,74.0,47.5,29.94,East,92,11.0,12.0,39,0.00,,SKC,0.00,VWS V14.01,2013-09-21 20:33:00,
2013-09-21 14:34:00,73.8,48.0,29.94,ESE,107,10.0,12.0,40,0.00,,SKC,0.00,VWS V14.01,2013-09-21 20:34:00,
2013-09-21 14:35:00,73.6,47.1,29.94,ESE,122,10.0,10.0,39,0.00,,SKC,0.00,VWS V14.01,2013-09-21 20:35:00,
2013-09-21 14:36:00,73.4,48.3,29.94,SE,127,5.0,12.0,41,0.00,,SKC,0.00,VWS V14.01,2013-09-21 20:36:00,
2013-09-21 14:37:00,73.3,47.5,29.94,ESE,110,10.0,13.0,40,0.00,,SKC,0.00,VWS V14.01,2013-09-21 20:37:00,
2013-09-21 14:38:00,73.3,48.2,29.94,East,97,9.0,12.0,41,0.00,,SKC,0.00,VWS V14.01,2013-09-21 20:38:00,
2013-09-21 14:39:00,73.2,48.1,29.94,ESE,123,6.0,9.0,41,0.00,,SKC,0.00,VWS V14.01,2013-09-21 20:39:00,
2013-09-21 14:40:00,73.1,47.4,29.94,ESE,103,9.0,14.0,40,0.00,,SKC,0.00,VWS V14.01,2013-09-21 20:40:00,
2013-09-21 14:41:00,73.0,47.3,29.93,ESE,115,10.0,11.0,40,0.00,,SKC,0.00,VWS V14.01,2013-09-21 20:41:00,
2013-09-21 14:42:00,72.9,47.8,29.94,ESE,108,9.0,11.0,41,0.00,,SKC,0.00,VWS V14.01,2013-09-21 20:42:00,
2013-09-21 14:43:00,72.7,47.0,29.93,East,94,8.0,11.0,40,0.00,,SKC,0.00,VWS V14.01,2013-09-21 20:43:00,
2013-09-21 14:44:00,72.5,46.8,29.93,East,101,7.0,10.0,40,0.00,,SKC,0.00,VWS V14.01,2013-09-21 20:44:00,
2013-09-21 14:45:00,72.4,47.4,29.93,East,98,9.0,9.0,41,0.00,,SKC,0.00,VWS V14.01,2013-09-21 20:45:00,
2013-09-21 14:46:00,72.2,47.9,29.93,ESE,103,9.0,11.0,42,0.00,,SKC,0.00,VWS V14.01,2013-09-21 20:46:00,
2013-09-21 14:47:00,72.1,48.4,29.93,East,95,6.0,10.0,43,0.00,,SKC,0.00,VWS V14.01,2013-09-21 20:47:00,
2013-09-21 14:48:00,72.1,47.8,29.93,East,95,5.0,7.0,42,0.00,,SKC,0.00,VWS V14.01,2013-09-21 20:48:00,
2013-09-21 14:49:00,72.1,47.8,29.93,East,85,6.0,6.0,42,0.00,,SKC,0.00,VWS V14.01,2013-09-21 20:49:00,
2013-09-21 14:50:00,72.1,48.4,29.93,East,82,6.0,9.0,43,0.00,,SKC,0.00,VWS V14.01,2013-09-21 20:50:00,
2013-09-21 14:51:00,72.2,49.1,29.93,SE,127,5.0,6.0,44,0.00,,SKC,0.00,VWS V14.01,2013-09-21 20:51:00,
2013-09-21 14:52:00,72.3,48.0,29.93,East,93,9.0,10.0,42,0.00,,SKC,0.00,VWS V14.01,2013-09-21 20:52:00,
2013-09-21 14:53:00,72.4,48.0,29.93,ESE,119,7.0,12.0,42,0.00,,SKC,0.00,VWS V14.01,2013-09-21 20:53:00,
2013-09-21 14:54:00,72.5,48.1,29.93,ESE,107,6.0,7.0,42,0.00,,SKC,0.00,VWS V14.01,2013-09-21 20:54:00,
2013-09-21 14:55:00,72.6,49.5,29.92,ESE,109,9.0,9.0,44,0.00,,SKC,0.00,VWS V14.01,2013-09-21 20:55:00,
2013-09-21 14:56:00,72.7,48.3,29.93,ESE,105,10.0,13.0,42,0.00,,SKC,0.00,VWS V14.01,2013-09-21 20:56:00,
2013-09-21 14:57:00,72.8,47.8,29.93,East,79,12.0,14.0,41,0.00,,SKC,0.00,VWS V14.01,2013-09-21 20:57:00,
2013-09-21 14:58:00,72.8,47.1,29.92,East,97,10.0,14.0,40,0.00,,SKC,0.00,VWS V14.01,2013-09-21 20:58:00,
2013-09-21 14:59:00,72.9,46.5,29.92,ESE,105,13.0,13.0,39,0.00,,SKC,0.00,VWS V14.01,2013-09-21 20:59:00,
2013-09-21 15:00:00,72.9,47.2,29.92,East,87,10.0,13.0,40,0.00,,SKC,0.00,VWS V14.01,2013-09-21 21:00:00,
2013-09-21 15:01:00,73.0,47.9,29.92,East,101,12.0,14.0,41,0.00,,SKC,0.00,VWS V14.01,2013-09-21 21:01:00,
2013-09-21 15:02:00,73.1,48.0,29.92,ESE,107,12.0,14.0,41,0.00,,SKC,0.00,VWS V14.01,2013-09-21 21:02:00,
2013-09-21 15:03:00,73.2,48.1,29.92,East,90,12.0,15.0,41,0.00,,SKC,0.00,VWS V14.01,2013-09-21 21:03:00,
2013-09-21 15:04:00,73.3,47.5,29.92,East,94,13.0,13.0,40,0.00,,SKC,0.00,VWS V14.01,2013-09-21 21:04:00,
2013-09-21 15:05:00,73.3,47.5,29.92,East,98,11.0,14.0,40,0.00,,SKC,0.00,VWS V14.01,2013-09-21 21:05:00,
2013-09-21 15:06:00,73.4,48.3,29.92,ESE,111,6.0,11.0,41,0.00,,SKC,0.00,VWS V14.01,2013-09-21 21:06:00,
2013-09-21 15:07:00,73.4,48.3,29.92,East,96,10.0,11.0,41,0.00,,SKC,0.00,VWS V14.01,2013-09-21 21:07:00,
2013-09-21 15:08:00,73.4,48.3,29.92,ENE,73,10.0,12.0,41,0.00,,SKC,0.00,VWS V14.01,2013-09-21 21:08:00,
2013-09-21 15:09:00,73.4,48.3,29.92,ESE,115,7.0,13.0,41,0.00,,SKC,0.00,VWS V14.01,2013-09-21 21:09:00,
2013-09-21 15:10:00,73.3,47.5,29.92,East,96,13.0,14.0,40,0.00,,SKC,0.00,VWS V14.01,2013-09-21 21:10:00,
2013-09-21 15:11:00,73.1,46.7,29.92,East,86,10.0,13.0,39,0.00,,SKC,0.00,VWS V14.01,2013-09-21 21:11:00,
2013-09-21 15:12:00,73.0,47.3,29.92,East,96,12.0,14.0,40,0.00,,SKC,0.00,VWS V14.01,2013-09-21 21:12:00,
2013-09-21 15:13:00,73.0,48.6,29.92,ESE,119,11.0,15.0,42,0.00,,SKC,0.00,VWS V14.01,2013-09-21 21:13:00,
2013-09-21 15:14:00,72.9,47.2,29.92,East,92,9.0,12.0,40,0.00,,SKC,0.00,VWS V14.01,2013-09-21 21:14:00,
2013-09-21 15:15:00,72.9,47.2,29.92,East,84,10.0,13.0,40,0.00,,SKC,0.00,VWS V14.01,2013-09-21 21:15:00,
2013-09-21 15:16:00,72.9,47.8,29.92,ESE,102,8.0,13.0,41,0.00,,SKC,0.00,VWS V14.01,2013-09-21 21:16:00,
2013-09-21 15:17:00,72.9,48.5,29.91,East,86,11.0,13.0,42,0.00,,SKC,0.00,VWS V14.01,2013-09-21 21:17:00,
2013-09-21 15:18:00,73.0,48.6,29.91,East,79,13.0,15.0,42,0.00,,SKC,0.00,VWS V14.01,2013-09-21 21:18:00,
2013-09-21 15:19:00,73.1,48.0,29.91,East,98,15.0,15.0,41,0.00,,SKC,0.00,VWS V14.01,2013-09-21 21:19:00,
2013-09-21 15:20:00,73.1,48.0,29.92,SE,140,9.0,15.0,41,0.00,,SKC,0.00,VWS V14.01,2013-09-21 21:20:00,
2013-09-21 15:21:00,73.2,47.5,29.91,East,101,8.0,10.0,40,0.00,,SKC,0.00,VWS V14.01,2013-09-21 21:21:00,
2013-09-21 15:22:00,73.3,48.2,29.91,East,86,5.0,9.0,41,0.00,,SKC,0.00,VWS V14.01,2013-09-21 21:22:00,
2013-09-21 15:23:00,73.3,47.5,29.91,East,82,9.0,9.0,40,0.00,,SKC,0.00,VWS V14.01,2013-09-21 21:23:00,
2013-09-21 15:24:00,73.3,47.5,29.91,East,94,9.0,16.0,40,0.00,,SKC,0.00,VWS V14.01,2013-09-21 21:24:00,
2013-09-21 15:25:00,73.3,48.8,29.91,East,86,9.0,9.0,42,0.00,,SKC,0.00,VWS V14.01,2013-09-21 21:25:00,
2013-09-21 15:26:00,73.3,48.2,29.91,SE,128,9.0,10.0,41,0.00,,SKC,0.00,VWS V14.01,2013-09-21 21:26:00,
2013-09-21 15:27:00,73.4,48.9,29.91,ESE,118,8.0,9.0,42,0.00,,SKC,0.00,VWS V14.01,2013-09-21 21:27:00,
2013-09-21 15:28:00,73.4,48.3,29.91,East,100,8.0,11.0,41,0.00,,SKC,0.00,VWS V14.01,2013-09-21 21:28:00,
2013-09-21 15:29:00,73.5,49.0,29.90,East,100,9.0,10.0,42,0.00,,SKC,0.00,VWS V14.01,2013-09-21 21:29:00,
2013-09-21 15:30:00,73.6,47.8,29.91,ESE,107,7.0,13.0,40,0.00,,SKC,0.00,VWS V14.01,2013-09-21 21:30:00,
2013-09-21 15:31:00,73.7,48.6,29.91,East,96,12.0,12.0,41,0.00,,SKC,0.00,VWS V14.01,2013-09-21 21:31:00,
2013-09-21 15:32:00,73.8,48.0,29.90,East,92,10.0,12.0,40,0.00,,SKC,0.00,VWS V14.01,2013-09-21 21:32:00,
2013-09-21 15:33:00,73.9,48.1,29.91,ESE,107,7.0,13.0,40,0.00,,SKC,0.00,VWS V14.01,2013-09-21 21:33:00,
2013-09-21 15:34:00,74.0,49.5,29.91,ESE,105,10.0,11.0,42,0.00,,SKC,0.00,VWS V14.01,2013-09-21 21:34:00,
2013-09-21 15:35:00,74.0,48.8,29.91,North,360,7.0,11.0,41,0.00,,SKC,0.00,VWS V14.01,2013-09-21 21:35:00,
2013-09-21 15:36:00,74.1,48.9,29.90,East,94,6.0,11.0,41,0.00,,SKC,0.00,VWS V14.01,2013-09-21 21:36:00,
2013-09-21 15:37:00,74.1,47.6,29.90,East,90,7.0,12.0,39,0.00,,SKC,0.00,VWS V14.01,2013-09-21 21:37:00,
2013-09-21 15:38:00,74.1,47.6,29.91,East,88,10.0,10.0,39,0.00,,SKC,0.00,VWS V14.01,2013-09-21 21:38:00,
2013-09-21 15:39:00,74.0,47.5,29.90,East,90,6.0,10.0,39,0.00,,SKC,0.00,VWS V14.01,2013-09-21 21:39:00,
2013-09-21 15:40:00,73.8,47.3,29.91,ESE,111,6.0,9.0,39,0.00,,SKC,0.00,VWS V14.01,2013-09-21 21:40:00,
2013-09-21 15:41:00,73.6,47.8,29.91,ESE,115,4.0,7.0,40,0.00,,SKC,0.00,VWS V14.01,2013-09-21 21:41:00,
2013-09-21 15:42:00,73.5,47.7,29.90,ESE,114,8.0,10.0,40,0.00,,SKC,0.00,VWS V14.01,2013-09-21 21:42:00,
2013-09-21 15:43:00,73.2,48.1,29.90,East,96,8.0,10.0,41,0.00,,SKC,0.00,VWS V14.01,2013-09-21 21:43:00,
2013-09-21 15:44:00,73.1,48.0,29.91,North,360,7.0,10.0,41,0.00,,SKC,0.00,VWS V14.01,2013-09-21 21:44:00,
2013-09-21 15:45:00,73.0,47.9,29.91,East,99,7.0,9.0,41,0.00,,SKC,0.00,VWS V14.01,2013-09-21 21:45:00,
2013-09-21 15:46:00,72.9,49.1,29.91,East,90,7.0,7.0,43,0.00,,SKC,0.00,VWS V14.01,2013-09-21 21:46:00,
2013-09-21 15:47:00,72.8,48.4,29.91,East,93,8.0,8.0,42,0.00,,SKC,0.00,VWS V14.01,2013-09-21 21:47:00,
2013-09-21 15:48:00,72.8,48.4,29.90,East,88,5.0,8.0,42,0.00,,SKC,0.00,VWS V14.01,2013-09-21 21:48:00,
2013-09-21 15:49:00,72.8,48.4,29.90,ESE,107,4.0,6.0,42,0.00,,SKC,0.00,VWS V14.01,2013-09-21 21:49:00,
2013-09-21 15:50:00,72.7,48.3,29.90,ESE,105,9.0,9.0,42,0.00,,SKC,0.00,VWS V14.01,2013-09-21 21:50:00,
2013-09-21 15:51:00,72.6,48.8,29.90,East,94,2.0,9.0,43,0.00,,SKC,0.00,VWS V14.01,2013-09-21 21:51:00,
2013-09-21 15:52:00,72.5,48.8,29.90,East,89,5.0,6.0,43,0.00,,SKC,0.00,VWS V14.01,2013-09-21 21:52:00,
2013-09-21 15:53:00,72.4,47.4,29.90,East,96,4.0,6.0,41,0.00,,SKC,0.00,VWS V14.01,2013-09-21 21:53:00,
2013-09-21 15:54:00,72.2,47.2,29.90,ESE,103,4.0,9.0,41,0.00,,SKC,0.00,VWS V14.01,2013-09-21 21:54:00,
2013-09-21 15:55:00,72.1,47.8,29.90,East,96,5.0,6.0,42,0.00,,SKC,0.00,VWS V14.01,2013-09-21 21:55:00,
2013-09-21 15:56:00,72.0,47.7,29.90,East,98,2.0,5.0,42,0.00,,SKC,0.00,VWS V14.01,2013-09-21 21:56:00,
2013-09-21 15:57:00,72.0,47.0,29.90,ESE,104,4.0,4.0,41,0.00,,SKC,0.00,VWS V14.01,2013-09-21 21:57:00,
2013-09-21 15:58:00,71.9,47.0,29.90,East,88,7.0,7.0,41,0.00,,SKC,0.00,VWS V14.01,2013-09-21 21:58:00,
2013-09-21 15:59:00,71.8,46.9,29.90,East,97,3.0,7.0,41,0.00,,SKC,0.00,VWS V14.01,2013-09-21 21:59:00,
2013-09-21 16:00:00,71.7,47.4,29.90,SE,127,10.0,10.0,42,0.00,,SKC,0.00,VWS V14.01,2013-09-21 22:00:00,
2013-09-21 16:01:00,71.7,48.0,29.90,ESE,113,3.0,10.0,43,0.00,,SKC,0.00,VWS V14.01,2013-09-21 22:01:00,
2013-09-21 16:02:00,71.6,47.3,29.90,SSE,149,4.0,6.0,42,0.00,,SKC,0.00,VWS V14.01,2013-09-21 22:02:00,
2013-09-21 16:03:00,71.6,46.7,29.90,ESE,123,5.0,6.0,41,0.00,,SKC,0.00,VWS V14.01,2013-09-21 22:03:00,
2013-09-21 16:04:00,71.5,47.2,29.90,East,80,5.0,7.0,42,0.00,,SKC,0.00,VWS V14.01,2013-09-21 22:04:00,
2013-09-21 16:05:00,71.4,45.2,29.90,East,89,6.0,7.0,39,0.00,,SKC,0.00,VWS V14.01,2013-09-21 22:05:00,
2013-09-21 16:06:00,71.3,45.8,29.90,ESE,115,10.0,10.0,40,0.00,,SKC,0.00,VWS V14.01,2013-09-21 22:06:00,
2013-09-21 16:07:00,71.3,46.4,29.90,East,94,4.0,10.0,41,0.00,,SKC,0.00,VWS V14.01,2013-09-21 22:07:00,
2013-09-21 16:08:00,71.3,47.0,29.90,East,94,5.0,6.0,42,0.00,,SKC,0.00,VWS V14.01,2013-09-21 22:08:00,
2013-09-21 16:09:00,71.2,46.3,29.90,East,94,3.0,5.0,41,0.00,,SKC,0.00,VWS V14.01,2013-09-21 22:09:00,
2013-09-21 16:10:00,71.1,45.6,29.90,East,98,1.0,5.0,40,0.00,,SKC,0.00,VWS V14.01,2013-09-21 22:10:00,
2013-09-21 16:11:00,71.1,47.5,29.90,East,100,3.0,3.0,43,0.00,,SKC,0.00,VWS V14.01,2013-09-21 22:11:00,
2013-09-21 16:12:00,71.1,47.5,29.90,East,99,1.0,3.0,43,0.00,,SKC,0.00,VWS V14.01,2013-09-21 22:12:00,
2013-09-21 16:13:00,71.0,47.4,29.89,East,94,2.0,2.0,43,0.00,,SKC,0.00,VWS V14.01,2013-09-21 22:13:00,
2013-09-21 16:14:00,71.0,47.4,29.89,East,98,3.0,3.0,43,0.00,,SKC,0.00,VWS V14.01,2013-09-21 22:14:00,
2013-09-21 16:15:00,71.0,48.0,29.89,East,98,2.0,3.0,44,0.00,,SKC,0.00,VWS V14.01,2013-09-21 22:15:00,
2013-09-21 16:16:00,71.1,48.1,29.89,East,95,4.0,4.0,44,0.00,,SKC,0.00,VWS V14.01,2013-09-21 22:16:00,
2013-09-21 16:17:00,71.2,48.2,29.89,East,88,4.0,4.0,44,0.00,,SKC,0.00,VWS V14.01,2013-09-21 22:17:00,
2013-09-21 16:18:00,71.3,48.9,29.89,East,88,5.0,5.0,45,0.00,,SKC,0.00,VWS V14.01,2013-09-21 22:18:00,
2013-09-21 16:19:00,71.3,46.4,29.89,ESE,105,4.0,5.0,41,0.00,,SKC,0.00,VWS V14.01,2013-09-21 22:19:00,
2013-09-21 16:20:00,71.3,47.0,29.89,East,95,5.0,7.0,42,0.00,,SKC,0.00,VWS V14.01,2013-09-21 22:20:00,
2013-09-21 16:21:00,71.3,46.4,29.89,East,100,4.0,9.0,41,0.00,,SKC,0.00,VWS V14.01,2013-09-21 22:21:00,
2013-09-21 16:22:00,71.3,46.4,29.89,East,96,6.0,6.0,41,0.00,,SKC,0.00,VWS V14.01,2013-09-21 22:22:00,
2013-09-21 16:23:00,71.3,46.4,29.89,East,96,3.0,6.0,41,0.00,,SKC,0.00,VWS V14.01,2013-09-21 22:23:00,
2013-09-21 16:24:00,71.4,46.5,29.89,ESE,117,7.0,7.0,41,0.00,,SKC,0.00,VWS V14.01,2013-09-21 22:24:00,
2013-09-21 16:25:00,71.4,47.8,29.89,SE,135,4.0,11.0,43,0.00,,SKC,0.00,VWS V14.01,2013-09-21 22:25:00,
2013-09-21 16:26:00,71.5,45.9,29.89,SE,137,3.0,5.0,40,0.00,,SKC,0.00,VWS V14.01,2013-09-21 22:26:00,
2013-09-21 16:27:00,71.5,46.6,29.89,ESE,117,5.0,6.0,41,0.00,,SKC,0.00,VWS V14.01,2013-09-21 22:27:00,
2013-09-21 16:28:00,71.5,45.9,29.89,ESE,115,2.0,5.0,40,0.00,,SKC,0.00,VWS V14.01,2013-09-21 22:28:00,
2013-09-21 16:29:00,71.5,46.6,29.89,ESE,119,5.0,6.0,41,0.00,,SKC,0.00,VWS V14.01,2013-09-21 22:29:00,
2013-09-21 16:30:00,71.6,47.3,29.89,North,360,4.0,6.0,42,0.00,,SKC,0.00,VWS V14.01,2013-09-21 22:30:00,
2013-09-21 16:31:00,71.7,46.8,29.89,ESE,115,3.0,6.0,41,0.00,,SKC,0.00,VWS V14.01,2013-09-21 22:31:00,
2013-09-21 16:32:00,71.8,45.5,29.89,ESE,113,3.0,6.0,39,0.00,,SKC,0.00,VWS V14.01,2013-09-21 22:32:00,
2013-09-21 16:33:00,71.9,47.0,29.89,ESE,107,4.0,6.0,41,0.00,,SKC,0.00,VWS V14.01,2013-09-21 22:33:00,
2013-09-21 16:34:00,71.9,45.6,29.89,East,86,5.0,6.0,39,0.00,,SKC,0.00,VWS V14.01,2013-09-21 22:34:00,
2013-09-21 16:35:00,71.9,46.3,29.89,East,96,4.0,5.0,40,0.00,,SKC,0.00,VWS V14.01,2013-09-21 22:35:00,
2013-09-21 16:36:00,72.0,46.4,29.89,East,91,2.0,4.0,40,0.00,,SKC,0.00,VWS V14.01,2013-09-21 22:36:00,
2013-09-21 16:37:00,72.0,46.4,29.89,East,90,4.0,7.0,40,0.00,,SKC,0.00,VWS V14.01,2013-09-21 22:37:00,
2013-09-21 16:38:00,71.9,44.9,29.89,East,89,6.0,6.0,38,0.00,,SKC,0.00,VWS V14.01,2013-09-21 22:38:00,
2013-09-21 16:39:00,71.9,45.6,29.89,ESE,115,6.0,6.0,39,0.00,,SKC,0.00,VWS V14.01,2013-09-21 22:39:00,
2013-09-21 16:40:00,71.9,44.9,29.89,ESE,111,4.0,6.0,38,0.00,,SKC,0.00,VWS V14.01,2013-09-21 22:40:00,
2013-09-21 16:41:00,71.8,45.5,29.89,ESE,105,6.0,6.0,39,0.00,,SKC,0.00,VWS V14.01,2013-09-21 22:41:00,
2013-09-21 16:42:00,71.8,44.8,29.89,ENE,71,3.0,6.0,38,0.00,,SKC,0.00,VWS V14.01,2013-09-21 22:42:00,
2013-09-21 16:43:00,71.7,44.8,29.89,ENE,65,3.0,6.0,38,0.00,,SKC,0.00,VWS V14.01,2013-09-21 22:43:00,
2013-09-21 16:44:00,71.7,44.8,29.89,ENE,71,4.0,5.0,38,0.00,,SKC,0.00,VWS V14.01,2013-09-21 22:44:00,
2013-09-21 16:45:00,71.6,44.7,29.89,East,95,6.0,6.0,38,0.00,,SKC,0.00,VWS V14.01,2013-09-21 22:45:00,
2013-09-21 16:46:00,71.6,45.4,29.89,East,96,4.0,6.0,39,0.00,,SKC,0.00,VWS V14.01,2013-09-21 22:46:00,
2013-09-21 16:47:00,71.5,44.6,29.88,East,89,2.0,4.0,38,0.00,,SKC,0.00,VWS V14.01,2013-09-21 22:47:00,
2013-09-21 16:48:00,71.5,44.6,29.89,East,95,2.0,3.0,38,0.00,,SKC,0.00,VWS V14.01,2013-09-21 22:48:00,
2013-09-21 16:49:00,71.4,45.8,29.88,East,93,1.0,4.0,40,0.00,,SKC,0.00,VWS V14.01,2013-09-21 22:49:00,
2013-09-21 16:50:00,71.3,45.8,29.89,East,101,5.0,5.0,40,0.00,,SKC,0.00,VWS V14.01,2013-09-21 22:50:00,
2013-09-21 16:51:00,71.3,45.1,29.88,East,94,9.0,9.0,39,0.00,,SKC,0.00,VWS V14.01,2013-09-21 22:51:00,
2013-09-21 16:52:00,71.2,45.0,29.88,ESE,105,2.0,9.0,39,0.00,,SKC,0.00,VWS V14.01,2013-09-21 22:52:00,
2013-09-21 16:53:00,71.1,45.6,29.88,ESE,106,2.0,3.0,40,0.00,,SKC,0.00,VWS V14.01,2013-09-21 22:53:00,
2013-09-21 16:54:00,71.0,44.8,29.88,ESE,104,4.0,5.0,39,0.00,,SKC,0.00,VWS V14.01,2013-09-21 22:54:00,
2013-09-21 16:55:00,71.0,44.8,29.88,ESE,104,3.0,4.0,39,0.00,,SKC,0.00,VWS V14.01,2013-09-21 22:55:00,
2013-09-21 16:56:00,70.9,44.0,29.88,East,101,4.0,5.0,38,0.00,,SKC,0.00,VWS V14.01,2013-09-21 22:56:00,
2013-09-21 16:57:00,70.8,44.6,29.88,East,101,4.0,5.0,39,0.00,,SKC,0.00,VWS V14.01,2013-09-21 22:57:00,
2013-09-21 16:58:00,70.8,45.3,29.88,East,90,4.0,6.0,40,0.00,,SKC,0.00,VWS V14.01,2013-09-21 22:58:00,
2013-09-21 16:59:00,70.7,45.2,29.88,East,94,3.0,4.0,40,0.00,,SKC,0.00,VWS V14.01,2013-09-21 22:59:00,
2013-09-21 17:00:00,70.6,45.1,29.88,East,89,3.0,4.0,40,0.00,,SKC,0.00,VWS V14.01,2013-09-21 23:00:00,
2013-09-21 17:01:00,70.6,44.5,29.88,East,92,5.0,6.0,39,0.00,,SKC,0.00,VWS V14.01,2013-09-21 23:01:00,
2013-09-21 17:02:00,70.5,44.4,29.88,ESE,103,4.0,8.0,39,0.00,,SKC,0.00,VWS V14.01,2013-09-21 23:02:00,
2013-09-21 17:03:00,70.4,45.0,29.88,East,90,3.0,6.0,40,0.00,,SKC,0.00,VWS V14.01,2013-09-21 23:03:00,
2013-09-21 17:04:00,70.3,44.2,29.88,East,90,2.0,5.0,39,0.00,,SKC,0.00,VWS V14.01,2013-09-21 23:04:00,
2013-09-21 17:05:00,70.3,44.9,29.88,East,93,2.0,4.0,40,0.00,,SKC,0.00,VWS V14.01,2013-09-21 23:05:00,
2013-09-21 17:06:00,70.3,44.2,29.88,East,91,3.0,4.0,39,0.00,,SKC,0.00,VWS V14.01,2013-09-21 23:06:00,
2013-09-21 17:07:00,70.3,44.9,29.88,East,98,7.0,7.0,40,0.00,,SKC,0.00,VWS V14.01,2013-09-21 23:07:00,
2013-09-21 17:08:00,70.2,44.8,29.88,East,88,6.0,9.0,40,0.00,,SKC,0.00,VWS V14.01,2013-09-21 23:08:00,
2013-09-21 17:09:00,70.3,44.2,29.88,East,82,3.0,7.0,39,0.00,,SKC,0.00,VWS V14.01,2013-09-21 23:09:00,
2013-09-21 17:10:00,70.3,44.2,29.88,North,360,3.0,5.0,39,0.00,,SKC,0.00,VWS V14.01,2013-09-21 23:10:00,
2013-09-21 17:11:00,70.3,44.2,29.88,East,83,2.0,5.0,39,0.00,,SKC,0.00,VWS V14.01,2013-09-21 23:11:00,
2013-09-21 17:12:00,70.3,44.9,29.88,East,88,1.0,2.0,40,0.00,,SKC,0.00,VWS V14.01,2013-09-21 23:12:00,
2013-09-21 17:13:00,70.4,45.0,29.88,East,84,2.0,3.0,40,0.00,,SKC,0.00,VWS V14.01,2013-09-21 23:13:00,
2013-09-21 17:14:00,70.4,44.3,29.88,East,83,3.0,4.0,39,0.00,,SKC,0.00,VWS V14.01,2013-09-21 23:14:00,
2013-09-21 17:15:00,70.4,45.0,29.88,East,82,2.0,5.0,40,0.00,,SKC,0.00,VWS V14.01,2013-09-21 23:15:00,
2013-09-21 17:16:00,70.4,45.0,29.88,East,86,1.0,2.0,40,0.00,,SKC,0.00,VWS V14.01,2013-09-21 23:16:00,
2013-09-21 17:17:00,70.5,45.7,29.88,East,86,2.0,2.0,41,0.00,,SKC,0.00,VWS V14.01,2013-09-21 23:17:00,
2013-09-21 17:18:00,70.5,45.0,29.88,East,86,0.0,3.0,40,0.00,,SKC,0.00,VWS V14.01,2013-09-21 23:18:00,
2013-09-21 17:19:00,70.6,44.5,29.88,East,87,2.0,2.0,39,0.00,,SKC,0.00,VWS V14.01,2013-09-21 23:19:00,
2013-09-21 17:20:00,70.6,43.1,29.88,East,88,1.0,3.0,37,0.00,,SKC,0.00,VWS V14.01,2013-09-21 23:20:00,
2013-09-21 17:21:00,70.7,43.9,29.88,East,86,2.0,2.0,38,0.00,,SKC,0.00,VWS V14.01,2013-09-21 23:21:00,
2013-09-21 17:22:00,70.8,45.3,29.88,East,88,1.0,2.0,40,0.00,,SKC,0.00,VWS V14.01,2013-09-21 23:22:00,
2013-09-21 17:23:00,70.9,44.7,29.88,East,84,1.0,2.0,39,0.00,,SKC,0.00,VWS V14.01,2013-09-21 23:23:00,
2013-09-21 17:24:00,71.0,44.8,29.88,NNE,32,2.0,3.0,39,0.00,,SKC,0.00,VWS V14.01,2013-09-21 23:24:00,
2013-09-21 17:25:00,71.1,43.5,29.88,ENE,62,3.0,4.0,37,0.00,,SKC,0.00,VWS V14.01,2013-09-21 23:25:00,
2013-09-21 17:26:00,71.2,44.3,29.88,ENE,57,1.0,3.0,38,0.00,,SKC,0.00,VWS V14.01,2013-09-21 23:26:00,
2013-09-21 17:27:00,71.3,45.1,29.88,ENE,57,3.0,3.0,39,0.00,,SKC,0.00,VWS V14.01,2013-09-21 23:27:00,
2013-09-21 17:28:00,71.3,43.7,29.88,East,84,4.0,5.0,37,0.00,,SKC,0.00,VWS V14.01,2013-09-21 23:28:00,
2013-09-21 17:29:00,71.5,44.6,29.88,East,88,4.0,5.0,38,0.00,,SKC,0.00,VWS V14.01,2013-09-21 23:29:00,
2013-09-21 17:30:00,71.6,44.0,29.88,ESE,107,5.0,5.0,37,0.00,,SKC,0.00,VWS V14.01,2013-09-21 23:30:00,
2013-09-21 17:31:00,71.7,44.1,29.88,ESE,104,4.0,6.0,37,0.00,,SKC,0.00,VWS V14.01,2013-09-21 23:31:00,
2013-09-21 17:32:00,71.8,44.8,29.88,East,101,2.0,4.0,38,0.00,,SKC,0.00,VWS V14.01,2013-09-21 23:32:00,
2013-09-21 17:33:00,71.9,44.9,29.88,East,99,2.0,5.0,38,0.00,,SKC,0.00,VWS V14.01,2013-09-21 23:33:00,
2013-09-21 17:34:00,72.0,45.0,29.88,North,360,3.0,4.0,38,0.00,,SKC,0.00,VWS V14.01,2013-09-21 23:34:00,
2013-09-21 17:35:00,72.1,43.7,29.88,East,101,1.0,3.0,36,0.00,,SKC,0.00,VWS V14.01,2013-09-21 23:35:00,
2013-09-21 17:36:00,72.1,45.1,29.88,ESE,103,0.0,3.0,38,0.00,,SKC,0.00,VWS V14.01,2013-09-21 23:36:00,
2013-09-21 17:37:00,72.2,44.5,29.88,ESE,104,1.0,2.0,37,0.00,,SKC,0.00,VWS V14.01,2013-09-21 23:37:00,
2013-09-21 17:38:00,72.2,44.5,29.88,ESE,103,2.0,2.0,37,0.00,,SKC,0.00,VWS V14.01,2013-09-21 23:38:00,
2013-09-21 17:39:00,72.2,45.2,29.88,East,97,2.0,2.0,38,0.00,,SKC,0.00,VWS V14.01,2013-09-21 23:39:00,
2013-09-21 17:40:00,72.3,46.0,29.88,East,100,0.0,2.0,39,0.00,,SKC,0.00,VWS V14.01,2013-09-21 23:40:00,
2013-09-21 17:41:00,72.4,45.4,29.88,ESE,104,0.0,0.0,38,0.00,,SKC,0.00,VWS V14.01,2013-09-21 23:41:00,
2013-09-21 17:42:00,72.5,46.2,29.88,ESE,105,1.0,1.0,39,0.00,,SKC,0.00,VWS V14.01,2013-09-21 23:42:00,
2013-09-21 17:43:00,72.5,46.2,29.88,ESE,103,1.0,1.0,39,0.00,,SKC,0.00,VWS V14.01,2013-09-21 23:43:00,
2013-09-21 17:44:00,72.6,47.6,29.88,ESE,102,0.0,1.0,41,0.00,,SKC,0.00,VWS V14.01,2013-09-21 23:44:00,
2013-09-21 17:45:00,72.6,46.9,29.88,East,98,0.0,0.0,40,0.00,,SKC,0.00,VWS V14.01,2013-09-21 23:45:00,
2013-09-21 17:46:00,72.7,45.7,29.88,East,100,1.0,1.0,38,0.00,,SKC,0.00,VWS V14.01,2013-09-21 23:46:00,
2013-09-21 17:47:00,72.7,45.7,29.88,ESE,103,1.0,4.0,38,0.00,,SKC,0.00,VWS V14.01,2013-09-21 23:47:00,
2013-09-21 17:48:00,72.8,47.1,29.88,East,101,0.0,2.0,40,0.00,,SKC,0.00,VWS V14.01,2013-09-21 23:48:00,
2013-09-21 17:49:00,72.8,45.7,29.88,ESE,103,0.0,1.0,38,0.00,,SKC,0.00,VWS V14.01,2013-09-21 23:49:00,
2013-09-21 17:50:00,72.8,45.0,29.88,ESE,103,0.0,0.0,37,0.00,,SKC,0.00,VWS V14.01,2013-09-21 23:50:00,
2013-09-21 17:51:00,72.7,44.2,29.87,ESE,105,0.0,0.0,36,0.00,,SKC,0.00,VWS V14.01,2013-09-21 23:51:00,
2013-09-21 17:52:00,72.7,44.2,29.88,East,101,0.0,0.0,36,0.00,,SKC,0.00,VWS V14.01,2013-09-21 23:52:00,
2013-09-21 17:53:00,72.7,44.2,29.87,East,101,0.0,0.0,36,0.00,,SKC,0.00,VWS V14.01,2013-09-21 23:53:00,
2013-09-21 17:54:00,72.7,47.0,29.87,East,101,0.0,0.0,40,0.00,,SKC,0.00,VWS V14.01,2013-09-21 23:54:00,
2013-09-21 17:55:00,72.6,46.2,29.87,ESE,103,0.0,0.0,39,0.00,,SKC,0.00,VWS V14.01,2013-09-21 23:55:00,
2013-09-21 17:56:00,72.5,44.8,29.88,ESE,103,0.0,0.0,37,0.00,,SKC,0.00,VWS V14.01,2013-09-21 23:56:00,
2013-09-21 17:57:00,72.4,44.7,29.88,East,101,0.0,0.0,37,0.00,,SKC,0.00,VWS V14.01,2013-09-21 23:57:00,
2013-09-21 17:58:00,72.3,43.9,29.88,East,98,0.0,0.0,36,0.00,,SKC,0.00,VWS V14.01,2013-09-21 23:58:00,
2013-09-21 17:59:00,72.2,44.5,29.88,East,98,0.0,0.0,37,0.00,,SKC,0.00,VWS V14.01,2013-09-21 23:59:00,
2013-09-21 18:00:00,72.1,45.8,29.87,ESE,107,0.0,0.0,39,0.00,,SKC,0.00,VWS V14.01,2013-09-22 00:00:00,
2013-09-21 18:01:00,72.0,44.3,29.88,East,100,0.0,0.0,37,0.00,,SKC,0.00,VWS V14.01,2013-09-22 00:01:00,
2013-09-21 18:02:00,71.9,44.9,29.87,East,100,1.0,1.0,38,0.00,,SKC,0.00,VWS V14.01,2013-09-22 00:02:00,
2013-09-21 18:03:00,71.7,45.5,29.87,ESE,107,0.0,1.0,39,0.00,,SKC,0.00,VWS V14.01,2013-09-22 00:03:00,
2013-09-21 18:04:00,71.5,45.9,29.87,ESE,104,0.0,1.0,40,0.00,,SKC,0.00,VWS V14.01,2013-09-22 00:04:00,
2013-09-21 18:05:00,71.2,45.0,29.87,ESE,108,0.0,1.0,39,0.00,,SKC,0.00,VWS V14.01,2013-09-22 00:05:00,
2013-09-21 18:06:00,71.0,46.1,29.87,East,101,1.0,1.0,41,0.00,,SKC,0.00,VWS V14.01,2013-09-22 00:06:00,
2013-09-21 18:07:00,70.7,46.5,29.87,East,98,1.0,2.0,42,0.00,,SKC,0.00,VWS V14.01,2013-09-22 00:07:00,
2013-09-21 18:08:00,70.5,46.3,29.87,ESE,107,1.0,2.0,42,0.00,,SKC,0.00,VWS V14.01,2013-09-22 00:08:00,
2013-09-21 18:09:00,70.3,45.5,29.87,ESE,104,1.0,2.0,41,0.00,,SKC,0.00,VWS V14.01,2013-09-22 00:09:00,
2013-09-21 18:10:00,70.2,45.4,29.87,ESE,102,0.0,1.0,41,0.00,,SKC,0.00,VWS V14.01,2013-09-22 00:10:00,
2013-09-21 18:11:00,70.0,45.2,29.87,ESE,105,0.0,1.0,41,0.00,,SKC,0.00,VWS V14.01,2013-09-22 00:11:00,
2013-09-21 18:12:00,69.9,45.2,29.87,ESE,104,1.0,1.0,41,0.00,,SKC,0.00,VWS V14.01,2013-09-22 00:12:00,
2013-09-21 18:13:00,69.8,46.3,29.87,ESE,105,0.0,2.0,43,0.00,,SKC,0.00,VWS V14.01,2013-09-22 00:13:00,
2013-09-21 18:14:00,69.7,48.0,29.87,ESE,103,0.0,1.0,46,0.00,,SKC,0.00,VWS V14.01,2013-09-22 00:14:00,
2013-09-21 18:15:00,69.6,48.5,29.87,East,97,0.0,0.0,47,0.00,,SKC,0.00,VWS V14.01,2013-09-22 00:15:00,
2013-09-21 18:16:00,69.5,49.5,29.87,ESE,105,0.0,0.0,49,0.00,,SKC,0.00,VWS V14.01,2013-09-22 00:16:00,
2013-09-21 18:17:00,69.5,49.5,29.87,ESE,103,0.0,0.0,49,0.00,,SKC,0.00,VWS V14.01,2013-09-22 00:17:00,
2013-09-21 18:18:00,69.5,49.5,29.87,East,99,0.0,0.0,49,0.00,,SKC,0.00,VWS V14.01,2013-09-22 00:18:00,
2013-09-21 18:19:00,69.4,49.4,29.87,East,101,0.0,1.0,49,0.00,,SKC,0.00,VWS V14.01,2013-09-22 00:19:00,
2013-09-21 18:20:00,69.4,49.4,29.87,ESE,102,0.0,1.0,49,0.00,,SKC,0.00,VWS V14.01,2013-09-22 00:20:00,
2013-09-21 18:21:00,69.3,49.3,29.87,ESE,105,0.0,1.0,49,0.00,,SKC,0.00,VWS V14.01,2013-09-22 00:21:00,
2013-09-21 18:22:00,69.2,49.2,29.87,East,101,0.0,0.0,49,0.00,,SKC,0.00,VWS V14.01,2013-09-22 00:22:00,
2013-09-21 18:23:00,69.2,49.2,29.87,East,101,0.0,0.0,49,0.00,,SKC,0.00,VWS V14.01,2013-09-22 00:23:00,
2013-09-21 18:24:00,69.1,49.7,29.87,ESE,102,0.0,0.0,50,0.00,,SKC,0.00,VWS V14.01,2013-09-22 00:24:00,
2013-09-21 18:25:00,69.0,50.1,29.87,East,101,0.0,0.0,51,0.00,,SKC,0.00,VWS V14.01,2013-09-22 00:25:00,
2013-09-21 18:26:00,69.0,50.1,29.87,ESE,105,0.0,0.0,51,0.00,,SKC,0.00,VWS V14.01,2013-09-22 00:26:00,
2013-09-21 18:27:00,68.9,50.0,29.87,East,101,0.0,0.0,51,0.00,,SKC,0.00,VWS V14.01,2013-09-22 00:27:00,
2013-09-21 18:28:00,68.8,50.0,29.87,ESE,102,0.0,0.0,51,0.00,,SKC,0.00,VWS V14.01,2013-09-22 00:28:00,
2013-09-21 18:29:00,68.7,49.9,29.87,East,98,0.0,0.0,51,0.00,,SKC,0.00,VWS V14.01,2013-09-22 00:29:00,
2013-09-21 18:30:00,68.6,48.7,29.87,East,96,0.0,0.0,49,0.00,,SKC,0.00,VWS V14.01,2013-09-22 00:30:00,
2013-09-21 18:31:00,68.5,48.6,29.87,ESE,102,0.0,1.0,49,0.00,,SKC,0.00,VWS V14.01,2013-09-22 00:31:00,
2013-09-21 18:32:00,68.3,47.3,29.87,East,101,1.0,1.0,47,0.00,,SKC,0.00,VWS V14.01,2013-09-22 00:32:00,
2013-09-21 18:33:00,68.1,46.6,29.87,ESE,105,2.0,2.0,46,0.00,,SKC,0.00,VWS V14.01,2013-09-22 00:33:00,
2013-09-21 18:34:00,67.9,46.4,29.87,ESE,103,2.0,2.0,46,0.00,,SKC,0.00,VWS V14.01,2013-09-22 00:34:00,
2013-09-21 18:35:00,67.7,46.2,29.87,East,98,0.0,2.0,46,0.00,,SKC,0.00,VWS V14.01,2013-09-22 00:35:00,
2013-09-21 18:36:00,67.6,46.7,29.86,East,100,0.0,1.0,47,0.00,,SKC,0.00,VWS V14.01,2013-09-22 00:36:00,
2013-09-21 18:37:00,67.4,47.0,29.86,East,101,0.0,1.0,48,0.00,,SKC,0.00,VWS V14.01,2013-09-22 00:37:00,
2013-09-21 18:38:00,67.2,46.9,29.87,ESE,106,0.0,1.0,48,0.00,,SKC,0.00,VWS V14.01,2013-09-22 00:38:00,
2013-09-21 18:39:00,67.1,47.3,29.87,East,101,1.0,1.0,49,0.00,,SKC,0.00,VWS V14.01,2013-09-22 00:39:00,
2013-09-21 18:40:00,66.9,47.1,29.87,ESE,102,1.0,2.0,49,0.00,,SKC,0.00,VWS V14.01,2013-09-22 00:40:00,
2013-09-21 18:41:00,66.8,47.6,29.87,ESE,102,1.0,1.0,50,0.00,,SKC,0.00,VWS V14.01,2013-09-22 00:41:00,
2013-09-21 18:42:00,66.6,46.9,29.87,ESE,104,0.0,1.0,49,0.00,,SKC,0.00,VWS V14.01,2013-09-22 00:42:00,
2013-09-21 18:43:00,66.5,46.8,29.87,East,101,0.0,1.0,49,0.00,,SKC,0.00,VWS V14.01,2013-09-22 00:43:00,
2013-09-21 18:44:00,66.3,46.6,29.86,ESE,107,0.0,0.0,49,0.00,,SKC,0.00,VWS V14.01,2013-09-22 00:44:00,
2013-09-21 18:45:00,66.2,46.5,29.87,East,99,0.0,0.0,49,0.00,,SKC,0.00,VWS V14.01,2013-09-22 00:45:00,
2013-09-21 18:46:00,66.0,46.3,29.86,East,101,0.0,0.0,49,0.00,,SKC,0.00,VWS V14.01,2013-09-22 00:46:00,
2013-09-21 18:47:00,65.9,46.2,29.87,East,97,0.0,0.0,49,0.00,,SKC,0.00,VWS V14.01,2013-09-22 00:47:00,
2013-09-21 18:48:00,65.8,46.1,29.86,East,98,0.0,0.0,49,0.00,,SKC,0.00,VWS V14.01,2013-09-22 00:48:00,
2013-09-21 18:49:00,65.7,46.0,29.86,ESE,103,0.0,0.0,49,0.00,,SKC,0.00,VWS V14.01,2013-09-22 00:49:00,
2013-09-21 18:50:00,65.6,46.0,29.86,East,101,0.0,1.0,49,0.00,,SKC,0.00,VWS V14.01,2013-09-22 00:50:00,
2013-09-21 18:51:00,65.5,47.4,29.86,ESE,105,1.0,2.0,52,0.00,,SKC,0.00,VWS V14.01,2013-09-22 00:51:00,
2013-09-21 18:52:00,65.5,47.9,29.86,ESE,106,0.0,1.0,53,0.00,,SKC,0.00,VWS V14.01,2013-09-22 00:52:00,
2013-09-21 18:53:00,65.4,47.3,29.86,ESE,104,0.0,0.0,52,0.00,,SKC,0.00,VWS V14.01,2013-09-22 00:53:00,
2013-09-21 18:54:00,65.3,47.2,29.86,East,101,0.0,0.0,52,0.00,,SKC,0.00,VWS V14.01,2013-09-22 00:54:00,
2013-09-21 18:55:00,65.3,47.2,29.86,ESE,103,0.0,0.0,52,0.00,,SKC,0.00,VWS V14.01,2013-09-22 00:55:00,
2013-09-21 18:56:00,65.2,47.2,29.86,East,101,0.0,0.0,52,0.00,,SKC,0.00,VWS V14.01,2013-09-22 00:56:00,
2013-09-21 18:57:00,65.1,47.1,29.86,ESE,104,0.0,0.0,52,0.00,,SKC,0.00,VWS V14.01,2013-09-22 00:57:00,
2013-09-21 18:58:00,65.1,47.6,29.87,ESE,106,0.0,0.0,53,0.00,,SKC,0.00,VWS V14.01,2013-09-22 00:58:00,
2013-09-21 18:59:00,65.0,47.5,29.87,ESE,103,0.0,0.0,53,0.00,,SKC,0.00,VWS V14.01,2013-09-22 00:59:00,
2013-09-21 19:00:00,65.0,48.0,29.86,ESE,102,0.0,0.0,54,0.00,,SKC,0.00,VWS V14.01,2013-09-22 01:00:00,
2013-09-21 19:01:00,64.9,47.9,29.87,East,101,0.0,1.0,54,0.00,,SKC,0.00,VWS V14.01,2013-09-22 01:01:00,
2013-09-21 19:02:00,64.9,47.9,29.87,ESE,103,0.0,0.0,54,0.00,,SKC,0.00,VWS V14.01,2013-09-22 01:02:00,
2013-09-21 19:03:00,64.8,47.8,29.87,East,98,0.0,0.0,54,0.00,,SKC,0.00,VWS V14.01,2013-09-22 01:03:00,
2013-09-21 19:04:00,64.8,47.8,29.87,East,101,0.0,0.0,54,0.00,,SKC,0.00,VWS V14.01,2013-09-22 01:04:00,
2013-09-21 19:05:00,64.7,47.7,29.87,ESE,102,0.0,0.0,54,0.00,,SKC,0.00,VWS V14.01,2013-09-22 01:05:00,
2013-09-21 19:06:00,64.7,47.7,29.87,ESE,103,0.0,0.0,54,0.00,,SKC,0.00,VWS V14.01,2013-09-22 01:06:00,
2013-09-21 19:07:00,64.6,47.6,29.87,ESE,104,0.0,0.0,54,0.00,,SKC,0.00,VWS V14.01,2013-09-22 01:07:00,
2013-09-21 19:08:00,64.6,48.1,29.87,East,98,0.0,0.0,55,0.00,,SKC,0.00,VWS V14.01,2013-09-22 01:08:00,
2013-09-21 19:09:00,64.5,48.0,29.87,ESE,107,0.0,0.0,55,0.00,,SKC,0.00,VWS V14.01,2013-09-22 01:09:00,
2013-09-21 19:10:00,64.4,47.9,29.86,ESE,103,0.0,0.0,55,0.00,,SKC,0.00,VWS V14.01,2013-09-22 01:10:00,
2013-09-21 19:11:00,64.4,47.9,29.86,ESE,109,0.0,0.0,55,0.00,,SKC,0.00,VWS V14.01,2013-09-22 01:11:00,
2013-09-21 19:12:00,64.3,47.3,29.86,East,101,0.0,0.0,54,0.00,,SKC,0.00,VWS V14.01,2013-09-22 01:12:00,
2013-09-21 19:13:00,64.3,47.8,29.87,ESE,103,0.0,0.0,55,0.00,,SKC,0.00,VWS V14.01,2013-09-22 01:13:00,
2013-09-21 19:14:00,64.2,47.7,29.87,ESE,104,0.0,0.0,55,0.00,,SKC,0.00,VWS V14.01,2013-09-22 01:14:00,
2013-09-21 19:15:00,64.1,47.6,29.87,ESE,103,0.0,0.0,55,0.00,,SKC,0.00,VWS V14.01,2013-09-22 01:15:00,
2013-09-21 19:16:00,64.1,47.6,29.87,East,97,0.0,0.0,55,0.00,,SKC,0.00,VWS V14.01,2013-09-22 01:16:00,
2013-09-21 19:17:00,64.0,47.5,29.87,ESE,107,0.0,0.0,55,0.00,,SKC,0.00,VWS V14.01,2013-09-22 01:17:00,
2013-09-21 19:18:00,63.9,47.4,29.87,ESE,107,0.0,0.0,55,0.00,,SKC,0.00,VWS V14.01,2013-09-22 01:18:00,
2013-09-21 19:19:00,63.8,47.3,29.87,ESE,104,0.0,0.0,55,0.00,,SKC,0.00,VWS V14.01,2013-09-22 01:19:00,
2013-09-21 19:20:00,63.7,47.2,29.87,ESE,103,0.0,0.0,55,0.00,,SKC,0.00,VWS V14.01,2013-09-22 01:20:00,
2013-09-21 19:21:00,63.6,47.2,29.87,East,100,0.0,0.0,55,0.00,,SKC,0.00,VWS V14.01,2013-09-22 01:21:00,
2013-09-21 19:22:00,63.5,46.6,29.87,ESE,103,0.0,0.0,54,0.00,,SKC,0.00,VWS V14.01,2013-09-22 01:22:00,
2013-09-21 19:23:00,63.4,46.5,29.87,ESE,103,0.0,0.0,54,0.00,,SKC,0.00,VWS V14.01,2013-09-22 01:23:00,
2013-09-21 19:24:00,63.3,46.4,29.87,ESE,104,0.0,0.0,54,0.00,,SKC,0.00,VWS V14.01,2013-09-22 01:24:00,
2013-09-21 19:25:00,63.2,45.8,29.87,ESE,103,0.0,2.0,53,0.00,,SKC,0.00,VWS V14.01,2013-09-22 01:25:00,
2013-09-21 19:26:00,63.2,46.3,29.87,ESE,103,0.0,1.0,54,0.00,,SKC,0.00,VWS V14.01,2013-09-22 01:26:00,
2013-09-21 19:27:00,63.1,46.2,29.87,ESE,104,1.0,1.0,54,0.00,,SKC,0.00,VWS V14.01,2013-09-22 01:27:00,
2013-09-21 19:28:00,63.0,45.6,29.87,East,101,0.0,1.0,53,0.00,,SKC,0.00,VWS V14.01,2013-09-22 01:28:00,
2013-09-21 19:29:00,62.9,45.5,29.87,ESE,102,1.0,1.0,53,0.00,,SKC,0.00,VWS V14.01,2013-09-22 01:29:00,
2013-09-21 19:30:00,62.9,45.0,29.87,ESE,103,1.0,2.0,52,0.00,,SKC,0.00,VWS V14.01,2013-09-22 01:30:00,
2013-09-21 19:31:00,62.9,45.5,29.87,ESE,107,1.0,2.0,53,0.00,,SKC,0.00,VWS V14.01,2013-09-22 01:31:00,
2013-09-21 19:32:00,62.8,45.4,29.87,ESE,103,0.0,1.0,53,0.00,,SKC,0.00,VWS V14.01,2013-09-22 01:32:00,
2013-09-21 19:33:00,62.8,46.9,29.87,ESE,103,0.0,1.0,56,0.00,,SKC,0.00,VWS V14.01,2013-09-22 01:33:00,
2013-09-21 19:34:00,62.7,46.8,29.87,East,101,0.0,0.0,56,0.00,,SKC,0.00,VWS V14.01,2013-09-22 01:34:00,
2013-09-21 19:35:00,62.7,46.3,29.87,ESE,103,1.0,1.0,55,0.00,,SKC,0.00,VWS V14.01,2013-09-22 01:35:00,
2013-09-21 19:36:00,62.6,46.7,29.87,East,99,1.0,1.0,56,0.00,,SKC,0.00,VWS V14.01,2013-09-22 01:36:00,
2013-09-21 19:37:00,62.6,47.2,29.87,ESE,106,0.0,1.0,57,0.00,,SKC,0.00,VWS V14.01,2013-09-22 01:37:00,
2013-09-21 19:38:00,62.6,47.2,29.87,East,99,0.0,0.0,57,0.00,,SKC,0.00,VWS V14.01,2013-09-22 01:38:00,
2013-09-21 19:39:00,62.5,47.1,29.87,East,101,0.0,0.0,57,0.00,,SKC,0.00,VWS V14.01,2013-09-22 01:39:00,
2013-09-21 19:40:00,62.5,46.6,29.87,ESE,102,0.0,1.0,56,0.00,,SKC,0.00,VWS V14.01,2013-09-22 01:40:00,
2013-09-21 19:41:00,62.5,47.1,29.87,ESE,103,0.0,0.0,57,0.00,,SKC,0.00,VWS V14.01,2013-09-22 01:41:00,
2013-09-21 19:42:00,62.4,47.0,29.87,ESE,104,1.0,1.0,57,0.00,,SKC,0.00,VWS V14.01,2013-09-22 01:42:00,
2013-09-21 19:43:00,62.4,47.0,29.87,East,95,0.0,1.0,57,0.00,,SKC,0.00,VWS V14.01,2013-09-22 01:43:00,
2013-09-21 19:44:00,62.3,47.3,29.87,ESE,102,0.0,1.0,58,0.00,,SKC,0.00,VWS V14.01,2013-09-22 01:44:00,
2013-09-21 19:45:00,62.3,47.3,29.87,ESE,103,0.0,1.0,58,0.00,,SKC,0.00,VWS V14.01,2013-09-22 01:45:00,
2013-09-21 19:46:00,62.2,47.3,29.87,East,101,0.0,1.0,58,0.00,,SKC,0.00,VWS V14.01,2013-09-22 01:46:00,
2013-09-21 19:47:00,62.2,46.8,29.87,East,98,0.0,1.0,57,0.00,,SKC,0.00,VWS V14.01,2013-09-22 01:47:00,
2013-09-21 19:48:00,62.1,46.7,29.87,East,97,0.0,1.0,57,0.00,,SKC,0.00,VWS V14.01,2013-09-22 01:48:00,
2013-09-21 19:49:00,62.1,46.7,29.87,East,97,0.0,1.0,57,0.00,,SKC,0.00,VWS V14.01,2013-09-22 01:49:00,
2013-09-21 19:50:00,62.0,46.6,29.87,East,101,0.0,0.0,57,0.00,,SKC,0.00,VWS V14.01,2013-09-22 01:50:00,
2013-09-21 19:51:00,62.0,46.6,29.87,ESE,103,0.0,0.0,57,0.00,,SKC,0.00,VWS V14.01,2013-09-22 01:51:00,
2013-09-21 19:52:00,61.9,46.0,29.87,East,101,0.0,0.0,56,0.00,,SKC,0.00,VWS V14.01,2013-09-22 01:52:00,
2013-09-21 19:53:00,61.8,46.4,29.87,ESE,103,0.0,0.0,57,0.00,,SKC,0.00,VWS V14.01,2013-09-22 01:53:00,
2013-09-21 19:54:00,61.8,46.4,29.87,East,98,0.0,0.0,57,0.00,,SKC,0.00,VWS V14.01,2013-09-22 01:54:00,
2013-09-21 19:55:00,61.7,46.3,29.87,ESE,105,1.0,1.0,57,0.00,,SKC,0.00,VWS V14.01,2013-09-22 01:55:00,
2013-09-21 19:56:00,61.7,46.3,29.87,East,99,1.0,1.0,57,0.00,,SKC,0.00,VWS V14.01,2013-09-22 01:56:00,
2013-09-21 19:57:00,61.6,45.8,29.87,ESE,103,0.0,1.0,56,0.00,,SKC,0.00,VWS V14.01,2013-09-22 01:57:00,
2013-09-21 19:58:00,61.5,45.7,29.87,East,100,0.0,0.0,56,0.00,,SKC,0.00,VWS V14.01,2013-09-22 01:58:00,
2013-09-21 19:59:00,61.5,44.7,29.87,ESE,103,0.0,1.0,54,0.00,,SKC,0.00,VWS V14.01,2013-09-22 01:59:00,
2013-09-21 20:08:00,61.4,45.6,29.87,ESE,112,0.0,1.0,56,0.00,,SKC,0.00,VWS V14.01,2013-09-22 02:08:00,
2013-09-21 20:09:00,61.3,44.0,29.87,ESE,103,0.0,0.0,53,0.00,,SKC,0.00,VWS V14.01,2013-09-22 02:09:00,
2013-09-21 20:10:00,61.2,44.0,29.87,ESE,103,0.0,0.0,53,0.00,,SKC,0.00,VWS V14.01,2013-09-22 02:10:00,
2013-09-21 20:11:00,61.2,44.0,29.87,East,101,1.0,1.0,53,0.00,,SKC,0.00,VWS V14.01,2013-09-22 02:11:00,
2013-09-21 20:12:00,61.1,43.9,29.87,East,101,0.0,2.0,53,0.00,,SKC,0.00,VWS V14.01,2013-09-22 02:12:00,
2013-09-21 20:13:00,61.1,43.9,29.87,ESE,102,0.0,2.0,53,0.00,,SKC,0.00,VWS V14.01,2013-09-22 02:13:00,
2013-09-21 20:14:00,61.1,43.4,29.87,East,101,1.0,1.0,52,0.00,,SKC,0.00,VWS V14.01,2013-09-22 02:14:00,
2013-09-21 20:15:00,61.0,43.8,29.87,SSE,167,0.0,3.0,53,0.00,,SKC,0.00,VWS V14.01,2013-09-22 02:15:00,
2013-09-21 20:16:00,61.0,43.3,29.87,SSE,163,0.0,0.0,52,0.00,,SKC,0.00,VWS V14.01,2013-09-22 02:16:00,
2013-09-21 20:26:00,60.7,44.5,29.87,SSE,166,0.0,0.0,55,0.00,,SKC,0.00,VWS V14.01,2013-09-22 02:26:00,
2013-09-21 20:31:00,60.3,43.6,29.87,SSE,160,0.0,0.0,54,0.00,,SKC,0.00,VWS V14.01,2013-09-22 02:31:00,
2013-09-21 20:37:00,60.0,43.3,29.87,SSE,160,0.0,0.0,54,0.00,,SKC,0.00,VWS V14.01,2013-09-22 02:37:00,
2013-09-21 20:42:00,60.0,43.3,29.87,SSE,160,0.0,0.0,54,0.00,,SKC,0.00,VWS V14.01,2013-09-22 02:42:00,
2013-09-21 20:47:00,60.1,42.9,29.87,SSE,160,0.0,0.0,53,0.00,,SKC,0.00,VWS V14.01,2013-09-22 02:47:00,
2013-09-21 20:52:00,60.0,42.8,29.87,SSE,161,0.0,0.0,53,0.00,,SKC,0.00,VWS V14.01,2013-09-22 02:52:00,
2013-09-21 20:58:00,59.6,43.4,29.87,SSE,160,0.0,1.0,55,0.00,,SKC,0.00,VWS V14.01,2013-09-22 02:58:00,
2013-09-21 21:04:00,59.0,42.4,29.86,SSE,162,0.0,0.0,54,0.00,,SKC,0.00,VWS V14.01,2013-09-22 03:04:00,
2013-09-21 21:09:00,58.7,42.6,29.86,SSE,161,0.0,0.0,55,0.00,,SKC,0.00,VWS V14.01,2013-09-22 03:09:00,
2013-09-21 21:14:00,58.3,42.2,29.86,SSE,159,0.0,0.0,55,0.00,,SKC,0.00,VWS V14.01,2013-09-22 03:14:00,
2013-09-21 21:20:00,57.9,42.3,29.86,SSE,161,0.0,0.0,56,0.00,,SKC,0.00,VWS V14.01,2013-09-22 03:20:00,
2013-09-21 21:25:00,57.5,41.9,29.86,SSE,158,0.0,0.0,56,0.00,,SKC,0.00,VWS V14.01,2013-09-22 03:25:00,
2013-09-21 21:31:00,57.1,41.6,29.86,SW,222,0.0,2.0,56,0.00,,SKC,0.00,VWS V14.01,2013-09-22 03:31:00,
2013-09-21 21:36:00,57.0,41.9,29.86,SW,226,0.0,0.0,57,0.00,,SKC,0.00,VWS V14.01,2013-09-22 03:36:00,
2013-09-21 21:41:00,56.8,41.8,29.86,SW,223,0.0,0.0,57,0.00,,SKC,0.00,VWS V14.01,2013-09-22 03:41:00,
2013-09-21 21:47:00,56.4,41.4,29.85,SW,224,0.0,0.0,57,0.00,,SKC,0.00,VWS V14.01,2013-09-22 03:47:00,
2013-09-21 21:52:00,56.2,41.6,29.85,SW,223,0.0,1.0,58,0.00,,SKC,0.00,VWS V14.01,2013-09-22 03:52:00,
2013-09-21 21:58:00,56.0,41.0,29.85,SW,223,0.0,0.0,57,0.00,,SKC,0.00,VWS V14.01,2013-09-22 03:58:00,
2013-09-21 22:01:00,55.9,40.9,29.85,SW,225,0.0,0.0,57,0.00,,SKC,0.00,VWS V14.01,2013-09-22 04:01:00,
2013-09-21 22:03:00,55.8,40.8,29.85,SW,223,0.0,0.0,57,0.00,,SKC,0.00,VWS V14.01,2013-09-22 04:03:00,
2013-09-21 22:04:00,55.8,41.3,29.85,SW,222,0.0,0.0,58,0.00,,SKC,0.00,VWS V14.01,2013-09-22 04:04:00,
2013-09-21 22:08:00,55.6,41.1,29.85,SW,224,0.0,0.0,58,0.00,,SKC,0.00,VWS V14.01,2013-09-22 04:08:00,
2013-09-21 22:13:00,55.4,40.4,29.85,SW,230,0.0,2.0,57,0.00,,SKC,0.00,VWS V14.01,2013-09-22 04:13:00,
2013-09-21 22:18:00,55.3,40.8,29.85,SW,221,2.0,2.0,58,0.00,,SKC,0.00,VWS V14.01,2013-09-22 04:18:00,
2013-09-21 22:20:00,55.3,40.8,29.85,SW,225,0.0,0.0,58,0.00,,SKC,0.00,VWS V14.01,2013-09-22 04:20:00,
2013-09-21 22:25:00,55.1,41.0,29.85,SW,227,0.0,0.0,59,0.00,,SKC,0.00,VWS V14.01,2013-09-22 04:25:00,
2013-09-21 22:30:00,54.8,40.3,29.84,SW,221,3.0,3.0,58,0.00,,SKC,0.00,VWS V14.01,2013-09-22 04:30:00,
2013-09-21 22:35:00,54.6,40.1,29.84,SW,229,0.0,1.0,58,0.00,,SKC,0.00,VWS V14.01,2013-09-22 04:35:00,
2013-09-21 22:40:00,54.5,39.6,29.84,SW,229,0.0,0.0,57,0.00,,SKC,0.00,VWS V14.01,2013-09-22 04:40:00,
2013-09-21 22:45:00,54.6,39.2,29.85,SW,230,0.0,0.0,56,0.00,,SKC,0.00,VWS V14.01,2013-09-22 04:45:00,
2013-09-21 22:50:00,54.6,40.1,29.84,SW,230,0.0,0.0,58,0.00,,SKC,0.00,VWS V14.01,2013-09-22 04:50:00,
2013-09-21 22:55:00,54.4,38.6,29.84,SW,229,1.0,2.0,55,0.00,,SKC,0.00,VWS V14.01,2013-09-22 04:55:00,
2013-09-21 23:00:00,54.4,38.6,29.84,West,271,1.0,4.0,55,0.00,,SKC,0.00,VWS V14.01,2013-09-22 05:00:00,
2013-09-21 23:06:00,54.4,37.6,29.84,West,266,3.0,3.0,53,0.00,,SKC,0.00,VWS V14.01,2013-09-22 05:06:00,
2013-09-21 23:11:00,54.6,38.3,29.84,West,267,1.0,3.0,54,0.00,,SKC,0.00,VWS V14.01,2013-09-22 05:11:00,
2013-09-21 23:16:00,54.7,37.9,29.84,West,262,3.0,4.0,53,0.00,,SKC,0.00,VWS V14.01,2013-09-22 05:16:00,
2013-09-21 23:21:00,54.6,39.2,29.83,North,360,0.0,0.0,56,0.00,,SKC,0.00,VWS V14.01,2013-09-22 05:21:00,
2013-09-21 23:26:00,54.3,38.5,29.84,NW,312,0.0,1.0,55,0.00,,SKC,0.00,VWS V14.01,2013-09-22 05:26:00,
2013-09-21 23:31:00,54.2,37.5,29.83,NW,313,0.0,0.0,53,0.00,,SKC,0.00,VWS V14.01,2013-09-22 05:31:00,
2013-09-21 23:36:00,54.1,36.9,29.83,NW,313,0.0,0.0,52,0.00,,SKC,0.00,VWS V14.01,2013-09-22 05:36:00,
2013-09-21 23:41:00,54.1,37.8,29.83,NW,313,1.0,2.0,54,0.00,,SKC,0.00,VWS V14.01,2013-09-22 05:41:00,
2013-09-21 23:46:00,53.9,36.7,29.83,NW,309,1.0,3.0,52,0.00,,SKC,0.00,VWS V14.01,2013-09-22 05:46:00,
2013-09-21 23:51:00,53.8,36.6,29.83,WNW,295,0.0,1.0,52,0.00,,SKC,0.00,VWS V14.01,2013-09-22 05:51:00,
2013-09-21 23:57:00,53.6,36.4,29.83,WNW,284,2.0,5.0,52,0.00,,SKC,0.00,VWS V14.01,2013-09-22 05:57:00,